<?xml version="1.0" encoding="UTF-8" standalone="no" ?>
<gpx xmlns="http://www.topografix.com/GPX/1/1" xmlns:xsi="http://www.w3.org/2001/XMLSchema-instance" xsi:schemaLocation="http://www.topografix.com/GPX/1/1 http://www.topografix.com/GPX/1/1/gpx.xsd" version="1.1" creator="VisuGPX - https://www.visugpx.com">
  <metadata>
    <name>13 oct Chargey les P</name>
    <desc><![CDATA[prévu plus long, mais raccourci]]></desc>
  </metadata>
  <trk>
    <name><![CDATA[13 Oct on GPSies.com]]></name>
    <trkseg>
      <trkpt lat="47.69072" lon="6.03786">
        <ele>218</ele>
        <time>2010-01-01T00:00:00Z</time>
      </trkpt>
      <trkpt lat="47.69073" lon="6.03784">
        <ele>218</ele>
        <time>2010-01-01T00:00:00Z</time>
      </trkpt>
      <trkpt lat="47.69079" lon="6.03786">
        <ele>218</ele>
        <time>2010-01-01T00:00:03Z</time>
      </trkpt>
      <trkpt lat="47.69084" lon="6.03788">
        <ele>218</ele>
        <time>2010-01-01T00:00:05Z</time>
      </trkpt>
      <trkpt lat="47.69097" lon="6.03794">
        <ele>218</ele>
        <time>2010-01-01T00:00:10Z</time>
      </trkpt>
      <trkpt lat="47.69099" lon="6.03793">
        <ele>219</ele>
        <time>2010-01-01T00:00:11Z</time>
      </trkpt>
      <trkpt lat="47.69102" lon="6.03791">
        <ele>219</ele>
        <time>2010-01-01T00:00:12Z</time>
      </trkpt>
      <trkpt lat="47.69105" lon="6.0379">
        <ele>219</ele>
        <time>2010-01-01T00:00:14Z</time>
      </trkpt>
      <trkpt lat="47.69107" lon="6.03788">
        <ele>220</ele>
        <time>2010-01-01T00:00:15Z</time>
      </trkpt>
      <trkpt lat="47.69113" lon="6.03775">
        <ele>220</ele>
        <time>2010-01-01T00:00:19Z</time>
      </trkpt>
      <trkpt lat="47.69114" lon="6.0377">
        <ele>220</ele>
        <time>2010-01-01T00:00:20Z</time>
      </trkpt>
      <trkpt lat="47.6912" lon="6.03741">
        <ele>220</ele>
        <time>2010-01-01T00:00:28Z</time>
      </trkpt>
      <trkpt lat="47.69128" lon="6.03716">
        <ele>220</ele>
        <time>2010-01-01T00:00:36Z</time>
      </trkpt>
      <trkpt lat="47.69133" lon="6.0369">
        <ele>220</ele>
        <time>2010-01-01T00:00:43Z</time>
      </trkpt>
      <trkpt lat="47.69138" lon="6.03665">
        <ele>220</ele>
        <time>2010-01-01T00:00:50Z</time>
      </trkpt>
      <trkpt lat="47.69149" lon="6.03643">
        <ele>220</ele>
        <time>2010-01-01T00:00:58Z</time>
      </trkpt>
      <trkpt lat="47.69151" lon="6.03644">
        <ele>221</ele>
        <time>2010-01-01T00:00:58Z</time>
      </trkpt>
      <trkpt lat="47.69152" lon="6.03644">
        <ele>221</ele>
        <time>2010-01-01T00:00:59Z</time>
      </trkpt>
      <trkpt lat="47.69153" lon="6.03646">
        <ele>221</ele>
        <time>2010-01-01T00:00:59Z</time>
      </trkpt>
      <trkpt lat="47.69155" lon="6.03647">
        <ele>222</ele>
        <time>2010-01-01T00:01:00Z</time>
      </trkpt>
      <trkpt lat="47.69161" lon="6.03651">
        <ele>222</ele>
        <time>2010-01-01T00:01:03Z</time>
      </trkpt>
      <trkpt lat="47.69166" lon="6.03656">
        <ele>222</ele>
        <time>2010-01-01T00:01:05Z</time>
      </trkpt>
      <trkpt lat="47.69167" lon="6.03658">
        <ele>223</ele>
        <time>2010-01-01T00:01:06Z</time>
      </trkpt>
      <trkpt lat="47.69169" lon="6.03658">
        <ele>223</ele>
        <time>2010-01-01T00:01:07Z</time>
      </trkpt>
      <trkpt lat="47.69171" lon="6.03659">
        <ele>224</ele>
        <time>2010-01-01T00:01:07Z</time>
      </trkpt>
      <trkpt lat="47.69173" lon="6.03661">
        <ele>224</ele>
        <time>2010-01-01T00:01:08Z</time>
      </trkpt>
      <trkpt lat="47.69181" lon="6.0367">
        <ele>224</ele>
        <time>2010-01-01T00:01:12Z</time>
      </trkpt>
      <trkpt lat="47.69182" lon="6.0367">
        <ele>225</ele>
        <time>2010-01-01T00:01:13Z</time>
      </trkpt>
      <trkpt lat="47.69184" lon="6.03669">
        <ele>225</ele>
        <time>2010-01-01T00:01:13Z</time>
      </trkpt>
      <trkpt lat="47.69185" lon="6.03669">
        <ele>226</ele>
        <time>2010-01-01T00:01:14Z</time>
      </trkpt>
      <trkpt lat="47.69186" lon="6.03668">
        <ele>226</ele>
        <time>2010-01-01T00:01:15Z</time>
      </trkpt>
      <trkpt lat="47.69194" lon="6.03661">
        <ele>226</ele>
        <time>2010-01-01T00:01:18Z</time>
      </trkpt>
      <trkpt lat="47.69199" lon="6.03656">
        <ele>227</ele>
        <time>2010-01-01T00:01:21Z</time>
      </trkpt>
      <trkpt lat="47.692" lon="6.03656">
        <ele>227</ele>
        <time>2010-01-01T00:01:21Z</time>
      </trkpt>
      <trkpt lat="47.69202" lon="6.03654">
        <ele>228</ele>
        <time>2010-01-01T00:01:22Z</time>
      </trkpt>
      <trkpt lat="47.69203" lon="6.03653">
        <ele>228</ele>
        <time>2010-01-01T00:01:22Z</time>
      </trkpt>
      <trkpt lat="47.69204" lon="6.03652">
        <ele>228</ele>
        <time>2010-01-01T00:01:23Z</time>
      </trkpt>
      <trkpt lat="47.69209" lon="6.03647">
        <ele>228</ele>
        <time>2010-01-01T00:01:25Z</time>
      </trkpt>
      <trkpt lat="47.69211" lon="6.03645">
        <ele>228</ele>
        <time>2010-01-01T00:01:26Z</time>
      </trkpt>
      <trkpt lat="47.69214" lon="6.03644">
        <ele>229</ele>
        <time>2010-01-01T00:01:28Z</time>
      </trkpt>
      <trkpt lat="47.69216" lon="6.03644">
        <ele>229</ele>
        <time>2010-01-01T00:01:28Z</time>
      </trkpt>
      <trkpt lat="47.69217" lon="6.03644">
        <ele>229</ele>
        <time>2010-01-01T00:01:29Z</time>
      </trkpt>
      <trkpt lat="47.69218" lon="6.03643">
        <ele>230</ele>
        <time>2010-01-01T00:01:29Z</time>
      </trkpt>
      <trkpt lat="47.6922" lon="6.03643">
        <ele>230</ele>
        <time>2010-01-01T00:01:30Z</time>
      </trkpt>
      <trkpt lat="47.69222" lon="6.03643">
        <ele>230</ele>
        <time>2010-01-01T00:01:31Z</time>
      </trkpt>
      <trkpt lat="47.69229" lon="6.03645">
        <ele>230</ele>
        <time>2010-01-01T00:01:34Z</time>
      </trkpt>
      <trkpt lat="47.69239" lon="6.03643">
        <ele>230</ele>
        <time>2010-01-01T00:01:38Z</time>
      </trkpt>
      <trkpt lat="47.69244" lon="6.03642">
        <ele>231</ele>
        <time>2010-01-01T00:01:40Z</time>
      </trkpt>
      <trkpt lat="47.69246" lon="6.03642">
        <ele>231</ele>
        <time>2010-01-01T00:01:40Z</time>
      </trkpt>
      <trkpt lat="47.69248" lon="6.03642">
        <ele>232</ele>
        <time>2010-01-01T00:01:41Z</time>
      </trkpt>
      <trkpt lat="47.69249" lon="6.03641">
        <ele>231</ele>
        <time>2010-01-01T00:01:42Z</time>
      </trkpt>
      <trkpt lat="47.69251" lon="6.03641">
        <ele>231</ele>
        <time>2010-01-01T00:01:42Z</time>
      </trkpt>
      <trkpt lat="47.69252" lon="6.0364">
        <ele>231</ele>
        <time>2010-01-01T00:01:43Z</time>
      </trkpt>
      <trkpt lat="47.69254" lon="6.03639">
        <ele>230</ele>
        <time>2010-01-01T00:01:44Z</time>
      </trkpt>
      <trkpt lat="47.69256" lon="6.03638">
        <ele>231</ele>
        <time>2010-01-01T00:01:44Z</time>
      </trkpt>
      <trkpt lat="47.69257" lon="6.03637">
        <ele>231</ele>
        <time>2010-01-01T00:01:45Z</time>
      </trkpt>
      <trkpt lat="47.69258" lon="6.03636">
        <ele>232</ele>
        <time>2010-01-01T00:01:46Z</time>
      </trkpt>
      <trkpt lat="47.69259" lon="6.03635">
        <ele>232</ele>
        <time>2010-01-01T00:01:46Z</time>
      </trkpt>
      <trkpt lat="47.6926" lon="6.03634">
        <ele>232</ele>
        <time>2010-01-01T00:01:47Z</time>
      </trkpt>
      <trkpt lat="47.69262" lon="6.03633">
        <ele>232</ele>
        <time>2010-01-01T00:01:47Z</time>
      </trkpt>
      <trkpt lat="47.69263" lon="6.03632">
        <ele>232</ele>
        <time>2010-01-01T00:01:48Z</time>
      </trkpt>
      <trkpt lat="47.69264" lon="6.0363">
        <ele>232</ele>
        <time>2010-01-01T00:01:48Z</time>
      </trkpt>
      <trkpt lat="47.69266" lon="6.03629">
        <ele>233</ele>
        <time>2010-01-01T00:01:49Z</time>
      </trkpt>
      <trkpt lat="47.69267" lon="6.03628">
        <ele>234</ele>
        <time>2010-01-01T00:01:50Z</time>
      </trkpt>
      <trkpt lat="47.69269" lon="6.03627">
        <ele>233</ele>
        <time>2010-01-01T00:01:51Z</time>
      </trkpt>
      <trkpt lat="47.6927" lon="6.03626">
        <ele>233</ele>
        <time>2010-01-01T00:01:51Z</time>
      </trkpt>
      <trkpt lat="47.69272" lon="6.03625">
        <ele>233</ele>
        <time>2010-01-01T00:01:52Z</time>
      </trkpt>
      <trkpt lat="47.69273" lon="6.03624">
        <ele>234</ele>
        <time>2010-01-01T00:01:53Z</time>
      </trkpt>
      <trkpt lat="47.69275" lon="6.03623">
        <ele>235</ele>
        <time>2010-01-01T00:01:53Z</time>
      </trkpt>
      <trkpt lat="47.69277" lon="6.03622">
        <ele>236</ele>
        <time>2010-01-01T00:01:54Z</time>
      </trkpt>
      <trkpt lat="47.69278" lon="6.03622">
        <ele>235</ele>
        <time>2010-01-01T00:01:55Z</time>
      </trkpt>
      <trkpt lat="47.69279" lon="6.03621">
        <ele>235</ele>
        <time>2010-01-01T00:01:55Z</time>
      </trkpt>
      <trkpt lat="47.69281" lon="6.03619">
        <ele>234</ele>
        <time>2010-01-01T00:01:56Z</time>
      </trkpt>
      <trkpt lat="47.69282" lon="6.03618">
        <ele>234</ele>
        <time>2010-01-01T00:01:56Z</time>
      </trkpt>
      <trkpt lat="47.69283" lon="6.03617">
        <ele>235</ele>
        <time>2010-01-01T00:01:57Z</time>
      </trkpt>
      <trkpt lat="47.69284" lon="6.03615">
        <ele>235</ele>
        <time>2010-01-01T00:01:58Z</time>
      </trkpt>
      <trkpt lat="47.69285" lon="6.03614">
        <ele>234</ele>
        <time>2010-01-01T00:01:58Z</time>
      </trkpt>
      <trkpt lat="47.69287" lon="6.03611">
        <ele>234</ele>
        <time>2010-01-01T00:01:59Z</time>
      </trkpt>
      <trkpt lat="47.69288" lon="6.0361">
        <ele>234</ele>
        <time>2010-01-01T00:02:00Z</time>
      </trkpt>
      <trkpt lat="47.6929" lon="6.03608">
        <ele>235</ele>
        <time>2010-01-01T00:02:01Z</time>
      </trkpt>
      <trkpt lat="47.69291" lon="6.03606">
        <ele>236</ele>
        <time>2010-01-01T00:02:01Z</time>
      </trkpt>
      <trkpt lat="47.69292" lon="6.03605">
        <ele>235</ele>
        <time>2010-01-01T00:02:02Z</time>
      </trkpt>
      <trkpt lat="47.69294" lon="6.03603">
        <ele>234</ele>
        <time>2010-01-01T00:02:03Z</time>
      </trkpt>
      <trkpt lat="47.69295" lon="6.03601">
        <ele>234</ele>
        <time>2010-01-01T00:02:03Z</time>
      </trkpt>
      <trkpt lat="47.69296" lon="6.036">
        <ele>235</ele>
        <time>2010-01-01T00:02:04Z</time>
      </trkpt>
      <trkpt lat="47.69297" lon="6.03598">
        <ele>236</ele>
        <time>2010-01-01T00:02:05Z</time>
      </trkpt>
      <trkpt lat="47.69299" lon="6.03596">
        <ele>236</ele>
        <time>2010-01-01T00:02:05Z</time>
      </trkpt>
      <trkpt lat="47.693" lon="6.03595">
        <ele>236</ele>
        <time>2010-01-01T00:02:06Z</time>
      </trkpt>
      <trkpt lat="47.69302" lon="6.03593">
        <ele>236</ele>
        <time>2010-01-01T00:02:07Z</time>
      </trkpt>
      <trkpt lat="47.69303" lon="6.03591">
        <ele>236</ele>
        <time>2010-01-01T00:02:08Z</time>
      </trkpt>
      <trkpt lat="47.69304" lon="6.03589">
        <ele>236</ele>
        <time>2010-01-01T00:02:08Z</time>
      </trkpt>
      <trkpt lat="47.69306" lon="6.03587">
        <ele>236</ele>
        <time>2010-01-01T00:02:09Z</time>
      </trkpt>
      <trkpt lat="47.69316" lon="6.03572">
        <ele>236</ele>
        <time>2010-01-01T00:02:15Z</time>
      </trkpt>
      <trkpt lat="47.69331" lon="6.03565">
        <ele>236</ele>
        <time>2010-01-01T00:02:21Z</time>
      </trkpt>
      <trkpt lat="47.69343" lon="6.03559">
        <ele>237</ele>
        <time>2010-01-01T00:02:26Z</time>
      </trkpt>
      <trkpt lat="47.69345" lon="6.03559">
        <ele>237</ele>
        <time>2010-01-01T00:02:27Z</time>
      </trkpt>
      <trkpt lat="47.69346" lon="6.03558">
        <ele>238</ele>
        <time>2010-01-01T00:02:28Z</time>
      </trkpt>
      <trkpt lat="47.69348" lon="6.03557">
        <ele>238</ele>
        <time>2010-01-01T00:02:28Z</time>
      </trkpt>
      <trkpt lat="47.6936" lon="6.03552">
        <ele>238</ele>
        <time>2010-01-01T00:02:33Z</time>
      </trkpt>
      <trkpt lat="47.69372" lon="6.03543">
        <ele>239</ele>
        <time>2010-01-01T00:02:39Z</time>
      </trkpt>
      <trkpt lat="47.69374" lon="6.03542">
        <ele>239</ele>
        <time>2010-01-01T00:02:39Z</time>
      </trkpt>
      <trkpt lat="47.69375" lon="6.03541">
        <ele>240</ele>
        <time>2010-01-01T00:02:40Z</time>
      </trkpt>
      <trkpt lat="47.69377" lon="6.0354">
        <ele>240</ele>
        <time>2010-01-01T00:02:41Z</time>
      </trkpt>
      <trkpt lat="47.69378" lon="6.03539">
        <ele>240</ele>
        <time>2010-01-01T00:02:41Z</time>
      </trkpt>
      <trkpt lat="47.69381" lon="6.03536">
        <ele>240</ele>
        <time>2010-01-01T00:02:43Z</time>
      </trkpt>
      <trkpt lat="47.69394" lon="6.03525">
        <ele>240</ele>
        <time>2010-01-01T00:02:49Z</time>
      </trkpt>
      <trkpt lat="47.69401" lon="6.03517">
        <ele>241</ele>
        <time>2010-01-01T00:02:52Z</time>
      </trkpt>
      <trkpt lat="47.69403" lon="6.03516">
        <ele>241</ele>
        <time>2010-01-01T00:02:53Z</time>
      </trkpt>
      <trkpt lat="47.69404" lon="6.03515">
        <ele>242</ele>
        <time>2010-01-01T00:02:54Z</time>
      </trkpt>
      <trkpt lat="47.69406" lon="6.03514">
        <ele>242</ele>
        <time>2010-01-01T00:02:54Z</time>
      </trkpt>
      <trkpt lat="47.69408" lon="6.03512">
        <ele>243</ele>
        <time>2010-01-01T00:02:55Z</time>
      </trkpt>
      <trkpt lat="47.69421" lon="6.035">
        <ele>243</ele>
        <time>2010-01-01T00:03:01Z</time>
      </trkpt>
      <trkpt lat="47.69433" lon="6.03489">
        <ele>243</ele>
        <time>2010-01-01T00:03:07Z</time>
      </trkpt>
      <trkpt lat="47.69435" lon="6.03488">
        <ele>243</ele>
        <time>2010-01-01T00:03:08Z</time>
      </trkpt>
      <trkpt lat="47.69436" lon="6.03487">
        <ele>243</ele>
        <time>2010-01-01T00:03:09Z</time>
      </trkpt>
      <trkpt lat="47.69438" lon="6.03485">
        <ele>244</ele>
        <time>2010-01-01T00:03:09Z</time>
      </trkpt>
      <trkpt lat="47.69439" lon="6.03483">
        <ele>244</ele>
        <time>2010-01-01T00:03:10Z</time>
      </trkpt>
      <trkpt lat="47.69441" lon="6.03481">
        <ele>245</ele>
        <time>2010-01-01T00:03:11Z</time>
      </trkpt>
      <trkpt lat="47.69444" lon="6.03478">
        <ele>245</ele>
        <time>2010-01-01T00:03:12Z</time>
      </trkpt>
      <trkpt lat="47.69456" lon="6.03463">
        <ele>245</ele>
        <time>2010-01-01T00:03:19Z</time>
      </trkpt>
      <trkpt lat="47.69459" lon="6.0346">
        <ele>245</ele>
        <time>2010-01-01T00:03:20Z</time>
      </trkpt>
      <trkpt lat="47.6946" lon="6.03458">
        <ele>245</ele>
        <time>2010-01-01T00:03:21Z</time>
      </trkpt>
      <trkpt lat="47.69462" lon="6.03456">
        <ele>246</ele>
        <time>2010-01-01T00:03:22Z</time>
      </trkpt>
      <trkpt lat="47.69463" lon="6.03454">
        <ele>247</ele>
        <time>2010-01-01T00:03:22Z</time>
      </trkpt>
      <trkpt lat="47.69464" lon="6.03452">
        <ele>247</ele>
        <time>2010-01-01T00:03:23Z</time>
      </trkpt>
      <trkpt lat="47.69478" lon="6.03433">
        <ele>247</ele>
        <time>2010-01-01T00:03:31Z</time>
      </trkpt>
      <trkpt lat="47.69492" lon="6.03411">
        <ele>247</ele>
        <time>2010-01-01T00:03:39Z</time>
      </trkpt>
      <trkpt lat="47.69494" lon="6.03408">
        <ele>247</ele>
        <time>2010-01-01T00:03:40Z</time>
      </trkpt>
      <trkpt lat="47.6951" lon="6.03381">
        <ele>247</ele>
        <time>2010-01-01T00:03:50Z</time>
      </trkpt>
      <trkpt lat="47.69523" lon="6.0336">
        <ele>247</ele>
        <time>2010-01-01T00:03:57Z</time>
      </trkpt>
      <trkpt lat="47.69528" lon="6.03352">
        <ele>246</ele>
        <time>2010-01-01T00:04:00Z</time>
      </trkpt>
      <trkpt lat="47.6953" lon="6.03348">
        <ele>246</ele>
        <time>2010-01-01T00:04:02Z</time>
      </trkpt>
      <trkpt lat="47.69533" lon="6.03344">
        <ele>245</ele>
        <time>2010-01-01T00:04:03Z</time>
      </trkpt>
      <trkpt lat="47.69535" lon="6.0334">
        <ele>245</ele>
        <time>2010-01-01T00:04:05Z</time>
      </trkpt>
      <trkpt lat="47.69537" lon="6.03335">
        <ele>245</ele>
        <time>2010-01-01T00:04:06Z</time>
      </trkpt>
      <trkpt lat="47.69542" lon="6.03326">
        <ele>245</ele>
        <time>2010-01-01T00:04:09Z</time>
      </trkpt>
      <trkpt lat="47.69557" lon="6.03296">
        <ele>245</ele>
        <time>2010-01-01T00:04:19Z</time>
      </trkpt>
      <trkpt lat="47.69571" lon="6.03264">
        <ele>245</ele>
        <time>2010-01-01T00:04:30Z</time>
      </trkpt>
      <trkpt lat="47.69585" lon="6.03237">
        <ele>245</ele>
        <time>2010-01-01T00:04:39Z</time>
      </trkpt>
      <trkpt lat="47.69597" lon="6.03212">
        <ele>245</ele>
        <time>2010-01-01T00:04:47Z</time>
      </trkpt>
      <trkpt lat="47.69598" lon="6.03204">
        <ele>245</ele>
        <time>2010-01-01T00:04:49Z</time>
      </trkpt>
      <trkpt lat="47.69597" lon="6.03196">
        <ele>245</ele>
        <time>2010-01-01T00:04:51Z</time>
      </trkpt>
      <trkpt lat="47.6959" lon="6.03164">
        <ele>245</ele>
        <time>2010-01-01T00:05:00Z</time>
      </trkpt>
      <trkpt lat="47.69587" lon="6.03151">
        <ele>245</ele>
        <time>2010-01-01T00:05:04Z</time>
      </trkpt>
      <trkpt lat="47.69586" lon="6.03147">
        <ele>245</ele>
        <time>2010-01-01T00:05:05Z</time>
      </trkpt>
      <trkpt lat="47.69585" lon="6.03144">
        <ele>246</ele>
        <time>2010-01-01T00:05:06Z</time>
      </trkpt>
      <trkpt lat="47.69584" lon="6.0314">
        <ele>246</ele>
        <time>2010-01-01T00:05:07Z</time>
      </trkpt>
      <trkpt lat="47.69584" lon="6.03136">
        <ele>247</ele>
        <time>2010-01-01T00:05:09Z</time>
      </trkpt>
      <trkpt lat="47.6958" lon="6.03115">
        <ele>247</ele>
        <time>2010-01-01T00:05:14Z</time>
      </trkpt>
      <trkpt lat="47.69575" lon="6.03082">
        <ele>247</ele>
        <time>2010-01-01T00:05:23Z</time>
      </trkpt>
      <trkpt lat="47.6957" lon="6.03047">
        <ele>247</ele>
        <time>2010-01-01T00:05:33Z</time>
      </trkpt>
      <trkpt lat="47.69566" lon="6.03009">
        <ele>247</ele>
        <time>2010-01-01T00:05:43Z</time>
      </trkpt>
      <trkpt lat="47.69564" lon="6.02964">
        <ele>247</ele>
        <time>2010-01-01T00:05:56Z</time>
      </trkpt>
      <trkpt lat="47.69562" lon="6.02918">
        <ele>247</ele>
        <time>2010-01-01T00:06:08Z</time>
      </trkpt>
      <trkpt lat="47.69559" lon="6.02874">
        <ele>247</ele>
        <time>2010-01-01T00:06:20Z</time>
      </trkpt>
      <trkpt lat="47.69556" lon="6.02844">
        <ele>247</ele>
        <time>2010-01-01T00:06:28Z</time>
      </trkpt>
      <trkpt lat="47.6955" lon="6.02809">
        <ele>247</ele>
        <time>2010-01-01T00:06:38Z</time>
      </trkpt>
      <trkpt lat="47.69543" lon="6.02779">
        <ele>247</ele>
        <time>2010-01-01T00:06:46Z</time>
      </trkpt>
      <trkpt lat="47.69542" lon="6.02776">
        <ele>247</ele>
        <time>2010-01-01T00:06:47Z</time>
      </trkpt>
      <trkpt lat="47.69541" lon="6.02772">
        <ele>248</ele>
        <time>2010-01-01T00:06:48Z</time>
      </trkpt>
      <trkpt lat="47.6954" lon="6.02769">
        <ele>248</ele>
        <time>2010-01-01T00:06:49Z</time>
      </trkpt>
      <trkpt lat="47.69539" lon="6.02765">
        <ele>249</ele>
        <time>2010-01-01T00:06:50Z</time>
      </trkpt>
      <trkpt lat="47.69534" lon="6.02746">
        <ele>249</ele>
        <time>2010-01-01T00:06:56Z</time>
      </trkpt>
      <trkpt lat="47.69528" lon="6.02726">
        <ele>249</ele>
        <time>2010-01-01T00:07:02Z</time>
      </trkpt>
      <trkpt lat="47.69531" lon="6.02712">
        <ele>249</ele>
        <time>2010-01-01T00:07:06Z</time>
      </trkpt>
      <trkpt lat="47.69543" lon="6.027">
        <ele>249</ele>
        <time>2010-01-01T00:07:11Z</time>
      </trkpt>
      <trkpt lat="47.69554" lon="6.02684">
        <ele>248</ele>
        <time>2010-01-01T00:07:18Z</time>
      </trkpt>
      <trkpt lat="47.69556" lon="6.02681">
        <ele>247</ele>
        <time>2010-01-01T00:07:19Z</time>
      </trkpt>
      <trkpt lat="47.69558" lon="6.02678">
        <ele>247</ele>
        <time>2010-01-01T00:07:20Z</time>
      </trkpt>
      <trkpt lat="47.6956" lon="6.02674">
        <ele>247</ele>
        <time>2010-01-01T00:07:21Z</time>
      </trkpt>
      <trkpt lat="47.69569" lon="6.02649">
        <ele>247</ele>
        <time>2010-01-01T00:07:29Z</time>
      </trkpt>
      <trkpt lat="47.69573" lon="6.02628">
        <ele>246</ele>
        <time>2010-01-01T00:07:35Z</time>
      </trkpt>
      <trkpt lat="47.69574" lon="6.02624">
        <ele>246</ele>
        <time>2010-01-01T00:07:36Z</time>
      </trkpt>
      <trkpt lat="47.69574" lon="6.02619">
        <ele>245</ele>
        <time>2010-01-01T00:07:37Z</time>
      </trkpt>
      <trkpt lat="47.69575" lon="6.02615">
        <ele>245</ele>
        <time>2010-01-01T00:07:38Z</time>
      </trkpt>
      <trkpt lat="47.69575" lon="6.02611">
        <ele>245</ele>
        <time>2010-01-01T00:07:40Z</time>
      </trkpt>
      <trkpt lat="47.69579" lon="6.02585">
        <ele>245</ele>
        <time>2010-01-01T00:07:47Z</time>
      </trkpt>
      <trkpt lat="47.69581" lon="6.02568">
        <ele>244</ele>
        <time>2010-01-01T00:07:51Z</time>
      </trkpt>
      <trkpt lat="47.69582" lon="6.02563">
        <ele>244</ele>
        <time>2010-01-01T00:07:53Z</time>
      </trkpt>
      <trkpt lat="47.69582" lon="6.02559">
        <ele>243</ele>
        <time>2010-01-01T00:07:54Z</time>
      </trkpt>
      <trkpt lat="47.69583" lon="6.02555">
        <ele>243</ele>
        <time>2010-01-01T00:07:55Z</time>
      </trkpt>
      <trkpt lat="47.69583" lon="6.02551">
        <ele>243</ele>
        <time>2010-01-01T00:07:56Z</time>
      </trkpt>
      <trkpt lat="47.69584" lon="6.02546">
        <ele>243</ele>
        <time>2010-01-01T00:07:57Z</time>
      </trkpt>
      <trkpt lat="47.69586" lon="6.02525">
        <ele>243</ele>
        <time>2010-01-01T00:08:03Z</time>
      </trkpt>
      <trkpt lat="47.69589" lon="6.02511">
        <ele>242</ele>
        <time>2010-01-01T00:08:07Z</time>
      </trkpt>
      <trkpt lat="47.69589" lon="6.02504">
        <ele>242</ele>
        <time>2010-01-01T00:08:09Z</time>
      </trkpt>
      <trkpt lat="47.6959" lon="6.02497">
        <ele>241</ele>
        <time>2010-01-01T00:08:11Z</time>
      </trkpt>
      <trkpt lat="47.69592" lon="6.02489">
        <ele>241</ele>
        <time>2010-01-01T00:08:13Z</time>
      </trkpt>
      <trkpt lat="47.69593" lon="6.02482">
        <ele>240</ele>
        <time>2010-01-01T00:08:15Z</time>
      </trkpt>
      <trkpt lat="47.69597" lon="6.02468">
        <ele>240</ele>
        <time>2010-01-01T00:08:19Z</time>
      </trkpt>
      <trkpt lat="47.69608" lon="6.02437">
        <ele>240</ele>
        <time>2010-01-01T00:08:29Z</time>
      </trkpt>
      <trkpt lat="47.6961" lon="6.02431">
        <ele>240</ele>
        <time>2010-01-01T00:08:30Z</time>
      </trkpt>
      <trkpt lat="47.69622" lon="6.02404">
        <ele>240</ele>
        <time>2010-01-01T00:08:39Z</time>
      </trkpt>
      <trkpt lat="47.69637" lon="6.02375">
        <ele>240</ele>
        <time>2010-01-01T00:08:49Z</time>
      </trkpt>
      <trkpt lat="47.69651" lon="6.02358">
        <ele>240</ele>
        <time>2010-01-01T00:08:56Z</time>
      </trkpt>
      <trkpt lat="47.69665" lon="6.02343">
        <ele>240</ele>
        <time>2010-01-01T00:09:03Z</time>
      </trkpt>
      <trkpt lat="47.69684" lon="6.02333">
        <ele>240</ele>
        <time>2010-01-01T00:09:11Z</time>
      </trkpt>
      <trkpt lat="47.69692" lon="6.02329">
        <ele>241</ele>
        <time>2010-01-01T00:09:15Z</time>
      </trkpt>
      <trkpt lat="47.69694" lon="6.02328">
        <ele>241</ele>
        <time>2010-01-01T00:09:15Z</time>
      </trkpt>
      <trkpt lat="47.69696" lon="6.02327">
        <ele>242</ele>
        <time>2010-01-01T00:09:16Z</time>
      </trkpt>
      <trkpt lat="47.69698" lon="6.02326">
        <ele>242</ele>
        <time>2010-01-01T00:09:17Z</time>
      </trkpt>
      <trkpt lat="47.69701" lon="6.02326">
        <ele>243</ele>
        <time>2010-01-01T00:09:18Z</time>
      </trkpt>
      <trkpt lat="47.69703" lon="6.02325">
        <ele>243</ele>
        <time>2010-01-01T00:09:19Z</time>
      </trkpt>
      <trkpt lat="47.69718" lon="6.0232">
        <ele>243</ele>
        <time>2010-01-01T00:09:25Z</time>
      </trkpt>
      <trkpt lat="47.69724" lon="6.02318">
        <ele>243</ele>
        <time>2010-01-01T00:09:28Z</time>
      </trkpt>
      <trkpt lat="47.69727" lon="6.02317">
        <ele>243</ele>
        <time>2010-01-01T00:09:29Z</time>
      </trkpt>
      <trkpt lat="47.69729" lon="6.02316">
        <ele>244</ele>
        <time>2010-01-01T00:09:30Z</time>
      </trkpt>
      <trkpt lat="47.69731" lon="6.02315">
        <ele>244</ele>
        <time>2010-01-01T00:09:31Z</time>
      </trkpt>
      <trkpt lat="47.69733" lon="6.02313">
        <ele>245</ele>
        <time>2010-01-01T00:09:32Z</time>
      </trkpt>
      <trkpt lat="47.69748" lon="6.02311">
        <ele>245</ele>
        <time>2010-01-01T00:09:38Z</time>
      </trkpt>
      <trkpt lat="47.6977" lon="6.02309">
        <ele>245</ele>
        <time>2010-01-01T00:09:46Z</time>
      </trkpt>
      <trkpt lat="47.69773" lon="6.02309">
        <ele>246</ele>
        <time>2010-01-01T00:09:47Z</time>
      </trkpt>
      <trkpt lat="47.69775" lon="6.02308">
        <ele>246</ele>
        <time>2010-01-01T00:09:48Z</time>
      </trkpt>
      <trkpt lat="47.69778" lon="6.02308">
        <ele>247</ele>
        <time>2010-01-01T00:09:49Z</time>
      </trkpt>
      <trkpt lat="47.69791" lon="6.02307">
        <ele>247</ele>
        <time>2010-01-01T00:09:55Z</time>
      </trkpt>
      <trkpt lat="47.69808" lon="6.02301">
        <ele>247</ele>
        <time>2010-01-01T00:10:02Z</time>
      </trkpt>
      <trkpt lat="47.69825" lon="6.02292">
        <ele>247</ele>
        <time>2010-01-01T00:10:09Z</time>
      </trkpt>
      <trkpt lat="47.69828" lon="6.0229">
        <ele>247</ele>
        <time>2010-01-01T00:10:10Z</time>
      </trkpt>
      <trkpt lat="47.6983" lon="6.02289">
        <ele>248</ele>
        <time>2010-01-01T00:10:11Z</time>
      </trkpt>
      <trkpt lat="47.69832" lon="6.02287">
        <ele>248</ele>
        <time>2010-01-01T00:10:12Z</time>
      </trkpt>
      <trkpt lat="47.69835" lon="6.02286">
        <ele>248</ele>
        <time>2010-01-01T00:10:13Z</time>
      </trkpt>
      <trkpt lat="47.69837" lon="6.02284">
        <ele>249</ele>
        <time>2010-01-01T00:10:14Z</time>
      </trkpt>
      <trkpt lat="47.69842" lon="6.0228">
        <ele>249</ele>
        <time>2010-01-01T00:10:17Z</time>
      </trkpt>
      <trkpt lat="47.69865" lon="6.02261">
        <ele>249</ele>
        <time>2010-01-01T00:10:27Z</time>
      </trkpt>
      <trkpt lat="47.69877" lon="6.02235">
        <ele>249</ele>
        <time>2010-01-01T00:10:35Z</time>
      </trkpt>
      <trkpt lat="47.69894" lon="6.02192">
        <ele>249</ele>
        <time>2010-01-01T00:10:49Z</time>
      </trkpt>
      <trkpt lat="47.69896" lon="6.0218">
        <ele>249</ele>
        <time>2010-01-01T00:10:52Z</time>
      </trkpt>
      <trkpt lat="47.69901" lon="6.02157">
        <ele>249</ele>
        <time>2010-01-01T00:10:59Z</time>
      </trkpt>
      <trkpt lat="47.69913" lon="6.02131">
        <ele>249</ele>
        <time>2010-01-01T00:11:07Z</time>
      </trkpt>
      <trkpt lat="47.69931" lon="6.0211">
        <ele>249</ele>
        <time>2010-01-01T00:11:16Z</time>
      </trkpt>
      <trkpt lat="47.69946" lon="6.02089">
        <ele>249</ele>
        <time>2010-01-01T00:11:25Z</time>
      </trkpt>
      <trkpt lat="47.6996" lon="6.0207">
        <ele>249</ele>
        <time>2010-01-01T00:11:32Z</time>
      </trkpt>
      <trkpt lat="47.69982" lon="6.02049">
        <ele>249</ele>
        <time>2010-01-01T00:11:42Z</time>
      </trkpt>
      <trkpt lat="47.70007" lon="6.02017">
        <ele>249</ele>
        <time>2010-01-01T00:11:56Z</time>
      </trkpt>
      <trkpt lat="47.70031" lon="6.01976">
        <ele>248</ele>
        <time>2010-01-01T00:12:10Z</time>
      </trkpt>
      <trkpt lat="47.70035" lon="6.01969">
        <ele>248</ele>
        <time>2010-01-01T00:12:13Z</time>
      </trkpt>
      <trkpt lat="47.70039" lon="6.01963">
        <ele>248</ele>
        <time>2010-01-01T00:12:15Z</time>
      </trkpt>
      <trkpt lat="47.70044" lon="6.01956">
        <ele>247</ele>
        <time>2010-01-01T00:12:18Z</time>
      </trkpt>
      <trkpt lat="47.70048" lon="6.0195">
        <ele>247</ele>
        <time>2010-01-01T00:12:20Z</time>
      </trkpt>
      <trkpt lat="47.70061" lon="6.01934">
        <ele>247</ele>
        <time>2010-01-01T00:12:27Z</time>
      </trkpt>
      <trkpt lat="47.70076" lon="6.01915">
        <ele>247</ele>
        <time>2010-01-01T00:12:35Z</time>
      </trkpt>
      <trkpt lat="47.70082" lon="6.0191">
        <ele>247</ele>
        <time>2010-01-01T00:12:38Z</time>
      </trkpt>
      <trkpt lat="47.70087" lon="6.01905">
        <ele>247</ele>
        <time>2010-01-01T00:12:40Z</time>
      </trkpt>
      <trkpt lat="47.70095" lon="6.01893">
        <ele>247</ele>
        <time>2010-01-01T00:12:45Z</time>
      </trkpt>
      <trkpt lat="47.70101" lon="6.01884">
        <ele>247</ele>
        <time>2010-01-01T00:12:48Z</time>
      </trkpt>
      <trkpt lat="47.70102" lon="6.01882">
        <ele>248</ele>
        <time>2010-01-01T00:12:49Z</time>
      </trkpt>
      <trkpt lat="47.70103" lon="6.0188">
        <ele>248</ele>
        <time>2010-01-01T00:12:49Z</time>
      </trkpt>
      <trkpt lat="47.70104" lon="6.01878">
        <ele>248</ele>
        <time>2010-01-01T00:12:50Z</time>
      </trkpt>
      <trkpt lat="47.70105" lon="6.01876">
        <ele>249</ele>
        <time>2010-01-01T00:12:51Z</time>
      </trkpt>
      <trkpt lat="47.7011" lon="6.01869">
        <ele>249</ele>
        <time>2010-01-01T00:12:53Z</time>
      </trkpt>
      <trkpt lat="47.70116" lon="6.01859">
        <ele>249</ele>
        <time>2010-01-01T00:12:57Z</time>
      </trkpt>
      <trkpt lat="47.70118" lon="6.01857">
        <ele>249</ele>
        <time>2010-01-01T00:12:58Z</time>
      </trkpt>
      <trkpt lat="47.70119" lon="6.01855">
        <ele>250</ele>
        <time>2010-01-01T00:12:59Z</time>
      </trkpt>
      <trkpt lat="47.7012" lon="6.01853">
        <ele>250</ele>
        <time>2010-01-01T00:12:59Z</time>
      </trkpt>
      <trkpt lat="47.70121" lon="6.0185">
        <ele>250</ele>
        <time>2010-01-01T00:13:00Z</time>
      </trkpt>
      <trkpt lat="47.70123" lon="6.01848">
        <ele>251</ele>
        <time>2010-01-01T00:13:01Z</time>
      </trkpt>
      <trkpt lat="47.70124" lon="6.01846">
        <ele>251</ele>
        <time>2010-01-01T00:13:02Z</time>
      </trkpt>
      <trkpt lat="47.70131" lon="6.01834">
        <ele>251</ele>
        <time>2010-01-01T00:13:06Z</time>
      </trkpt>
      <trkpt lat="47.70143" lon="6.01817">
        <ele>251</ele>
        <time>2010-01-01T00:13:13Z</time>
      </trkpt>
      <trkpt lat="47.70153" lon="6.01807">
        <ele>251</ele>
        <time>2010-01-01T00:13:18Z</time>
      </trkpt>
      <trkpt lat="47.70154" lon="6.01805">
        <ele>252</ele>
        <time>2010-01-01T00:13:18Z</time>
      </trkpt>
      <trkpt lat="47.70155" lon="6.01803">
        <ele>252</ele>
        <time>2010-01-01T00:13:19Z</time>
      </trkpt>
      <trkpt lat="47.70156" lon="6.01801">
        <ele>252</ele>
        <time>2010-01-01T00:13:20Z</time>
      </trkpt>
      <trkpt lat="47.70158" lon="6.01799">
        <ele>253</ele>
        <time>2010-01-01T00:13:21Z</time>
      </trkpt>
      <trkpt lat="47.70161" lon="6.01792">
        <ele>253</ele>
        <time>2010-01-01T00:13:23Z</time>
      </trkpt>
      <trkpt lat="47.70171" lon="6.01776">
        <ele>253</ele>
        <time>2010-01-01T00:13:29Z</time>
      </trkpt>
      <trkpt lat="47.70175" lon="6.0177">
        <ele>253</ele>
        <time>2010-01-01T00:13:31Z</time>
      </trkpt>
      <trkpt lat="47.70176" lon="6.01769">
        <ele>253</ele>
        <time>2010-01-01T00:13:31Z</time>
      </trkpt>
      <trkpt lat="47.70181" lon="6.01757">
        <ele>253</ele>
        <time>2010-01-01T00:13:35Z</time>
      </trkpt>
      <trkpt lat="47.70192" lon="6.01737">
        <ele>253</ele>
        <time>2010-01-01T00:13:42Z</time>
      </trkpt>
      <trkpt lat="47.70203" lon="6.01713">
        <ele>253</ele>
        <time>2010-01-01T00:13:50Z</time>
      </trkpt>
      <trkpt lat="47.70212" lon="6.0169">
        <ele>253</ele>
        <time>2010-01-01T00:13:57Z</time>
      </trkpt>
      <trkpt lat="47.7022" lon="6.01672">
        <ele>253</ele>
        <time>2010-01-01T00:14:03Z</time>
      </trkpt>
      <trkpt lat="47.70224" lon="6.01668">
        <ele>253</ele>
        <time>2010-01-01T00:14:05Z</time>
      </trkpt>
      <trkpt lat="47.70229" lon="6.01661">
        <ele>253</ele>
        <time>2010-01-01T00:14:08Z</time>
      </trkpt>
      <trkpt lat="47.70231" lon="6.01658">
        <ele>253</ele>
        <time>2010-01-01T00:14:09Z</time>
      </trkpt>
      <trkpt lat="47.70241" lon="6.01641">
        <ele>253</ele>
        <time>2010-01-01T00:14:15Z</time>
      </trkpt>
      <trkpt lat="47.70247" lon="6.0163">
        <ele>253</ele>
        <time>2010-01-01T00:14:19Z</time>
      </trkpt>
      <trkpt lat="47.70259" lon="6.01609">
        <ele>253</ele>
        <time>2010-01-01T00:14:26Z</time>
      </trkpt>
      <trkpt lat="47.70268" lon="6.01596">
        <ele>252</ele>
        <time>2010-01-01T00:14:31Z</time>
      </trkpt>
      <trkpt lat="47.7027" lon="6.01593">
        <ele>252</ele>
        <time>2010-01-01T00:14:32Z</time>
      </trkpt>
      <trkpt lat="47.70271" lon="6.0159">
        <ele>252</ele>
        <time>2010-01-01T00:14:33Z</time>
      </trkpt>
      <trkpt lat="47.70272" lon="6.01587">
        <ele>251</ele>
        <time>2010-01-01T00:14:34Z</time>
      </trkpt>
      <trkpt lat="47.70273" lon="6.01584">
        <ele>251</ele>
        <time>2010-01-01T00:14:35Z</time>
      </trkpt>
      <trkpt lat="47.70276" lon="6.01576">
        <ele>251</ele>
        <time>2010-01-01T00:14:38Z</time>
      </trkpt>
      <trkpt lat="47.70282" lon="6.01567">
        <ele>251</ele>
        <time>2010-01-01T00:14:41Z</time>
      </trkpt>
      <trkpt lat="47.70289" lon="6.01554">
        <ele>251</ele>
        <time>2010-01-01T00:14:45Z</time>
      </trkpt>
      <trkpt lat="47.70295" lon="6.0154">
        <ele>251</ele>
        <time>2010-01-01T00:14:50Z</time>
      </trkpt>
      <trkpt lat="47.70295" lon="6.01522">
        <ele>251</ele>
        <time>2010-01-01T00:14:54Z</time>
      </trkpt>
      <trkpt lat="47.70297" lon="6.01516">
        <ele>250</ele>
        <time>2010-01-01T00:14:56Z</time>
      </trkpt>
      <trkpt lat="47.70298" lon="6.01513">
        <ele>250</ele>
        <time>2010-01-01T00:14:57Z</time>
      </trkpt>
      <trkpt lat="47.70299" lon="6.01511">
        <ele>249</ele>
        <time>2010-01-01T00:14:58Z</time>
      </trkpt>
      <trkpt lat="47.703" lon="6.01509">
        <ele>249</ele>
        <time>2010-01-01T00:14:59Z</time>
      </trkpt>
      <trkpt lat="47.70301" lon="6.01507">
        <ele>249</ele>
        <time>2010-01-01T00:14:59Z</time>
      </trkpt>
      <trkpt lat="47.70303" lon="6.01504">
        <ele>249</ele>
        <time>2010-01-01T00:15:00Z</time>
      </trkpt>
      <trkpt lat="47.70309" lon="6.01502">
        <ele>249</ele>
        <time>2010-01-01T00:15:03Z</time>
      </trkpt>
      <trkpt lat="47.70309" lon="6.01502">
        <ele>249</ele>
        <time>2010-01-01T00:15:03Z</time>
      </trkpt>
      <trkpt lat="47.70313" lon="6.01498">
        <ele>249</ele>
        <time>2010-01-01T00:15:05Z</time>
      </trkpt>
      <trkpt lat="47.70324" lon="6.01481">
        <ele>249</ele>
        <time>2010-01-01T00:15:11Z</time>
      </trkpt>
      <trkpt lat="47.7034" lon="6.01452">
        <ele>249</ele>
        <time>2010-01-01T00:15:21Z</time>
      </trkpt>
      <trkpt lat="47.70339" lon="6.01448">
        <ele>249</ele>
        <time>2010-01-01T00:15:22Z</time>
      </trkpt>
      <trkpt lat="47.70337" lon="6.01444">
        <ele>249</ele>
        <time>2010-01-01T00:15:24Z</time>
      </trkpt>
      <trkpt lat="47.70334" lon="6.0144">
        <ele>249</ele>
        <time>2010-01-01T00:15:25Z</time>
      </trkpt>
      <trkpt lat="47.70333" lon="6.0144">
        <ele>249</ele>
        <time>2010-01-01T00:15:26Z</time>
      </trkpt>
      <trkpt lat="47.70331" lon="6.01439">
        <ele>249</ele>
        <time>2010-01-01T00:15:27Z</time>
      </trkpt>
      <trkpt lat="47.70328" lon="6.01438">
        <ele>249</ele>
        <time>2010-01-01T00:15:28Z</time>
      </trkpt>
      <trkpt lat="47.70318" lon="6.01433">
        <ele>249</ele>
        <time>2010-01-01T00:15:32Z</time>
      </trkpt>
      <trkpt lat="47.70303" lon="6.01424">
        <ele>249</ele>
        <time>2010-01-01T00:15:38Z</time>
      </trkpt>
      <trkpt lat="47.7029" lon="6.01417">
        <ele>249</ele>
        <time>2010-01-01T00:15:44Z</time>
      </trkpt>
      <trkpt lat="47.70271" lon="6.01418">
        <ele>249</ele>
        <time>2010-01-01T00:15:52Z</time>
      </trkpt>
      <trkpt lat="47.70251" lon="6.01423">
        <ele>249</ele>
        <time>2010-01-01T00:16:00Z</time>
      </trkpt>
      <trkpt lat="47.70234" lon="6.01423">
        <ele>249</ele>
        <time>2010-01-01T00:16:07Z</time>
      </trkpt>
      <trkpt lat="47.70218" lon="6.0142">
        <ele>249</ele>
        <time>2010-01-01T00:16:13Z</time>
      </trkpt>
      <trkpt lat="47.70204" lon="6.01414">
        <ele>249</ele>
        <time>2010-01-01T00:16:19Z</time>
      </trkpt>
      <trkpt lat="47.70202" lon="6.01413">
        <ele>249</ele>
        <time>2010-01-01T00:16:20Z</time>
      </trkpt>
      <trkpt lat="47.70201" lon="6.01412">
        <ele>250</ele>
        <time>2010-01-01T00:16:20Z</time>
      </trkpt>
      <trkpt lat="47.70199" lon="6.01411">
        <ele>251</ele>
        <time>2010-01-01T00:16:21Z</time>
      </trkpt>
      <trkpt lat="47.70192" lon="6.01408">
        <ele>251</ele>
        <time>2010-01-01T00:16:24Z</time>
      </trkpt>
      <trkpt lat="47.70178" lon="6.01399">
        <ele>251</ele>
        <time>2010-01-01T00:16:30Z</time>
      </trkpt>
      <trkpt lat="47.70168" lon="6.01394">
        <ele>251</ele>
        <time>2010-01-01T00:16:34Z</time>
      </trkpt>
      <trkpt lat="47.70166" lon="6.01394">
        <ele>251</ele>
        <time>2010-01-01T00:16:35Z</time>
      </trkpt>
      <trkpt lat="47.70165" lon="6.01393">
        <ele>252</ele>
        <time>2010-01-01T00:16:36Z</time>
      </trkpt>
      <trkpt lat="47.70162" lon="6.01392">
        <ele>252</ele>
        <time>2010-01-01T00:16:37Z</time>
      </trkpt>
      <trkpt lat="47.7016" lon="6.01393">
        <ele>252</ele>
        <time>2010-01-01T00:16:38Z</time>
      </trkpt>
      <trkpt lat="47.70157" lon="6.01392">
        <ele>253</ele>
        <time>2010-01-01T00:16:39Z</time>
      </trkpt>
      <trkpt lat="47.70155" lon="6.01392">
        <ele>253</ele>
        <time>2010-01-01T00:16:40Z</time>
      </trkpt>
      <trkpt lat="47.70142" lon="6.0139">
        <ele>253</ele>
        <time>2010-01-01T00:16:45Z</time>
      </trkpt>
      <trkpt lat="47.70119" lon="6.0138">
        <ele>253</ele>
        <time>2010-01-01T00:16:54Z</time>
      </trkpt>
      <trkpt lat="47.70105" lon="6.01372">
        <ele>253</ele>
        <time>2010-01-01T00:17:00Z</time>
      </trkpt>
      <trkpt lat="47.70103" lon="6.0137">
        <ele>253</ele>
        <time>2010-01-01T00:17:01Z</time>
      </trkpt>
      <trkpt lat="47.70101" lon="6.01369">
        <ele>254</ele>
        <time>2010-01-01T00:17:02Z</time>
      </trkpt>
      <trkpt lat="47.70098" lon="6.01367">
        <ele>254</ele>
        <time>2010-01-01T00:17:03Z</time>
      </trkpt>
      <trkpt lat="47.70097" lon="6.01365">
        <ele>255</ele>
        <time>2010-01-01T00:17:04Z</time>
      </trkpt>
      <trkpt lat="47.70091" lon="6.01358">
        <ele>255</ele>
        <time>2010-01-01T00:17:07Z</time>
      </trkpt>
      <trkpt lat="47.70083" lon="6.01343">
        <ele>255</ele>
        <time>2010-01-01T00:17:12Z</time>
      </trkpt>
      <trkpt lat="47.7007" lon="6.01325">
        <ele>255</ele>
        <time>2010-01-01T00:17:19Z</time>
      </trkpt>
      <trkpt lat="47.70063" lon="6.0131">
        <ele>255</ele>
        <time>2010-01-01T00:17:24Z</time>
      </trkpt>
      <trkpt lat="47.7006" lon="6.01304">
        <ele>255</ele>
        <time>2010-01-01T00:17:26Z</time>
      </trkpt>
      <trkpt lat="47.70059" lon="6.01301">
        <ele>256</ele>
        <time>2010-01-01T00:17:27Z</time>
      </trkpt>
      <trkpt lat="47.70058" lon="6.01299">
        <ele>256</ele>
        <time>2010-01-01T00:17:28Z</time>
      </trkpt>
      <trkpt lat="47.70056" lon="6.01297">
        <ele>256</ele>
        <time>2010-01-01T00:17:29Z</time>
      </trkpt>
      <trkpt lat="47.70055" lon="6.01295">
        <ele>257</ele>
        <time>2010-01-01T00:17:29Z</time>
      </trkpt>
      <trkpt lat="47.70054" lon="6.01293">
        <ele>257</ele>
        <time>2010-01-01T00:17:30Z</time>
      </trkpt>
      <trkpt lat="47.70043" lon="6.01274">
        <ele>257</ele>
        <time>2010-01-01T00:17:37Z</time>
      </trkpt>
      <trkpt lat="47.70041" lon="6.01271">
        <ele>257</ele>
        <time>2010-01-01T00:17:38Z</time>
      </trkpt>
      <trkpt lat="47.70039" lon="6.0127">
        <ele>258</ele>
        <time>2010-01-01T00:17:39Z</time>
      </trkpt>
      <trkpt lat="47.70038" lon="6.01268">
        <ele>258</ele>
        <time>2010-01-01T00:17:39Z</time>
      </trkpt>
      <trkpt lat="47.70036" lon="6.01266">
        <ele>259</ele>
        <time>2010-01-01T00:17:40Z</time>
      </trkpt>
      <trkpt lat="47.70035" lon="6.01264">
        <ele>259</ele>
        <time>2010-01-01T00:17:41Z</time>
      </trkpt>
      <trkpt lat="47.70034" lon="6.01262">
        <ele>259</ele>
        <time>2010-01-01T00:17:42Z</time>
      </trkpt>
      <trkpt lat="47.70026" lon="6.01249">
        <ele>259</ele>
        <time>2010-01-01T00:17:46Z</time>
      </trkpt>
      <trkpt lat="47.70023" lon="6.01243">
        <ele>259</ele>
        <time>2010-01-01T00:17:48Z</time>
      </trkpt>
      <trkpt lat="47.70022" lon="6.01241">
        <ele>260</ele>
        <time>2010-01-01T00:17:49Z</time>
      </trkpt>
      <trkpt lat="47.70022" lon="6.01239">
        <ele>260</ele>
        <time>2010-01-01T00:17:50Z</time>
      </trkpt>
      <trkpt lat="47.7002" lon="6.01237">
        <ele>261</ele>
        <time>2010-01-01T00:17:50Z</time>
      </trkpt>
      <trkpt lat="47.7002" lon="6.01235">
        <ele>261</ele>
        <time>2010-01-01T00:17:51Z</time>
      </trkpt>
      <trkpt lat="47.70007" lon="6.01214">
        <ele>261</ele>
        <time>2010-01-01T00:17:59Z</time>
      </trkpt>
      <trkpt lat="47.69996" lon="6.01194">
        <ele>261</ele>
        <time>2010-01-01T00:18:06Z</time>
      </trkpt>
      <trkpt lat="47.69995" lon="6.01192">
        <ele>261</ele>
        <time>2010-01-01T00:18:06Z</time>
      </trkpt>
      <trkpt lat="47.69994" lon="6.01189">
        <ele>262</ele>
        <time>2010-01-01T00:18:07Z</time>
      </trkpt>
      <trkpt lat="47.69992" lon="6.01187">
        <ele>262</ele>
        <time>2010-01-01T00:18:08Z</time>
      </trkpt>
      <trkpt lat="47.69992" lon="6.01185">
        <ele>263</ele>
        <time>2010-01-01T00:18:09Z</time>
      </trkpt>
      <trkpt lat="47.69991" lon="6.01183">
        <ele>263</ele>
        <time>2010-01-01T00:18:09Z</time>
      </trkpt>
      <trkpt lat="47.69988" lon="6.01175">
        <ele>263</ele>
        <time>2010-01-01T00:18:12Z</time>
      </trkpt>
      <trkpt lat="47.69983" lon="6.01166">
        <ele>264</ele>
        <time>2010-01-01T00:18:15Z</time>
      </trkpt>
      <trkpt lat="47.69983" lon="6.01164">
        <ele>264</ele>
        <time>2010-01-01T00:18:15Z</time>
      </trkpt>
      <trkpt lat="47.69982" lon="6.01163">
        <ele>264</ele>
        <time>2010-01-01T00:18:16Z</time>
      </trkpt>
      <trkpt lat="47.69981" lon="6.01161">
        <ele>265</ele>
        <time>2010-01-01T00:18:16Z</time>
      </trkpt>
      <trkpt lat="47.6998" lon="6.0116">
        <ele>265</ele>
        <time>2010-01-01T00:18:17Z</time>
      </trkpt>
      <trkpt lat="47.69977" lon="6.01151">
        <ele>265</ele>
        <time>2010-01-01T00:18:19Z</time>
      </trkpt>
      <trkpt lat="47.69974" lon="6.01144">
        <ele>266</ele>
        <time>2010-01-01T00:18:22Z</time>
      </trkpt>
      <trkpt lat="47.69973" lon="6.01143">
        <ele>266</ele>
        <time>2010-01-01T00:18:22Z</time>
      </trkpt>
      <trkpt lat="47.69973" lon="6.0114">
        <ele>266</ele>
        <time>2010-01-01T00:18:23Z</time>
      </trkpt>
      <trkpt lat="47.69972" lon="6.01138">
        <ele>267</ele>
        <time>2010-01-01T00:18:24Z</time>
      </trkpt>
      <trkpt lat="47.69971" lon="6.01137">
        <ele>267</ele>
        <time>2010-01-01T00:18:24Z</time>
      </trkpt>
      <trkpt lat="47.69961" lon="6.01123">
        <ele>267</ele>
        <time>2010-01-01T00:18:29Z</time>
      </trkpt>
      <trkpt lat="47.69957" lon="6.01113">
        <ele>268</ele>
        <time>2010-01-01T00:18:32Z</time>
      </trkpt>
      <trkpt lat="47.69956" lon="6.01112">
        <ele>268</ele>
        <time>2010-01-01T00:18:33Z</time>
      </trkpt>
      <trkpt lat="47.69956" lon="6.0111">
        <ele>269</ele>
        <time>2010-01-01T00:18:33Z</time>
      </trkpt>
      <trkpt lat="47.69955" lon="6.01109">
        <ele>269</ele>
        <time>2010-01-01T00:18:34Z</time>
      </trkpt>
      <trkpt lat="47.69943" lon="6.01093">
        <ele>269</ele>
        <time>2010-01-01T00:18:40Z</time>
      </trkpt>
      <trkpt lat="47.69932" lon="6.01073">
        <ele>269</ele>
        <time>2010-01-01T00:18:47Z</time>
      </trkpt>
      <trkpt lat="47.69922" lon="6.01057">
        <ele>269</ele>
        <time>2010-01-01T00:18:53Z</time>
      </trkpt>
      <trkpt lat="47.6992" lon="6.01053">
        <ele>270</ele>
        <time>2010-01-01T00:18:54Z</time>
      </trkpt>
      <trkpt lat="47.69919" lon="6.01052">
        <ele>270</ele>
        <time>2010-01-01T00:18:55Z</time>
      </trkpt>
      <trkpt lat="47.69918" lon="6.0105">
        <ele>271</ele>
        <time>2010-01-01T00:18:55Z</time>
      </trkpt>
      <trkpt lat="47.69917" lon="6.01049">
        <ele>271</ele>
        <time>2010-01-01T00:18:56Z</time>
      </trkpt>
      <trkpt lat="47.69916" lon="6.01048">
        <ele>271</ele>
        <time>2010-01-01T00:18:57Z</time>
      </trkpt>
      <trkpt lat="47.69915" lon="6.01047">
        <ele>271</ele>
        <time>2010-01-01T00:18:57Z</time>
      </trkpt>
      <trkpt lat="47.69903" lon="6.01034">
        <ele>271</ele>
        <time>2010-01-01T00:19:03Z</time>
      </trkpt>
      <trkpt lat="47.69895" lon="6.01029">
        <ele>272</ele>
        <time>2010-01-01T00:19:07Z</time>
      </trkpt>
      <trkpt lat="47.69894" lon="6.01028">
        <ele>272</ele>
        <time>2010-01-01T00:19:07Z</time>
      </trkpt>
      <trkpt lat="47.69891" lon="6.01027">
        <ele>273</ele>
        <time>2010-01-01T00:19:08Z</time>
      </trkpt>
      <trkpt lat="47.69889" lon="6.01025">
        <ele>273</ele>
        <time>2010-01-01T00:19:09Z</time>
      </trkpt>
      <trkpt lat="47.69887" lon="6.01024">
        <ele>273</ele>
        <time>2010-01-01T00:19:10Z</time>
      </trkpt>
      <trkpt lat="47.69878" lon="6.01015">
        <ele>273</ele>
        <time>2010-01-01T00:19:14Z</time>
      </trkpt>
      <trkpt lat="47.69875" lon="6.01012">
        <ele>273</ele>
        <time>2010-01-01T00:19:16Z</time>
      </trkpt>
      <trkpt lat="47.69871" lon="6.01009">
        <ele>273</ele>
        <time>2010-01-01T00:19:17Z</time>
      </trkpt>
      <trkpt lat="47.69867" lon="6.01006">
        <ele>274</ele>
        <time>2010-01-01T00:19:19Z</time>
      </trkpt>
      <trkpt lat="47.69865" lon="6.01004">
        <ele>274</ele>
        <time>2010-01-01T00:19:20Z</time>
      </trkpt>
      <trkpt lat="47.69864" lon="6.01003">
        <ele>275</ele>
        <time>2010-01-01T00:19:21Z</time>
      </trkpt>
      <trkpt lat="47.69863" lon="6.01002">
        <ele>275</ele>
        <time>2010-01-01T00:19:21Z</time>
      </trkpt>
      <trkpt lat="47.69862" lon="6.01001">
        <ele>276</ele>
        <time>2010-01-01T00:19:22Z</time>
      </trkpt>
      <trkpt lat="47.6986" lon="6.01">
        <ele>276</ele>
        <time>2010-01-01T00:19:22Z</time>
      </trkpt>
      <trkpt lat="47.69844" lon="6.00988">
        <ele>276</ele>
        <time>2010-01-01T00:19:30Z</time>
      </trkpt>
      <trkpt lat="47.69833" lon="6.00979">
        <ele>276</ele>
        <time>2010-01-01T00:19:35Z</time>
      </trkpt>
      <trkpt lat="47.69832" lon="6.00978">
        <ele>276</ele>
        <time>2010-01-01T00:19:35Z</time>
      </trkpt>
      <trkpt lat="47.6983" lon="6.00977">
        <ele>277</ele>
        <time>2010-01-01T00:19:36Z</time>
      </trkpt>
      <trkpt lat="47.69829" lon="6.00976">
        <ele>277</ele>
        <time>2010-01-01T00:19:37Z</time>
      </trkpt>
      <trkpt lat="47.69827" lon="6.00976">
        <ele>278</ele>
        <time>2010-01-01T00:19:37Z</time>
      </trkpt>
      <trkpt lat="47.69821" lon="6.00971">
        <ele>278</ele>
        <time>2010-01-01T00:19:40Z</time>
      </trkpt>
      <trkpt lat="47.69818" lon="6.00968">
        <ele>278</ele>
        <time>2010-01-01T00:19:41Z</time>
      </trkpt>
      <trkpt lat="47.69809" lon="6.0096">
        <ele>278</ele>
        <time>2010-01-01T00:19:46Z</time>
      </trkpt>
      <trkpt lat="47.69807" lon="6.00958">
        <ele>278</ele>
        <time>2010-01-01T00:19:47Z</time>
      </trkpt>
      <trkpt lat="47.69805" lon="6.00957">
        <ele>278</ele>
        <time>2010-01-01T00:19:47Z</time>
      </trkpt>
      <trkpt lat="47.69804" lon="6.00955">
        <ele>279</ele>
        <time>2010-01-01T00:19:48Z</time>
      </trkpt>
      <trkpt lat="47.69802" lon="6.00954">
        <ele>279</ele>
        <time>2010-01-01T00:19:49Z</time>
      </trkpt>
      <trkpt lat="47.69801" lon="6.00952">
        <ele>280</ele>
        <time>2010-01-01T00:19:50Z</time>
      </trkpt>
      <trkpt lat="47.69796" lon="6.00949">
        <ele>280</ele>
        <time>2010-01-01T00:19:52Z</time>
      </trkpt>
      <trkpt lat="47.69783" lon="6.00941">
        <ele>280</ele>
        <time>2010-01-01T00:19:57Z</time>
      </trkpt>
      <trkpt lat="47.6978" lon="6.00939">
        <ele>280</ele>
        <time>2010-01-01T00:19:59Z</time>
      </trkpt>
      <trkpt lat="47.69779" lon="6.00936">
        <ele>280</ele>
        <time>2010-01-01T00:20:00Z</time>
      </trkpt>
      <trkpt lat="47.69764" lon="6.00922">
        <ele>280</ele>
        <time>2010-01-01T00:20:07Z</time>
      </trkpt>
      <trkpt lat="47.69762" lon="6.00919">
        <ele>280</ele>
        <time>2010-01-01T00:20:08Z</time>
      </trkpt>
      <trkpt lat="47.69762" lon="6.00898">
        <ele>280</ele>
        <time>2010-01-01T00:20:14Z</time>
      </trkpt>
      <trkpt lat="47.69763" lon="6.00895">
        <ele>281</ele>
        <time>2010-01-01T00:20:14Z</time>
      </trkpt>
      <trkpt lat="47.69764" lon="6.00893">
        <ele>281</ele>
        <time>2010-01-01T00:20:15Z</time>
      </trkpt>
      <trkpt lat="47.69764" lon="6.0089">
        <ele>281</ele>
        <time>2010-01-01T00:20:16Z</time>
      </trkpt>
      <trkpt lat="47.69765" lon="6.00888">
        <ele>282</ele>
        <time>2010-01-01T00:20:17Z</time>
      </trkpt>
      <trkpt lat="47.69768" lon="6.00881">
        <ele>282</ele>
        <time>2010-01-01T00:20:19Z</time>
      </trkpt>
      <trkpt lat="47.69777" lon="6.00861">
        <ele>282</ele>
        <time>2010-01-01T00:20:25Z</time>
      </trkpt>
      <trkpt lat="47.69782" lon="6.00836">
        <ele>282</ele>
        <time>2010-01-01T00:20:32Z</time>
      </trkpt>
      <trkpt lat="47.69786" lon="6.00819">
        <ele>282</ele>
        <time>2010-01-01T00:20:37Z</time>
      </trkpt>
      <trkpt lat="47.69786" lon="6.00816">
        <ele>282</ele>
        <time>2010-01-01T00:20:38Z</time>
      </trkpt>
      <trkpt lat="47.69786" lon="6.00812">
        <ele>283</ele>
        <time>2010-01-01T00:20:39Z</time>
      </trkpt>
      <trkpt lat="47.69785" lon="6.00809">
        <ele>283</ele>
        <time>2010-01-01T00:20:40Z</time>
      </trkpt>
      <trkpt lat="47.69784" lon="6.00802">
        <ele>283</ele>
        <time>2010-01-01T00:20:42Z</time>
      </trkpt>
      <trkpt lat="47.69783" lon="6.00795">
        <ele>284</ele>
        <time>2010-01-01T00:20:44Z</time>
      </trkpt>
      <trkpt lat="47.69783" lon="6.0079">
        <ele>284</ele>
        <time>2010-01-01T00:20:45Z</time>
      </trkpt>
      <trkpt lat="47.69783" lon="6.00783">
        <ele>284</ele>
        <time>2010-01-01T00:20:47Z</time>
      </trkpt>
      <trkpt lat="47.69783" lon="6.00768">
        <ele>284</ele>
        <time>2010-01-01T00:20:51Z</time>
      </trkpt>
      <trkpt lat="47.6979" lon="6.00737">
        <ele>284</ele>
        <time>2010-01-01T00:21:00Z</time>
      </trkpt>
      <trkpt lat="47.69792" lon="6.00711">
        <ele>284</ele>
        <time>2010-01-01T00:21:07Z</time>
      </trkpt>
      <trkpt lat="47.69798" lon="6.00697">
        <ele>284</ele>
        <time>2010-01-01T00:21:11Z</time>
      </trkpt>
      <trkpt lat="47.69799" lon="6.00694">
        <ele>285</ele>
        <time>2010-01-01T00:21:12Z</time>
      </trkpt>
      <trkpt lat="47.698" lon="6.00692">
        <ele>285</ele>
        <time>2010-01-01T00:21:13Z</time>
      </trkpt>
      <trkpt lat="47.69801" lon="6.00689">
        <ele>285</ele>
        <time>2010-01-01T00:21:14Z</time>
      </trkpt>
      <trkpt lat="47.69802" lon="6.00686">
        <ele>286</ele>
        <time>2010-01-01T00:21:15Z</time>
      </trkpt>
      <trkpt lat="47.69805" lon="6.00672">
        <ele>286</ele>
        <time>2010-01-01T00:21:19Z</time>
      </trkpt>
      <trkpt lat="47.69807" lon="6.00663">
        <ele>286</ele>
        <time>2010-01-01T00:21:21Z</time>
      </trkpt>
      <trkpt lat="47.69808" lon="6.00661">
        <ele>287</ele>
        <time>2010-01-01T00:21:22Z</time>
      </trkpt>
      <trkpt lat="47.69808" lon="6.0066">
        <ele>287</ele>
        <time>2010-01-01T00:21:22Z</time>
      </trkpt>
      <trkpt lat="47.69809" lon="6.00658">
        <ele>288</ele>
        <time>2010-01-01T00:21:23Z</time>
      </trkpt>
      <trkpt lat="47.6981" lon="6.00656">
        <ele>288</ele>
        <time>2010-01-01T00:21:23Z</time>
      </trkpt>
      <trkpt lat="47.69814" lon="6.00641">
        <ele>288</ele>
        <time>2010-01-01T00:21:28Z</time>
      </trkpt>
      <trkpt lat="47.69815" lon="6.00639">
        <ele>288</ele>
        <time>2010-01-01T00:21:28Z</time>
      </trkpt>
      <trkpt lat="47.69816" lon="6.00638">
        <ele>289</ele>
        <time>2010-01-01T00:21:29Z</time>
      </trkpt>
      <trkpt lat="47.69816" lon="6.00636">
        <ele>289</ele>
        <time>2010-01-01T00:21:29Z</time>
      </trkpt>
      <trkpt lat="47.69818" lon="6.00635">
        <ele>290</ele>
        <time>2010-01-01T00:21:30Z</time>
      </trkpt>
      <trkpt lat="47.69819" lon="6.00633">
        <ele>290</ele>
        <time>2010-01-01T00:21:31Z</time>
      </trkpt>
      <trkpt lat="47.69821" lon="6.00628">
        <ele>290</ele>
        <time>2010-01-01T00:21:32Z</time>
      </trkpt>
      <trkpt lat="47.69828" lon="6.00614">
        <ele>291</ele>
        <time>2010-01-01T00:21:37Z</time>
      </trkpt>
      <trkpt lat="47.69829" lon="6.00612">
        <ele>291</ele>
        <time>2010-01-01T00:21:38Z</time>
      </trkpt>
      <trkpt lat="47.6983" lon="6.00609">
        <ele>291</ele>
        <time>2010-01-01T00:21:38Z</time>
      </trkpt>
      <trkpt lat="47.69831" lon="6.00607">
        <ele>292</ele>
        <time>2010-01-01T00:21:39Z</time>
      </trkpt>
      <trkpt lat="47.69832" lon="6.00606">
        <ele>292</ele>
        <time>2010-01-01T00:21:40Z</time>
      </trkpt>
      <trkpt lat="47.69835" lon="6.00599">
        <ele>292</ele>
        <time>2010-01-01T00:21:42Z</time>
      </trkpt>
      <trkpt lat="47.69836" lon="6.00589">
        <ele>293</ele>
        <time>2010-01-01T00:21:45Z</time>
      </trkpt>
      <trkpt lat="47.69837" lon="6.00586">
        <ele>293</ele>
        <time>2010-01-01T00:21:46Z</time>
      </trkpt>
      <trkpt lat="47.69838" lon="6.00582">
        <ele>293</ele>
        <time>2010-01-01T00:21:47Z</time>
      </trkpt>
      <trkpt lat="47.69838" lon="6.00579">
        <ele>294</ele>
        <time>2010-01-01T00:21:48Z</time>
      </trkpt>
      <trkpt lat="47.69839" lon="6.00575">
        <ele>294</ele>
        <time>2010-01-01T00:21:49Z</time>
      </trkpt>
      <trkpt lat="47.69845" lon="6.00558">
        <ele>294</ele>
        <time>2010-01-01T00:21:54Z</time>
      </trkpt>
      <trkpt lat="47.69852" lon="6.00541">
        <ele>294</ele>
        <time>2010-01-01T00:21:59Z</time>
      </trkpt>
      <trkpt lat="47.69858" lon="6.00526">
        <ele>294</ele>
        <time>2010-01-01T00:22:04Z</time>
      </trkpt>
      <trkpt lat="47.69867" lon="6.00514">
        <ele>295</ele>
        <time>2010-01-01T00:22:09Z</time>
      </trkpt>
      <trkpt lat="47.69868" lon="6.00511">
        <ele>295</ele>
        <time>2010-01-01T00:22:10Z</time>
      </trkpt>
      <trkpt lat="47.69869" lon="6.00509">
        <ele>296</ele>
        <time>2010-01-01T00:22:10Z</time>
      </trkpt>
      <trkpt lat="47.69871" lon="6.00506">
        <ele>296</ele>
        <time>2010-01-01T00:22:11Z</time>
      </trkpt>
      <trkpt lat="47.69876" lon="6.00496">
        <ele>296</ele>
        <time>2010-01-01T00:22:15Z</time>
      </trkpt>
      <trkpt lat="47.69883" lon="6.0048">
        <ele>297</ele>
        <time>2010-01-01T00:22:20Z</time>
      </trkpt>
      <trkpt lat="47.69884" lon="6.00477">
        <ele>297</ele>
        <time>2010-01-01T00:22:21Z</time>
      </trkpt>
      <trkpt lat="47.69885" lon="6.00474">
        <ele>298</ele>
        <time>2010-01-01T00:22:22Z</time>
      </trkpt>
      <trkpt lat="47.69886" lon="6.00471">
        <ele>298</ele>
        <time>2010-01-01T00:22:22Z</time>
      </trkpt>
      <trkpt lat="47.69887" lon="6.00469">
        <ele>298</ele>
        <time>2010-01-01T00:22:23Z</time>
      </trkpt>
      <trkpt lat="47.69891" lon="6.00459">
        <ele>298</ele>
        <time>2010-01-01T00:22:26Z</time>
      </trkpt>
      <trkpt lat="47.69896" lon="6.00447">
        <ele>299</ele>
        <time>2010-01-01T00:22:30Z</time>
      </trkpt>
      <trkpt lat="47.69897" lon="6.00445">
        <ele>299</ele>
        <time>2010-01-01T00:22:31Z</time>
      </trkpt>
      <trkpt lat="47.69898" lon="6.00443">
        <ele>300</ele>
        <time>2010-01-01T00:22:32Z</time>
      </trkpt>
      <trkpt lat="47.69898" lon="6.00441">
        <ele>300</ele>
        <time>2010-01-01T00:22:32Z</time>
      </trkpt>
      <trkpt lat="47.69899" lon="6.00439">
        <ele>300</ele>
        <time>2010-01-01T00:22:33Z</time>
      </trkpt>
      <trkpt lat="47.69905" lon="6.00425">
        <ele>300</ele>
        <time>2010-01-01T00:22:37Z</time>
      </trkpt>
      <trkpt lat="47.69911" lon="6.00409">
        <ele>300</ele>
        <time>2010-01-01T00:22:42Z</time>
      </trkpt>
      <trkpt lat="47.69916" lon="6.00398">
        <ele>301</ele>
        <time>2010-01-01T00:22:46Z</time>
      </trkpt>
      <trkpt lat="47.69918" lon="6.00396">
        <ele>302</ele>
        <time>2010-01-01T00:22:46Z</time>
      </trkpt>
      <trkpt lat="47.69918" lon="6.00394">
        <ele>302</ele>
        <time>2010-01-01T00:22:47Z</time>
      </trkpt>
      <trkpt lat="47.69919" lon="6.00392">
        <ele>302</ele>
        <time>2010-01-01T00:22:48Z</time>
      </trkpt>
      <trkpt lat="47.6993" lon="6.00373">
        <ele>302</ele>
        <time>2010-01-01T00:22:54Z</time>
      </trkpt>
      <trkpt lat="47.69933" lon="6.00367">
        <ele>303</ele>
        <time>2010-01-01T00:22:57Z</time>
      </trkpt>
      <trkpt lat="47.69934" lon="6.00364">
        <ele>303</ele>
        <time>2010-01-01T00:22:57Z</time>
      </trkpt>
      <trkpt lat="47.69935" lon="6.00362">
        <ele>304</ele>
        <time>2010-01-01T00:22:58Z</time>
      </trkpt>
      <trkpt lat="47.69935" lon="6.0036">
        <ele>304</ele>
        <time>2010-01-01T00:22:59Z</time>
      </trkpt>
      <trkpt lat="47.69936" lon="6.00357">
        <ele>304</ele>
        <time>2010-01-01T00:22:59Z</time>
      </trkpt>
      <trkpt lat="47.69937" lon="6.00354">
        <ele>304</ele>
        <time>2010-01-01T00:23:00Z</time>
      </trkpt>
      <trkpt lat="47.69944" lon="6.00339">
        <ele>304</ele>
        <time>2010-01-01T00:23:05Z</time>
      </trkpt>
      <trkpt lat="47.69952" lon="6.00325">
        <ele>305</ele>
        <time>2010-01-01T00:23:10Z</time>
      </trkpt>
      <trkpt lat="47.69953" lon="6.00323">
        <ele>305</ele>
        <time>2010-01-01T00:23:11Z</time>
      </trkpt>
      <trkpt lat="47.69955" lon="6.00321">
        <ele>306</ele>
        <time>2010-01-01T00:23:12Z</time>
      </trkpt>
      <trkpt lat="47.69956" lon="6.00319">
        <ele>306</ele>
        <time>2010-01-01T00:23:12Z</time>
      </trkpt>
      <trkpt lat="47.69957" lon="6.00316">
        <ele>307</ele>
        <time>2010-01-01T00:23:13Z</time>
      </trkpt>
      <trkpt lat="47.69962" lon="6.00308">
        <ele>307</ele>
        <time>2010-01-01T00:23:16Z</time>
      </trkpt>
      <trkpt lat="47.69972" lon="6.0029">
        <ele>307</ele>
        <time>2010-01-01T00:23:23Z</time>
      </trkpt>
      <trkpt lat="47.69985" lon="6.00269">
        <ele>307</ele>
        <time>2010-01-01T00:23:30Z</time>
      </trkpt>
      <trkpt lat="47.69999" lon="6.00251">
        <ele>307</ele>
        <time>2010-01-01T00:23:38Z</time>
      </trkpt>
      <trkpt lat="47.70004" lon="6.00244">
        <ele>307</ele>
        <time>2010-01-01T00:23:40Z</time>
      </trkpt>
      <trkpt lat="47.70005" lon="6.00242">
        <ele>307</ele>
        <time>2010-01-01T00:23:41Z</time>
      </trkpt>
      <trkpt lat="47.70007" lon="6.0024">
        <ele>308</ele>
        <time>2010-01-01T00:23:42Z</time>
      </trkpt>
      <trkpt lat="47.70009" lon="6.00237">
        <ele>308</ele>
        <time>2010-01-01T00:23:43Z</time>
      </trkpt>
      <trkpt lat="47.7001" lon="6.00234">
        <ele>309</ele>
        <time>2010-01-01T00:23:44Z</time>
      </trkpt>
      <trkpt lat="47.70012" lon="6.00232">
        <ele>309</ele>
        <time>2010-01-01T00:23:45Z</time>
      </trkpt>
      <trkpt lat="47.70026" lon="6.00216">
        <ele>309</ele>
        <time>2010-01-01T00:23:52Z</time>
      </trkpt>
      <trkpt lat="47.70027" lon="6.00215">
        <ele>309</ele>
        <time>2010-01-01T00:23:53Z</time>
      </trkpt>
      <trkpt lat="47.70027" lon="6.00214">
        <ele>309</ele>
        <time>2010-01-01T00:23:53Z</time>
      </trkpt>
      <trkpt lat="47.70024" lon="6.0021">
        <ele>309</ele>
        <time>2010-01-01T00:23:54Z</time>
      </trkpt>
      <trkpt lat="47.7002" lon="6.00205">
        <ele>309</ele>
        <time>2010-01-01T00:23:57Z</time>
      </trkpt>
      <trkpt lat="47.70019" lon="6.00201">
        <ele>309</ele>
        <time>2010-01-01T00:23:58Z</time>
      </trkpt>
      <trkpt lat="47.70017" lon="6.00196">
        <ele>309</ele>
        <time>2010-01-01T00:23:59Z</time>
      </trkpt>
      <trkpt lat="47.7001" lon="6.00194">
        <ele>309</ele>
        <time>2010-01-01T00:24:02Z</time>
      </trkpt>
      <trkpt lat="47.70008" lon="6.00192">
        <ele>309</ele>
        <time>2010-01-01T00:24:03Z</time>
      </trkpt>
      <trkpt lat="47.70002" lon="6.00181">
        <ele>309</ele>
        <time>2010-01-01T00:24:07Z</time>
      </trkpt>
      <trkpt lat="47.70001" lon="6.0018">
        <ele>309</ele>
        <time>2010-01-01T00:24:08Z</time>
      </trkpt>
      <trkpt lat="47.69999" lon="6.00178">
        <ele>309</ele>
        <time>2010-01-01T00:24:08Z</time>
      </trkpt>
      <trkpt lat="47.69997" lon="6.00175">
        <ele>310</ele>
        <time>2010-01-01T00:24:09Z</time>
      </trkpt>
      <trkpt lat="47.69996" lon="6.00173">
        <ele>311</ele>
        <time>2010-01-01T00:24:10Z</time>
      </trkpt>
      <trkpt lat="47.69994" lon="6.00169">
        <ele>311</ele>
        <time>2010-01-01T00:24:12Z</time>
      </trkpt>
      <trkpt lat="47.69985" lon="6.00155">
        <ele>311</ele>
        <time>2010-01-01T00:24:17Z</time>
      </trkpt>
      <trkpt lat="47.69976" lon="6.00141">
        <ele>311</ele>
        <time>2010-01-01T00:24:22Z</time>
      </trkpt>
      <trkpt lat="47.69974" lon="6.00139">
        <ele>312</ele>
        <time>2010-01-01T00:24:23Z</time>
      </trkpt>
      <trkpt lat="47.69973" lon="6.00137">
        <ele>313</ele>
        <time>2010-01-01T00:24:23Z</time>
      </trkpt>
      <trkpt lat="47.69972" lon="6.00135">
        <ele>314</ele>
        <time>2010-01-01T00:24:24Z</time>
      </trkpt>
      <trkpt lat="47.69971" lon="6.00133">
        <ele>314</ele>
        <time>2010-01-01T00:24:25Z</time>
      </trkpt>
      <trkpt lat="47.69969" lon="6.00131">
        <ele>313</ele>
        <time>2010-01-01T00:24:26Z</time>
      </trkpt>
      <trkpt lat="47.69967" lon="6.00129">
        <ele>313</ele>
        <time>2010-01-01T00:24:27Z</time>
      </trkpt>
      <trkpt lat="47.69964" lon="6.00127">
        <ele>312</ele>
        <time>2010-01-01T00:24:28Z</time>
      </trkpt>
      <trkpt lat="47.69963" lon="6.00125">
        <ele>313</ele>
        <time>2010-01-01T00:24:29Z</time>
      </trkpt>
      <trkpt lat="47.6996" lon="6.00122">
        <ele>313</ele>
        <time>2010-01-01T00:24:30Z</time>
      </trkpt>
      <trkpt lat="47.69958" lon="6.0012">
        <ele>314</ele>
        <time>2010-01-01T00:24:31Z</time>
      </trkpt>
      <trkpt lat="47.69957" lon="6.00118">
        <ele>315</ele>
        <time>2010-01-01T00:24:32Z</time>
      </trkpt>
      <trkpt lat="47.69953" lon="6.00111">
        <ele>315</ele>
        <time>2010-01-01T00:24:34Z</time>
      </trkpt>
      <trkpt lat="47.69945" lon="6.00099">
        <ele>315</ele>
        <time>2010-01-01T00:24:39Z</time>
      </trkpt>
      <trkpt lat="47.69934" lon="6.00086">
        <ele>315</ele>
        <time>2010-01-01T00:24:45Z</time>
      </trkpt>
      <trkpt lat="47.69924" lon="6.00076">
        <ele>315</ele>
        <time>2010-01-01T00:24:49Z</time>
      </trkpt>
      <trkpt lat="47.69915" lon="6.00065">
        <ele>315</ele>
        <time>2010-01-01T00:24:54Z</time>
      </trkpt>
      <trkpt lat="47.69904" lon="6.00048">
        <ele>315</ele>
        <time>2010-01-01T00:25:00Z</time>
      </trkpt>
      <trkpt lat="47.69886" lon="6.00029">
        <ele>315</ele>
        <time>2010-01-01T00:25:09Z</time>
      </trkpt>
      <trkpt lat="47.69876" lon="6.00016">
        <ele>315</ele>
        <time>2010-01-01T00:25:15Z</time>
      </trkpt>
      <trkpt lat="47.69855" lon="5.99996">
        <ele>315</ele>
        <time>2010-01-01T00:25:25Z</time>
      </trkpt>
      <trkpt lat="47.69841" lon="5.99985">
        <ele>315</ele>
        <time>2010-01-01T00:25:31Z</time>
      </trkpt>
      <trkpt lat="47.69831" lon="5.99967">
        <ele>315</ele>
        <time>2010-01-01T00:25:37Z</time>
      </trkpt>
      <trkpt lat="47.69822" lon="5.99953">
        <ele>315</ele>
        <time>2010-01-01T00:25:42Z</time>
      </trkpt>
      <trkpt lat="47.69807" lon="5.99937">
        <ele>315</ele>
        <time>2010-01-01T00:25:50Z</time>
      </trkpt>
      <trkpt lat="47.69792" lon="5.99917">
        <ele>315</ele>
        <time>2010-01-01T00:25:58Z</time>
      </trkpt>
      <trkpt lat="47.69783" lon="5.99898">
        <ele>315</ele>
        <time>2010-01-01T00:26:04Z</time>
      </trkpt>
      <trkpt lat="47.69783" lon="5.99896">
        <ele>315</ele>
        <time>2010-01-01T00:26:05Z</time>
      </trkpt>
      <trkpt lat="47.69784" lon="5.99892">
        <ele>315</ele>
        <time>2010-01-01T00:26:06Z</time>
      </trkpt>
      <trkpt lat="47.69786" lon="5.99888">
        <ele>315</ele>
        <time>2010-01-01T00:26:07Z</time>
      </trkpt>
      <trkpt lat="47.69788" lon="5.99885">
        <ele>315</ele>
        <time>2010-01-01T00:26:08Z</time>
      </trkpt>
      <trkpt lat="47.69796" lon="5.9988">
        <ele>315</ele>
        <time>2010-01-01T00:26:11Z</time>
      </trkpt>
      <trkpt lat="47.69803" lon="5.99873">
        <ele>315</ele>
        <time>2010-01-01T00:26:15Z</time>
      </trkpt>
      <trkpt lat="47.69807" lon="5.99867">
        <ele>315</ele>
        <time>2010-01-01T00:26:17Z</time>
      </trkpt>
      <trkpt lat="47.69807" lon="5.99866">
        <ele>315</ele>
        <time>2010-01-01T00:26:17Z</time>
      </trkpt>
      <trkpt lat="47.69808" lon="5.99865">
        <ele>316</ele>
        <time>2010-01-01T00:26:18Z</time>
      </trkpt>
      <trkpt lat="47.69809" lon="5.99864">
        <ele>316</ele>
        <time>2010-01-01T00:26:18Z</time>
      </trkpt>
      <trkpt lat="47.6981" lon="5.99863">
        <ele>317</ele>
        <time>2010-01-01T00:26:19Z</time>
      </trkpt>
      <trkpt lat="47.69812" lon="5.99859">
        <ele>317</ele>
        <time>2010-01-01T00:26:20Z</time>
      </trkpt>
      <trkpt lat="47.69813" lon="5.99859">
        <ele>317</ele>
        <time>2010-01-01T00:26:21Z</time>
      </trkpt>
      <trkpt lat="47.69817" lon="5.99852">
        <ele>317</ele>
        <time>2010-01-01T00:26:23Z</time>
      </trkpt>
      <trkpt lat="47.6983" lon="5.99838">
        <ele>317</ele>
        <time>2010-01-01T00:26:29Z</time>
      </trkpt>
      <trkpt lat="47.69844" lon="5.99821">
        <ele>317</ele>
        <time>2010-01-01T00:26:37Z</time>
      </trkpt>
      <trkpt lat="47.69847" lon="5.99817">
        <ele>317</ele>
        <time>2010-01-01T00:26:38Z</time>
      </trkpt>
      <trkpt lat="47.69851" lon="5.99816">
        <ele>317</ele>
        <time>2010-01-01T00:26:40Z</time>
      </trkpt>
      <trkpt lat="47.69865" lon="5.99808">
        <ele>317</ele>
        <time>2010-01-01T00:26:46Z</time>
      </trkpt>
      <trkpt lat="47.69878" lon="5.9979">
        <ele>317</ele>
        <time>2010-01-01T00:26:53Z</time>
      </trkpt>
      <trkpt lat="47.69896" lon="5.99766">
        <ele>317</ele>
        <time>2010-01-01T00:27:02Z</time>
      </trkpt>
      <trkpt lat="47.69925" lon="5.99736">
        <ele>316</ele>
        <time>2010-01-01T00:27:17Z</time>
      </trkpt>
      <trkpt lat="47.69929" lon="5.99732">
        <ele>316</ele>
        <time>2010-01-01T00:27:19Z</time>
      </trkpt>
      <trkpt lat="47.69933" lon="5.99727">
        <ele>315</ele>
        <time>2010-01-01T00:27:21Z</time>
      </trkpt>
      <trkpt lat="47.69936" lon="5.99723">
        <ele>315</ele>
        <time>2010-01-01T00:27:23Z</time>
      </trkpt>
      <trkpt lat="47.69939" lon="5.99719">
        <ele>314</ele>
        <time>2010-01-01T00:27:24Z</time>
      </trkpt>
      <trkpt lat="47.69944" lon="5.99714">
        <ele>314</ele>
        <time>2010-01-01T00:27:26Z</time>
      </trkpt>
      <trkpt lat="47.69955" lon="5.99695">
        <ele>314</ele>
        <time>2010-01-01T00:27:33Z</time>
      </trkpt>
      <trkpt lat="47.69972" lon="5.99676">
        <ele>314</ele>
        <time>2010-01-01T00:27:42Z</time>
      </trkpt>
      <trkpt lat="47.69993" lon="5.99649">
        <ele>314</ele>
        <time>2010-01-01T00:27:53Z</time>
      </trkpt>
      <trkpt lat="47.70004" lon="5.99627">
        <ele>314</ele>
        <time>2010-01-01T00:28:00Z</time>
      </trkpt>
      <trkpt lat="47.70005" lon="5.99622">
        <ele>314</ele>
        <time>2010-01-01T00:28:02Z</time>
      </trkpt>
      <trkpt lat="47.70002" lon="5.99612">
        <ele>314</ele>
        <time>2010-01-01T00:28:05Z</time>
      </trkpt>
      <trkpt lat="47.70003" lon="5.99603">
        <ele>314</ele>
        <time>2010-01-01T00:28:07Z</time>
      </trkpt>
      <trkpt lat="47.70001" lon="5.99594">
        <ele>314</ele>
        <time>2010-01-01T00:28:10Z</time>
      </trkpt>
      <trkpt lat="47.69999" lon="5.9959">
        <ele>314</ele>
        <time>2010-01-01T00:28:11Z</time>
      </trkpt>
      <trkpt lat="47.69996" lon="5.99575">
        <ele>314</ele>
        <time>2010-01-01T00:28:15Z</time>
      </trkpt>
      <trkpt lat="47.6999" lon="5.99558">
        <ele>314</ele>
        <time>2010-01-01T00:28:21Z</time>
      </trkpt>
      <trkpt lat="47.69983" lon="5.9954">
        <ele>314</ele>
        <time>2010-01-01T00:28:26Z</time>
      </trkpt>
      <trkpt lat="47.69979" lon="5.9953">
        <ele>315</ele>
        <time>2010-01-01T00:28:29Z</time>
      </trkpt>
      <trkpt lat="47.69978" lon="5.99527">
        <ele>316</ele>
        <time>2010-01-01T00:28:30Z</time>
      </trkpt>
      <trkpt lat="47.69977" lon="5.99524">
        <ele>316</ele>
        <time>2010-01-01T00:28:31Z</time>
      </trkpt>
      <trkpt lat="47.69976" lon="5.99521">
        <ele>316</ele>
        <time>2010-01-01T00:28:32Z</time>
      </trkpt>
      <trkpt lat="47.69969" lon="5.99502">
        <ele>316</ele>
        <time>2010-01-01T00:28:38Z</time>
      </trkpt>
      <trkpt lat="47.69963" lon="5.99483">
        <ele>316</ele>
        <time>2010-01-01T00:28:43Z</time>
      </trkpt>
      <trkpt lat="47.69957" lon="5.99463">
        <ele>316</ele>
        <time>2010-01-01T00:28:50Z</time>
      </trkpt>
      <trkpt lat="47.69952" lon="5.99447">
        <ele>316</ele>
        <time>2010-01-01T00:28:54Z</time>
      </trkpt>
      <trkpt lat="47.6995" lon="5.99445">
        <ele>316</ele>
        <time>2010-01-01T00:28:55Z</time>
      </trkpt>
      <trkpt lat="47.69949" lon="5.99442">
        <ele>315</ele>
        <time>2010-01-01T00:28:56Z</time>
      </trkpt>
      <trkpt lat="47.69948" lon="5.99439">
        <ele>315</ele>
        <time>2010-01-01T00:28:57Z</time>
      </trkpt>
      <trkpt lat="47.69947" lon="5.99436">
        <ele>314</ele>
        <time>2010-01-01T00:28:58Z</time>
      </trkpt>
      <trkpt lat="47.69945" lon="5.99422">
        <ele>314</ele>
        <time>2010-01-01T00:29:02Z</time>
      </trkpt>
      <trkpt lat="47.69943" lon="5.99419">
        <ele>314</ele>
        <time>2010-01-01T00:29:03Z</time>
      </trkpt>
      <trkpt lat="47.69939" lon="5.99406">
        <ele>314</ele>
        <time>2010-01-01T00:29:07Z</time>
      </trkpt>
      <trkpt lat="47.69938" lon="5.99402">
        <ele>314</ele>
        <time>2010-01-01T00:29:08Z</time>
      </trkpt>
      <trkpt lat="47.69937" lon="5.99398">
        <ele>314</ele>
        <time>2010-01-01T00:29:09Z</time>
      </trkpt>
      <trkpt lat="47.69935" lon="5.99393">
        <ele>313</ele>
        <time>2010-01-01T00:29:10Z</time>
      </trkpt>
      <trkpt lat="47.69934" lon="5.99389">
        <ele>313</ele>
        <time>2010-01-01T00:29:11Z</time>
      </trkpt>
      <trkpt lat="47.69933" lon="5.99385">
        <ele>312</ele>
        <time>2010-01-01T00:29:13Z</time>
      </trkpt>
      <trkpt lat="47.69931" lon="5.99381">
        <ele>312</ele>
        <time>2010-01-01T00:29:14Z</time>
      </trkpt>
      <trkpt lat="47.69924" lon="5.9936">
        <ele>312</ele>
        <time>2010-01-01T00:29:20Z</time>
      </trkpt>
      <trkpt lat="47.69922" lon="5.99355">
        <ele>311</ele>
        <time>2010-01-01T00:29:22Z</time>
      </trkpt>
      <trkpt lat="47.6992" lon="5.9935">
        <ele>311</ele>
        <time>2010-01-01T00:29:23Z</time>
      </trkpt>
      <trkpt lat="47.69918" lon="5.99345">
        <ele>310</ele>
        <time>2010-01-01T00:29:25Z</time>
      </trkpt>
      <trkpt lat="47.69915" lon="5.99339">
        <ele>310</ele>
        <time>2010-01-01T00:29:27Z</time>
      </trkpt>
      <trkpt lat="47.69913" lon="5.99333">
        <ele>310</ele>
        <time>2010-01-01T00:29:29Z</time>
      </trkpt>
      <trkpt lat="47.69911" lon="5.99326">
        <ele>309</ele>
        <time>2010-01-01T00:29:31Z</time>
      </trkpt>
      <trkpt lat="47.69909" lon="5.99319">
        <ele>309</ele>
        <time>2010-01-01T00:29:33Z</time>
      </trkpt>
      <trkpt lat="47.69908" lon="5.99313">
        <ele>308</ele>
        <time>2010-01-01T00:29:34Z</time>
      </trkpt>
      <trkpt lat="47.69907" lon="5.99308">
        <ele>308</ele>
        <time>2010-01-01T00:29:36Z</time>
      </trkpt>
      <trkpt lat="47.69904" lon="5.99293">
        <ele>308</ele>
        <time>2010-01-01T00:29:40Z</time>
      </trkpt>
      <trkpt lat="47.699" lon="5.99279">
        <ele>308</ele>
        <time>2010-01-01T00:29:44Z</time>
      </trkpt>
      <trkpt lat="47.69896" lon="5.99261">
        <ele>308</ele>
        <time>2010-01-01T00:29:49Z</time>
      </trkpt>
      <trkpt lat="47.69895" lon="5.9926">
        <ele>308</ele>
        <time>2010-01-01T00:29:50Z</time>
      </trkpt>
      <trkpt lat="47.69895" lon="5.99259">
        <ele>308</ele>
        <time>2010-01-01T00:29:50Z</time>
      </trkpt>
      <trkpt lat="47.69895" lon="5.99257">
        <ele>308</ele>
        <time>2010-01-01T00:29:50Z</time>
      </trkpt>
      <trkpt lat="47.69895" lon="5.99255">
        <ele>308</ele>
        <time>2010-01-01T00:29:51Z</time>
      </trkpt>
      <trkpt lat="47.69892" lon="5.9925">
        <ele>308</ele>
        <time>2010-01-01T00:29:53Z</time>
      </trkpt>
      <trkpt lat="47.69892" lon="5.9925">
        <ele>308</ele>
        <time>2010-01-01T00:29:53Z</time>
      </trkpt>
      <trkpt lat="47.69892" lon="5.99249">
        <ele>308</ele>
        <time>2010-01-01T00:29:53Z</time>
      </trkpt>
      <trkpt lat="47.69894" lon="5.99247">
        <ele>308</ele>
        <time>2010-01-01T00:29:54Z</time>
      </trkpt>
      <trkpt lat="47.69896" lon="5.99244">
        <ele>308</ele>
        <time>2010-01-01T00:29:55Z</time>
      </trkpt>
      <trkpt lat="47.69903" lon="5.99236">
        <ele>308</ele>
        <time>2010-01-01T00:29:59Z</time>
      </trkpt>
      <trkpt lat="47.69919" lon="5.99222">
        <ele>308</ele>
        <time>2010-01-01T00:30:06Z</time>
      </trkpt>
      <trkpt lat="47.6993" lon="5.99216">
        <ele>308</ele>
        <time>2010-01-01T00:30:11Z</time>
      </trkpt>
      <trkpt lat="47.6994" lon="5.99208">
        <ele>308</ele>
        <time>2010-01-01T00:30:16Z</time>
      </trkpt>
      <trkpt lat="47.69942" lon="5.99207">
        <ele>309</ele>
        <time>2010-01-01T00:30:16Z</time>
      </trkpt>
      <trkpt lat="47.69943" lon="5.99206">
        <ele>309</ele>
        <time>2010-01-01T00:30:17Z</time>
      </trkpt>
      <trkpt lat="47.69944" lon="5.99206">
        <ele>310</ele>
        <time>2010-01-01T00:30:17Z</time>
      </trkpt>
      <trkpt lat="47.69945" lon="5.99204">
        <ele>310</ele>
        <time>2010-01-01T00:30:18Z</time>
      </trkpt>
      <trkpt lat="47.6995" lon="5.99199">
        <ele>310</ele>
        <time>2010-01-01T00:30:20Z</time>
      </trkpt>
      <trkpt lat="47.69964" lon="5.9919">
        <ele>310</ele>
        <time>2010-01-01T00:30:26Z</time>
      </trkpt>
      <trkpt lat="47.69978" lon="5.99182">
        <ele>310</ele>
        <time>2010-01-01T00:30:32Z</time>
      </trkpt>
      <trkpt lat="47.6998" lon="5.9918">
        <ele>311</ele>
        <time>2010-01-01T00:30:33Z</time>
      </trkpt>
      <trkpt lat="47.69981" lon="5.99179">
        <ele>311</ele>
        <time>2010-01-01T00:30:34Z</time>
      </trkpt>
      <trkpt lat="47.69982" lon="5.99178">
        <ele>312</ele>
        <time>2010-01-01T00:30:34Z</time>
      </trkpt>
      <trkpt lat="47.69984" lon="5.99177">
        <ele>312</ele>
        <time>2010-01-01T00:30:35Z</time>
      </trkpt>
      <trkpt lat="47.6999" lon="5.99174">
        <ele>312</ele>
        <time>2010-01-01T00:30:37Z</time>
      </trkpt>
      <trkpt lat="47.70002" lon="5.99167">
        <ele>312</ele>
        <time>2010-01-01T00:30:43Z</time>
      </trkpt>
      <trkpt lat="47.70014" lon="5.99157">
        <ele>312</ele>
        <time>2010-01-01T00:30:48Z</time>
      </trkpt>
      <trkpt lat="47.70021" lon="5.99152">
        <ele>312</ele>
        <time>2010-01-01T00:30:51Z</time>
      </trkpt>
      <trkpt lat="47.70022" lon="5.99151">
        <ele>313</ele>
        <time>2010-01-01T00:30:52Z</time>
      </trkpt>
      <trkpt lat="47.70024" lon="5.9915">
        <ele>313</ele>
        <time>2010-01-01T00:30:53Z</time>
      </trkpt>
      <trkpt lat="47.70025" lon="5.99149">
        <ele>314</ele>
        <time>2010-01-01T00:30:53Z</time>
      </trkpt>
      <trkpt lat="47.70027" lon="5.99148">
        <ele>314</ele>
        <time>2010-01-01T00:30:54Z</time>
      </trkpt>
      <trkpt lat="47.70038" lon="5.99137">
        <ele>314</ele>
        <time>2010-01-01T00:30:59Z</time>
      </trkpt>
      <trkpt lat="47.70042" lon="5.99125">
        <ele>314</ele>
        <time>2010-01-01T00:31:03Z</time>
      </trkpt>
      <trkpt lat="47.70039" lon="5.99115">
        <ele>315</ele>
        <time>2010-01-01T00:31:06Z</time>
      </trkpt>
      <trkpt lat="47.70038" lon="5.99111">
        <ele>315</ele>
        <time>2010-01-01T00:31:07Z</time>
      </trkpt>
      <trkpt lat="47.70038" lon="5.99109">
        <ele>315</ele>
        <time>2010-01-01T00:31:08Z</time>
      </trkpt>
      <trkpt lat="47.70037" lon="5.99106">
        <ele>316</ele>
        <time>2010-01-01T00:31:08Z</time>
      </trkpt>
      <trkpt lat="47.70037" lon="5.99103">
        <ele>316</ele>
        <time>2010-01-01T00:31:09Z</time>
      </trkpt>
      <trkpt lat="47.70034" lon="5.99089">
        <ele>316</ele>
        <time>2010-01-01T00:31:13Z</time>
      </trkpt>
      <trkpt lat="47.70029" lon="5.9907">
        <ele>316</ele>
        <time>2010-01-01T00:31:19Z</time>
      </trkpt>
      <trkpt lat="47.70024" lon="5.99055">
        <ele>316</ele>
        <time>2010-01-01T00:31:23Z</time>
      </trkpt>
      <trkpt lat="47.70018" lon="5.99031">
        <ele>316</ele>
        <time>2010-01-01T00:31:30Z</time>
      </trkpt>
      <trkpt lat="47.70009" lon="5.99006">
        <ele>316</ele>
        <time>2010-01-01T00:31:38Z</time>
      </trkpt>
      <trkpt lat="47.70004" lon="5.98991">
        <ele>317</ele>
        <time>2010-01-01T00:31:42Z</time>
      </trkpt>
      <trkpt lat="47.70003" lon="5.98988">
        <ele>317</ele>
        <time>2010-01-01T00:31:43Z</time>
      </trkpt>
      <trkpt lat="47.70003" lon="5.98986">
        <ele>318</ele>
        <time>2010-01-01T00:31:44Z</time>
      </trkpt>
      <trkpt lat="47.70003" lon="5.98985">
        <ele>318</ele>
        <time>2010-01-01T00:31:44Z</time>
      </trkpt>
      <trkpt lat="47.70001" lon="5.98983">
        <ele>318</ele>
        <time>2010-01-01T00:31:45Z</time>
      </trkpt>
      <trkpt lat="47.69999" lon="5.98972">
        <ele>318</ele>
        <time>2010-01-01T00:31:48Z</time>
      </trkpt>
      <trkpt lat="47.69998" lon="5.98969">
        <ele>318</ele>
        <time>2010-01-01T00:31:49Z</time>
      </trkpt>
      <trkpt lat="47.6999" lon="5.98946">
        <ele>318</ele>
        <time>2010-01-01T00:31:56Z</time>
      </trkpt>
      <trkpt lat="47.69981" lon="5.98918">
        <ele>318</ele>
        <time>2010-01-01T00:32:04Z</time>
      </trkpt>
      <trkpt lat="47.69973" lon="5.98891">
        <ele>318</ele>
        <time>2010-01-01T00:32:12Z</time>
      </trkpt>
      <trkpt lat="47.69972" lon="5.98871">
        <ele>318</ele>
        <time>2010-01-01T00:32:17Z</time>
      </trkpt>
      <trkpt lat="47.69979" lon="5.98864">
        <ele>318</ele>
        <time>2010-01-01T00:32:21Z</time>
      </trkpt>
      <trkpt lat="47.69981" lon="5.98864">
        <ele>318</ele>
        <time>2010-01-01T00:32:22Z</time>
      </trkpt>
      <trkpt lat="47.69994" lon="5.98856">
        <ele>318</ele>
        <time>2010-01-01T00:32:27Z</time>
      </trkpt>
      <trkpt lat="47.70006" lon="5.9885">
        <ele>319</ele>
        <time>2010-01-01T00:32:32Z</time>
      </trkpt>
      <trkpt lat="47.70007" lon="5.98849">
        <ele>319</ele>
        <time>2010-01-01T00:32:33Z</time>
      </trkpt>
      <trkpt lat="47.70008" lon="5.98848">
        <ele>320</ele>
        <time>2010-01-01T00:32:34Z</time>
      </trkpt>
      <trkpt lat="47.7001" lon="5.98848">
        <ele>320</ele>
        <time>2010-01-01T00:32:34Z</time>
      </trkpt>
      <trkpt lat="47.70012" lon="5.98848">
        <ele>320</ele>
        <time>2010-01-01T00:32:35Z</time>
      </trkpt>
      <trkpt lat="47.70018" lon="5.98849">
        <ele>320</ele>
        <time>2010-01-01T00:32:37Z</time>
      </trkpt>
      <trkpt lat="47.70033" lon="5.98843">
        <ele>320</ele>
        <time>2010-01-01T00:32:44Z</time>
      </trkpt>
      <trkpt lat="47.70047" lon="5.98839">
        <ele>321</ele>
        <time>2010-01-01T00:32:49Z</time>
      </trkpt>
      <trkpt lat="47.70049" lon="5.98838">
        <ele>321</ele>
        <time>2010-01-01T00:32:50Z</time>
      </trkpt>
      <trkpt lat="47.70051" lon="5.98837">
        <ele>322</ele>
        <time>2010-01-01T00:32:51Z</time>
      </trkpt>
      <trkpt lat="47.70052" lon="5.98836">
        <ele>322</ele>
        <time>2010-01-01T00:32:52Z</time>
      </trkpt>
      <trkpt lat="47.70054" lon="5.98835">
        <ele>322</ele>
        <time>2010-01-01T00:32:52Z</time>
      </trkpt>
      <trkpt lat="47.70059" lon="5.98833">
        <ele>322</ele>
        <time>2010-01-01T00:32:54Z</time>
      </trkpt>
      <trkpt lat="47.70072" lon="5.98828">
        <ele>322</ele>
        <time>2010-01-01T00:33:00Z</time>
      </trkpt>
      <trkpt lat="47.70081" lon="5.98826">
        <ele>323</ele>
        <time>2010-01-01T00:33:03Z</time>
      </trkpt>
      <trkpt lat="47.70082" lon="5.98825">
        <ele>323</ele>
        <time>2010-01-01T00:33:04Z</time>
      </trkpt>
      <trkpt lat="47.70083" lon="5.98825">
        <ele>324</ele>
        <time>2010-01-01T00:33:04Z</time>
      </trkpt>
      <trkpt lat="47.70084" lon="5.98824">
        <ele>324</ele>
        <time>2010-01-01T00:33:05Z</time>
      </trkpt>
      <trkpt lat="47.70086" lon="5.98823">
        <ele>325</ele>
        <time>2010-01-01T00:33:06Z</time>
      </trkpt>
      <trkpt lat="47.70098" lon="5.9882">
        <ele>325</ele>
        <time>2010-01-01T00:33:10Z</time>
      </trkpt>
      <trkpt lat="47.70115" lon="5.98823">
        <ele>325</ele>
        <time>2010-01-01T00:33:17Z</time>
      </trkpt>
      <trkpt lat="47.70123" lon="5.98823">
        <ele>325</ele>
        <time>2010-01-01T00:33:21Z</time>
      </trkpt>
      <trkpt lat="47.70125" lon="5.98823">
        <ele>325</ele>
        <time>2010-01-01T00:33:21Z</time>
      </trkpt>
      <trkpt lat="47.70126" lon="5.98823">
        <ele>326</ele>
        <time>2010-01-01T00:33:22Z</time>
      </trkpt>
      <trkpt lat="47.70128" lon="5.98823">
        <ele>326</ele>
        <time>2010-01-01T00:33:22Z</time>
      </trkpt>
      <trkpt lat="47.70129" lon="5.98822">
        <ele>327</ele>
        <time>2010-01-01T00:33:23Z</time>
      </trkpt>
      <trkpt lat="47.70139" lon="5.9882">
        <ele>327</ele>
        <time>2010-01-01T00:33:27Z</time>
      </trkpt>
      <trkpt lat="47.70147" lon="5.98818">
        <ele>327</ele>
        <time>2010-01-01T00:33:30Z</time>
      </trkpt>
      <trkpt lat="47.70147" lon="5.98818">
        <ele>327</ele>
        <time>2010-01-01T00:33:30Z</time>
      </trkpt>
      <trkpt lat="47.70148" lon="5.98818">
        <ele>326</ele>
        <time>2010-01-01T00:33:30Z</time>
      </trkpt>
      <trkpt lat="47.7015" lon="5.98819">
        <ele>325</ele>
        <time>2010-01-01T00:33:31Z</time>
      </trkpt>
      <trkpt lat="47.70151" lon="5.98819">
        <ele>324</ele>
        <time>2010-01-01T00:33:32Z</time>
      </trkpt>
      <trkpt lat="47.70152" lon="5.98819">
        <ele>323</ele>
        <time>2010-01-01T00:33:32Z</time>
      </trkpt>
      <trkpt lat="47.70154" lon="5.98819">
        <ele>323</ele>
        <time>2010-01-01T00:33:33Z</time>
      </trkpt>
      <trkpt lat="47.70155" lon="5.98819">
        <ele>322</ele>
        <time>2010-01-01T00:33:34Z</time>
      </trkpt>
      <trkpt lat="47.70159" lon="5.98819">
        <ele>322</ele>
        <time>2010-01-01T00:33:35Z</time>
      </trkpt>
      <trkpt lat="47.70175" lon="5.98819">
        <ele>322</ele>
        <time>2010-01-01T00:33:42Z</time>
      </trkpt>
      <trkpt lat="47.70177" lon="5.98819">
        <ele>322</ele>
        <time>2010-01-01T00:33:42Z</time>
      </trkpt>
      <trkpt lat="47.70179" lon="5.98819">
        <ele>323</ele>
        <time>2010-01-01T00:33:43Z</time>
      </trkpt>
      <trkpt lat="47.7018" lon="5.98819">
        <ele>323</ele>
        <time>2010-01-01T00:33:43Z</time>
      </trkpt>
      <trkpt lat="47.70181" lon="5.98819">
        <ele>324</ele>
        <time>2010-01-01T00:33:44Z</time>
      </trkpt>
      <trkpt lat="47.70183" lon="5.98819">
        <ele>324</ele>
        <time>2010-01-01T00:33:44Z</time>
      </trkpt>
      <trkpt lat="47.70184" lon="5.98818">
        <ele>325</ele>
        <time>2010-01-01T00:33:45Z</time>
      </trkpt>
      <trkpt lat="47.70185" lon="5.98818">
        <ele>325</ele>
        <time>2010-01-01T00:33:46Z</time>
      </trkpt>
      <trkpt lat="47.70186" lon="5.98818">
        <ele>325</ele>
        <time>2010-01-01T00:33:46Z</time>
      </trkpt>
      <trkpt lat="47.70187" lon="5.98817">
        <ele>326</ele>
        <time>2010-01-01T00:33:46Z</time>
      </trkpt>
      <trkpt lat="47.70189" lon="5.98817">
        <ele>326</ele>
        <time>2010-01-01T00:33:47Z</time>
      </trkpt>
      <trkpt lat="47.70194" lon="5.98815">
        <ele>326</ele>
        <time>2010-01-01T00:33:49Z</time>
      </trkpt>
      <trkpt lat="47.70204" lon="5.98815">
        <ele>326</ele>
        <time>2010-01-01T00:33:53Z</time>
      </trkpt>
      <trkpt lat="47.70206" lon="5.98814">
        <ele>326</ele>
        <time>2010-01-01T00:33:54Z</time>
      </trkpt>
      <trkpt lat="47.70207" lon="5.98814">
        <ele>327</ele>
        <time>2010-01-01T00:33:55Z</time>
      </trkpt>
      <trkpt lat="47.70209" lon="5.98814">
        <ele>327</ele>
        <time>2010-01-01T00:33:55Z</time>
      </trkpt>
      <trkpt lat="47.70211" lon="5.98813">
        <ele>328</ele>
        <time>2010-01-01T00:33:56Z</time>
      </trkpt>
      <trkpt lat="47.70214" lon="5.98813">
        <ele>328</ele>
        <time>2010-01-01T00:33:57Z</time>
      </trkpt>
      <trkpt lat="47.70218" lon="5.98814">
        <ele>328</ele>
        <time>2010-01-01T00:33:59Z</time>
      </trkpt>
      <trkpt lat="47.70227" lon="5.98817">
        <ele>328</ele>
        <time>2010-01-01T00:34:03Z</time>
      </trkpt>
      <trkpt lat="47.70238" lon="5.98815">
        <ele>329</ele>
        <time>2010-01-01T00:34:07Z</time>
      </trkpt>
      <trkpt lat="47.70239" lon="5.98815">
        <ele>329</ele>
        <time>2010-01-01T00:34:07Z</time>
      </trkpt>
      <trkpt lat="47.70241" lon="5.98815">
        <ele>330</ele>
        <time>2010-01-01T00:34:08Z</time>
      </trkpt>
      <trkpt lat="47.70242" lon="5.98815">
        <ele>330</ele>
        <time>2010-01-01T00:34:08Z</time>
      </trkpt>
      <trkpt lat="47.70244" lon="5.98815">
        <ele>330</ele>
        <time>2010-01-01T00:34:09Z</time>
      </trkpt>
      <trkpt lat="47.70252" lon="5.98814">
        <ele>330</ele>
        <time>2010-01-01T00:34:13Z</time>
      </trkpt>
      <trkpt lat="47.70261" lon="5.98812">
        <ele>331</ele>
        <time>2010-01-01T00:34:16Z</time>
      </trkpt>
      <trkpt lat="47.70262" lon="5.98812">
        <ele>331</ele>
        <time>2010-01-01T00:34:17Z</time>
      </trkpt>
      <trkpt lat="47.70263" lon="5.98811">
        <ele>332</ele>
        <time>2010-01-01T00:34:17Z</time>
      </trkpt>
      <trkpt lat="47.70265" lon="5.98811">
        <ele>332</ele>
        <time>2010-01-01T00:34:18Z</time>
      </trkpt>
      <trkpt lat="47.70267" lon="5.98812">
        <ele>332</ele>
        <time>2010-01-01T00:34:18Z</time>
      </trkpt>
      <trkpt lat="47.70273" lon="5.98812">
        <ele>332</ele>
        <time>2010-01-01T00:34:21Z</time>
      </trkpt>
      <trkpt lat="47.70284" lon="5.98815">
        <ele>332</ele>
        <time>2010-01-01T00:34:25Z</time>
      </trkpt>
      <trkpt lat="47.70288" lon="5.98815">
        <ele>332</ele>
        <time>2010-01-01T00:34:27Z</time>
      </trkpt>
      <trkpt lat="47.70296" lon="5.98817">
        <ele>332</ele>
        <time>2010-01-01T00:34:30Z</time>
      </trkpt>
      <trkpt lat="47.70298" lon="5.98818">
        <ele>333</ele>
        <time>2010-01-01T00:34:31Z</time>
      </trkpt>
      <trkpt lat="47.70299" lon="5.98818">
        <ele>334</ele>
        <time>2010-01-01T00:34:32Z</time>
      </trkpt>
      <trkpt lat="47.703" lon="5.98818">
        <ele>334</ele>
        <time>2010-01-01T00:34:32Z</time>
      </trkpt>
      <trkpt lat="47.70301" lon="5.98818">
        <ele>335</ele>
        <time>2010-01-01T00:34:32Z</time>
      </trkpt>
      <trkpt lat="47.70306" lon="5.98821">
        <ele>335</ele>
        <time>2010-01-01T00:34:34Z</time>
      </trkpt>
      <trkpt lat="47.70318" lon="5.98827">
        <ele>335</ele>
        <time>2010-01-01T00:34:39Z</time>
      </trkpt>
      <trkpt lat="47.70319" lon="5.98828">
        <ele>335</ele>
        <time>2010-01-01T00:34:40Z</time>
      </trkpt>
      <trkpt lat="47.7033" lon="5.98834">
        <ele>335</ele>
        <time>2010-01-01T00:34:44Z</time>
      </trkpt>
      <trkpt lat="47.70342" lon="5.98837">
        <ele>335</ele>
        <time>2010-01-01T00:34:49Z</time>
      </trkpt>
      <trkpt lat="47.70348" lon="5.9884">
        <ele>335</ele>
        <time>2010-01-01T00:34:52Z</time>
      </trkpt>
      <trkpt lat="47.70349" lon="5.9884">
        <ele>335</ele>
        <time>2010-01-01T00:34:52Z</time>
      </trkpt>
      <trkpt lat="47.70351" lon="5.9884">
        <ele>336</ele>
        <time>2010-01-01T00:34:53Z</time>
      </trkpt>
      <trkpt lat="47.70352" lon="5.9884">
        <ele>336</ele>
        <time>2010-01-01T00:34:54Z</time>
      </trkpt>
      <trkpt lat="47.70354" lon="5.9884">
        <ele>337</ele>
        <time>2010-01-01T00:34:55Z</time>
      </trkpt>
      <trkpt lat="47.70366" lon="5.98842">
        <ele>337</ele>
        <time>2010-01-01T00:34:59Z</time>
      </trkpt>
      <trkpt lat="47.70367" lon="5.98842">
        <ele>337</ele>
        <time>2010-01-01T00:35:00Z</time>
      </trkpt>
      <trkpt lat="47.70368" lon="5.98842">
        <ele>337</ele>
        <time>2010-01-01T00:35:00Z</time>
      </trkpt>
      <trkpt lat="47.70371" lon="5.98846">
        <ele>337</ele>
        <time>2010-01-01T00:35:01Z</time>
      </trkpt>
      <trkpt lat="47.70372" lon="5.98847">
        <ele>337</ele>
        <time>2010-01-01T00:35:02Z</time>
      </trkpt>
      <trkpt lat="47.70372" lon="5.98847">
        <ele>337</ele>
        <time>2010-01-01T00:35:02Z</time>
      </trkpt>
      <trkpt lat="47.70382" lon="5.9885">
        <ele>337</ele>
        <time>2010-01-01T00:35:06Z</time>
      </trkpt>
      <trkpt lat="47.70397" lon="5.98855">
        <ele>337</ele>
        <time>2010-01-01T00:35:13Z</time>
      </trkpt>
      <trkpt lat="47.70414" lon="5.98863">
        <ele>337</ele>
        <time>2010-01-01T00:35:19Z</time>
      </trkpt>
      <trkpt lat="47.70427" lon="5.9887">
        <ele>337</ele>
        <time>2010-01-01T00:35:25Z</time>
      </trkpt>
      <trkpt lat="47.70444" lon="5.98874">
        <ele>337</ele>
        <time>2010-01-01T00:35:32Z</time>
      </trkpt>
      <trkpt lat="47.70458" lon="5.98877">
        <ele>337</ele>
        <time>2010-01-01T00:35:38Z</time>
      </trkpt>
      <trkpt lat="47.70475" lon="5.98885">
        <ele>337</ele>
        <time>2010-01-01T00:35:45Z</time>
      </trkpt>
      <trkpt lat="47.70492" lon="5.98892">
        <ele>337</ele>
        <time>2010-01-01T00:35:52Z</time>
      </trkpt>
      <trkpt lat="47.7051" lon="5.98897">
        <ele>337</ele>
        <time>2010-01-01T00:35:59Z</time>
      </trkpt>
      <trkpt lat="47.70523" lon="5.98897">
        <ele>337</ele>
        <time>2010-01-01T00:36:04Z</time>
      </trkpt>
      <trkpt lat="47.70525" lon="5.98895">
        <ele>337</ele>
        <time>2010-01-01T00:36:05Z</time>
      </trkpt>
      <trkpt lat="47.70527" lon="5.98894">
        <ele>337</ele>
        <time>2010-01-01T00:36:06Z</time>
      </trkpt>
      <trkpt lat="47.70529" lon="5.98893">
        <ele>338</ele>
        <time>2010-01-01T00:36:07Z</time>
      </trkpt>
      <trkpt lat="47.70531" lon="5.98891">
        <ele>338</ele>
        <time>2010-01-01T00:36:08Z</time>
      </trkpt>
      <trkpt lat="47.70533" lon="5.9889">
        <ele>339</ele>
        <time>2010-01-01T00:36:09Z</time>
      </trkpt>
      <trkpt lat="47.70542" lon="5.98885">
        <ele>339</ele>
        <time>2010-01-01T00:36:12Z</time>
      </trkpt>
      <trkpt lat="47.70557" lon="5.98872">
        <ele>339</ele>
        <time>2010-01-01T00:36:20Z</time>
      </trkpt>
      <trkpt lat="47.70568" lon="5.98862">
        <ele>339</ele>
        <time>2010-01-01T00:36:25Z</time>
      </trkpt>
      <trkpt lat="47.70583" lon="5.98847">
        <ele>339</ele>
        <time>2010-01-01T00:36:32Z</time>
      </trkpt>
      <trkpt lat="47.70586" lon="5.98845">
        <ele>340</ele>
        <time>2010-01-01T00:36:33Z</time>
      </trkpt>
      <trkpt lat="47.70587" lon="5.98844">
        <ele>340</ele>
        <time>2010-01-01T00:36:34Z</time>
      </trkpt>
      <trkpt lat="47.70589" lon="5.98843">
        <ele>340</ele>
        <time>2010-01-01T00:36:35Z</time>
      </trkpt>
      <trkpt lat="47.70591" lon="5.98841">
        <ele>341</ele>
        <time>2010-01-01T00:36:36Z</time>
      </trkpt>
      <trkpt lat="47.70599" lon="5.98837">
        <ele>341</ele>
        <time>2010-01-01T00:36:39Z</time>
      </trkpt>
      <trkpt lat="47.70612" lon="5.98829">
        <ele>341</ele>
        <time>2010-01-01T00:36:44Z</time>
      </trkpt>
      <trkpt lat="47.70619" lon="5.98834">
        <ele>341</ele>
        <time>2010-01-01T00:36:48Z</time>
      </trkpt>
      <trkpt lat="47.7062" lon="5.9884">
        <ele>341</ele>
        <time>2010-01-01T00:36:49Z</time>
      </trkpt>
      <trkpt lat="47.70623" lon="5.98847">
        <ele>341</ele>
        <time>2010-01-01T00:36:52Z</time>
      </trkpt>
      <trkpt lat="47.70627" lon="5.98859">
        <ele>341</ele>
        <time>2010-01-01T00:36:55Z</time>
      </trkpt>
      <trkpt lat="47.70634" lon="5.98875">
        <ele>341</ele>
        <time>2010-01-01T00:37:00Z</time>
      </trkpt>
      <trkpt lat="47.7064" lon="5.98895">
        <ele>341</ele>
        <time>2010-01-01T00:37:06Z</time>
      </trkpt>
      <trkpt lat="47.70645" lon="5.98908">
        <ele>341</ele>
        <time>2010-01-01T00:37:10Z</time>
      </trkpt>
      <trkpt lat="47.70646" lon="5.9891">
        <ele>341</ele>
        <time>2010-01-01T00:37:11Z</time>
      </trkpt>
      <trkpt lat="47.70655" lon="5.98927">
        <ele>341</ele>
        <time>2010-01-01T00:37:17Z</time>
      </trkpt>
      <trkpt lat="47.70666" lon="5.98932">
        <ele>341</ele>
        <time>2010-01-01T00:37:21Z</time>
      </trkpt>
      <trkpt lat="47.70678" lon="5.98941">
        <ele>341</ele>
        <time>2010-01-01T00:37:27Z</time>
      </trkpt>
      <trkpt lat="47.70695" lon="5.9895">
        <ele>341</ele>
        <time>2010-01-01T00:37:34Z</time>
      </trkpt>
      <trkpt lat="47.70721" lon="5.98963">
        <ele>340</ele>
        <time>2010-01-01T00:37:45Z</time>
      </trkpt>
      <trkpt lat="47.70723" lon="5.98965">
        <ele>340</ele>
        <time>2010-01-01T00:37:46Z</time>
      </trkpt>
      <trkpt lat="47.70726" lon="5.98967">
        <ele>340</ele>
        <time>2010-01-01T00:37:47Z</time>
      </trkpt>
      <trkpt lat="47.70729" lon="5.98968">
        <ele>339</ele>
        <time>2010-01-01T00:37:48Z</time>
      </trkpt>
      <trkpt lat="47.70733" lon="5.98971">
        <ele>339</ele>
        <time>2010-01-01T00:37:50Z</time>
      </trkpt>
      <trkpt lat="47.70744" lon="5.98977">
        <ele>339</ele>
        <time>2010-01-01T00:37:55Z</time>
      </trkpt>
      <trkpt lat="47.70771" lon="5.9899">
        <ele>339</ele>
        <time>2010-01-01T00:38:06Z</time>
      </trkpt>
      <trkpt lat="47.70786" lon="5.98995">
        <ele>338</ele>
        <time>2010-01-01T00:38:12Z</time>
      </trkpt>
      <trkpt lat="47.70789" lon="5.98996">
        <ele>338</ele>
        <time>2010-01-01T00:38:13Z</time>
      </trkpt>
      <trkpt lat="47.70792" lon="5.98999">
        <ele>338</ele>
        <time>2010-01-01T00:38:15Z</time>
      </trkpt>
      <trkpt lat="47.70796" lon="5.99001">
        <ele>337</ele>
        <time>2010-01-01T00:38:17Z</time>
      </trkpt>
      <trkpt lat="47.70799" lon="5.99003">
        <ele>337</ele>
        <time>2010-01-01T00:38:18Z</time>
      </trkpt>
      <trkpt lat="47.70819" lon="5.99016">
        <ele>337</ele>
        <time>2010-01-01T00:38:27Z</time>
      </trkpt>
      <trkpt lat="47.70842" lon="5.99029">
        <ele>336</ele>
        <time>2010-01-01T00:38:36Z</time>
      </trkpt>
      <trkpt lat="47.70845" lon="5.99031">
        <ele>336</ele>
        <time>2010-01-01T00:38:38Z</time>
      </trkpt>
      <trkpt lat="47.70848" lon="5.99033">
        <ele>335</ele>
        <time>2010-01-01T00:38:39Z</time>
      </trkpt>
      <trkpt lat="47.70851" lon="5.99035">
        <ele>335</ele>
        <time>2010-01-01T00:38:41Z</time>
      </trkpt>
      <trkpt lat="47.70854" lon="5.99038">
        <ele>335</ele>
        <time>2010-01-01T00:38:42Z</time>
      </trkpt>
      <trkpt lat="47.7086" lon="5.99041">
        <ele>335</ele>
        <time>2010-01-01T00:38:44Z</time>
      </trkpt>
      <trkpt lat="47.70862" lon="5.99041">
        <ele>334</ele>
        <time>2010-01-01T00:38:45Z</time>
      </trkpt>
      <trkpt lat="47.70863" lon="5.99041">
        <ele>334</ele>
        <time>2010-01-01T00:38:45Z</time>
      </trkpt>
      <trkpt lat="47.70863" lon="5.99041">
        <ele>333</ele>
        <time>2010-01-01T00:38:46Z</time>
      </trkpt>
      <trkpt lat="47.70867" lon="5.99044">
        <ele>333</ele>
        <time>2010-01-01T00:38:47Z</time>
      </trkpt>
      <trkpt lat="47.70875" lon="5.99051">
        <ele>332</ele>
        <time>2010-01-01T00:38:51Z</time>
      </trkpt>
      <trkpt lat="47.70879" lon="5.99054">
        <ele>332</ele>
        <time>2010-01-01T00:38:53Z</time>
      </trkpt>
      <trkpt lat="47.70882" lon="5.99056">
        <ele>331</ele>
        <time>2010-01-01T00:38:54Z</time>
      </trkpt>
      <trkpt lat="47.70885" lon="5.99058">
        <ele>331</ele>
        <time>2010-01-01T00:38:56Z</time>
      </trkpt>
      <trkpt lat="47.70888" lon="5.9906">
        <ele>330</ele>
        <time>2010-01-01T00:38:57Z</time>
      </trkpt>
      <trkpt lat="47.70891" lon="5.99062">
        <ele>329</ele>
        <time>2010-01-01T00:38:58Z</time>
      </trkpt>
      <trkpt lat="47.70894" lon="5.99063">
        <ele>328</ele>
        <time>2010-01-01T00:39:00Z</time>
      </trkpt>
      <trkpt lat="47.70896" lon="5.99064">
        <ele>328</ele>
        <time>2010-01-01T00:39:00Z</time>
      </trkpt>
      <trkpt lat="47.70901" lon="5.99066">
        <ele>327</ele>
        <time>2010-01-01T00:39:02Z</time>
      </trkpt>
      <trkpt lat="47.70902" lon="5.99067">
        <ele>327</ele>
        <time>2010-01-01T00:39:03Z</time>
      </trkpt>
      <trkpt lat="47.70903" lon="5.99067">
        <ele>326</ele>
        <time>2010-01-01T00:39:03Z</time>
      </trkpt>
      <trkpt lat="47.70904" lon="5.99067">
        <ele>326</ele>
        <time>2010-01-01T00:39:03Z</time>
      </trkpt>
      <trkpt lat="47.70905" lon="5.99067">
        <ele>327</ele>
        <time>2010-01-01T00:39:04Z</time>
      </trkpt>
      <trkpt lat="47.70913" lon="5.99072">
        <ele>327</ele>
        <time>2010-01-01T00:39:07Z</time>
      </trkpt>
      <trkpt lat="47.70922" lon="5.99077">
        <ele>327</ele>
        <time>2010-01-01T00:39:11Z</time>
      </trkpt>
      <trkpt lat="47.7093" lon="5.99077">
        <ele>327</ele>
        <time>2010-01-01T00:39:14Z</time>
      </trkpt>
      <trkpt lat="47.7094" lon="5.99081">
        <ele>327</ele>
        <time>2010-01-01T00:39:18Z</time>
      </trkpt>
      <trkpt lat="47.70945" lon="5.99082">
        <ele>327</ele>
        <time>2010-01-01T00:39:20Z</time>
      </trkpt>
      <trkpt lat="47.70945" lon="5.99082">
        <ele>327</ele>
        <time>2010-01-01T00:39:20Z</time>
      </trkpt>
      <trkpt lat="47.70946" lon="5.99082">
        <ele>327</ele>
        <time>2010-01-01T00:39:21Z</time>
      </trkpt>
      <trkpt lat="47.70955" lon="5.99086">
        <ele>327</ele>
        <time>2010-01-01T00:39:25Z</time>
      </trkpt>
      <trkpt lat="47.70975" lon="5.99094">
        <ele>327</ele>
        <time>2010-01-01T00:39:33Z</time>
      </trkpt>
      <trkpt lat="47.70994" lon="5.99102">
        <ele>327</ele>
        <time>2010-01-01T00:39:41Z</time>
      </trkpt>
      <trkpt lat="47.71004" lon="5.99105">
        <ele>327</ele>
        <time>2010-01-01T00:39:45Z</time>
      </trkpt>
      <trkpt lat="47.71013" lon="5.99109">
        <ele>327</ele>
        <time>2010-01-01T00:39:49Z</time>
      </trkpt>
      <trkpt lat="47.71018" lon="5.99112">
        <ele>326</ele>
        <time>2010-01-01T00:39:51Z</time>
      </trkpt>
      <trkpt lat="47.71019" lon="5.99113">
        <ele>326</ele>
        <time>2010-01-01T00:39:52Z</time>
      </trkpt>
      <trkpt lat="47.71021" lon="5.99114">
        <ele>325</ele>
        <time>2010-01-01T00:39:52Z</time>
      </trkpt>
      <trkpt lat="47.71023" lon="5.99115">
        <ele>326</ele>
        <time>2010-01-01T00:39:53Z</time>
      </trkpt>
      <trkpt lat="47.71026" lon="5.99116">
        <ele>326</ele>
        <time>2010-01-01T00:39:54Z</time>
      </trkpt>
      <trkpt lat="47.71029" lon="5.99118">
        <ele>327</ele>
        <time>2010-01-01T00:39:56Z</time>
      </trkpt>
      <trkpt lat="47.71033" lon="5.99119">
        <ele>327</ele>
        <time>2010-01-01T00:39:57Z</time>
      </trkpt>
      <trkpt lat="47.71037" lon="5.99121">
        <ele>327</ele>
        <time>2010-01-01T00:39:59Z</time>
      </trkpt>
      <trkpt lat="47.71042" lon="5.99123">
        <ele>326</ele>
        <time>2010-01-01T00:40:01Z</time>
      </trkpt>
      <trkpt lat="47.71047" lon="5.99124">
        <ele>326</ele>
        <time>2010-01-01T00:40:03Z</time>
      </trkpt>
      <trkpt lat="47.7105" lon="5.99125">
        <ele>325</ele>
        <time>2010-01-01T00:40:04Z</time>
      </trkpt>
      <trkpt lat="47.71073" lon="5.99135">
        <ele>325</ele>
        <time>2010-01-01T00:40:14Z</time>
      </trkpt>
      <trkpt lat="47.71081" lon="5.99138">
        <ele>325</ele>
        <time>2010-01-01T00:40:17Z</time>
      </trkpt>
      <trkpt lat="47.71085" lon="5.9914">
        <ele>325</ele>
        <time>2010-01-01T00:40:19Z</time>
      </trkpt>
      <trkpt lat="47.71088" lon="5.99141">
        <ele>324</ele>
        <time>2010-01-01T00:40:20Z</time>
      </trkpt>
      <trkpt lat="47.71091" lon="5.99142">
        <ele>324</ele>
        <time>2010-01-01T00:40:21Z</time>
      </trkpt>
      <trkpt lat="47.71094" lon="5.99144">
        <ele>323</ele>
        <time>2010-01-01T00:40:23Z</time>
      </trkpt>
      <trkpt lat="47.71109" lon="5.99147">
        <ele>323</ele>
        <time>2010-01-01T00:40:29Z</time>
      </trkpt>
      <trkpt lat="47.71115" lon="5.99144">
        <ele>323</ele>
        <time>2010-01-01T00:40:31Z</time>
      </trkpt>
      <trkpt lat="47.71116" lon="5.99144">
        <ele>323</ele>
        <time>2010-01-01T00:40:31Z</time>
      </trkpt>
      <trkpt lat="47.71116" lon="5.99147">
        <ele>323</ele>
        <time>2010-01-01T00:40:33Z</time>
      </trkpt>
      <trkpt lat="47.71124" lon="5.99154">
        <ele>323</ele>
        <time>2010-01-01T00:40:36Z</time>
      </trkpt>
      <trkpt lat="47.71138" lon="5.99157">
        <ele>323</ele>
        <time>2010-01-01T00:40:42Z</time>
      </trkpt>
      <trkpt lat="47.7115" lon="5.99164">
        <ele>323</ele>
        <time>2010-01-01T00:40:47Z</time>
      </trkpt>
      <trkpt lat="47.71158" lon="5.99172">
        <ele>323</ele>
        <time>2010-01-01T00:40:51Z</time>
      </trkpt>
      <trkpt lat="47.71161" lon="5.99177">
        <ele>323</ele>
        <time>2010-01-01T00:40:53Z</time>
      </trkpt>
      <trkpt lat="47.71169" lon="5.99187">
        <ele>323</ele>
        <time>2010-01-01T00:40:57Z</time>
      </trkpt>
      <trkpt lat="47.71175" lon="5.99192">
        <ele>323</ele>
        <time>2010-01-01T00:41:00Z</time>
      </trkpt>
      <trkpt lat="47.71179" lon="5.99195">
        <ele>323</ele>
        <time>2010-01-01T00:41:01Z</time>
      </trkpt>
      <trkpt lat="47.71182" lon="5.99198">
        <ele>322</ele>
        <time>2010-01-01T00:41:03Z</time>
      </trkpt>
      <trkpt lat="47.71185" lon="5.99201">
        <ele>322</ele>
        <time>2010-01-01T00:41:04Z</time>
      </trkpt>
      <trkpt lat="47.71188" lon="5.99203">
        <ele>321</ele>
        <time>2010-01-01T00:41:06Z</time>
      </trkpt>
      <trkpt lat="47.71194" lon="5.99206">
        <ele>321</ele>
        <time>2010-01-01T00:41:08Z</time>
      </trkpt>
      <trkpt lat="47.71195" lon="5.99207">
        <ele>321</ele>
        <time>2010-01-01T00:41:09Z</time>
      </trkpt>
      <trkpt lat="47.71194" lon="5.99206">
        <ele>321</ele>
        <time>2010-01-01T00:41:09Z</time>
      </trkpt>
      <trkpt lat="47.71192" lon="5.99205">
        <ele>321</ele>
        <time>2010-01-01T00:41:10Z</time>
      </trkpt>
      <trkpt lat="47.71189" lon="5.99201">
        <ele>321</ele>
        <time>2010-01-01T00:41:12Z</time>
      </trkpt>
      <trkpt lat="47.71187" lon="5.99196">
        <ele>321</ele>
        <time>2010-01-01T00:41:13Z</time>
      </trkpt>
      <trkpt lat="47.71186" lon="5.99194">
        <ele>321</ele>
        <time>2010-01-01T00:41:14Z</time>
      </trkpt>
      <trkpt lat="47.71178" lon="5.99186">
        <ele>321</ele>
        <time>2010-01-01T00:41:18Z</time>
      </trkpt>
      <trkpt lat="47.71169" lon="5.99178">
        <ele>321</ele>
        <time>2010-01-01T00:41:22Z</time>
      </trkpt>
      <trkpt lat="47.71168" lon="5.99177">
        <ele>321</ele>
        <time>2010-01-01T00:41:23Z</time>
      </trkpt>
      <trkpt lat="47.7115" lon="5.99167">
        <ele>321</ele>
        <time>2010-01-01T00:41:30Z</time>
      </trkpt>
      <trkpt lat="47.71137" lon="5.9916">
        <ele>321</ele>
        <time>2010-01-01T00:41:36Z</time>
      </trkpt>
      <trkpt lat="47.71124" lon="5.99151">
        <ele>321</ele>
        <time>2010-01-01T00:41:42Z</time>
      </trkpt>
      <trkpt lat="47.71123" lon="5.99146">
        <ele>321</ele>
        <time>2010-01-01T00:41:43Z</time>
      </trkpt>
      <trkpt lat="47.71123" lon="5.99145">
        <ele>321</ele>
        <time>2010-01-01T00:41:43Z</time>
      </trkpt>
      <trkpt lat="47.71124" lon="5.99143">
        <ele>322</ele>
        <time>2010-01-01T00:41:44Z</time>
      </trkpt>
      <trkpt lat="47.71124" lon="5.99141">
        <ele>322</ele>
        <time>2010-01-01T00:41:44Z</time>
      </trkpt>
      <trkpt lat="47.71125" lon="5.99139">
        <ele>323</ele>
        <time>2010-01-01T00:41:45Z</time>
      </trkpt>
      <trkpt lat="47.71125" lon="5.99138">
        <ele>323</ele>
        <time>2010-01-01T00:41:45Z</time>
      </trkpt>
      <trkpt lat="47.71126" lon="5.99136">
        <ele>323</ele>
        <time>2010-01-01T00:41:46Z</time>
      </trkpt>
      <trkpt lat="47.71128" lon="5.99131">
        <ele>323</ele>
        <time>2010-01-01T00:41:48Z</time>
      </trkpt>
      <trkpt lat="47.71129" lon="5.99122">
        <ele>324</ele>
        <time>2010-01-01T00:41:50Z</time>
      </trkpt>
      <trkpt lat="47.71129" lon="5.9912">
        <ele>324</ele>
        <time>2010-01-01T00:41:51Z</time>
      </trkpt>
      <trkpt lat="47.71129" lon="5.99119">
        <ele>325</ele>
        <time>2010-01-01T00:41:51Z</time>
      </trkpt>
      <trkpt lat="47.71129" lon="5.99118">
        <ele>325</ele>
        <time>2010-01-01T00:41:51Z</time>
      </trkpt>
      <trkpt lat="47.7113" lon="5.99115">
        <ele>325</ele>
        <time>2010-01-01T00:41:52Z</time>
      </trkpt>
      <trkpt lat="47.71134" lon="5.9911">
        <ele>325</ele>
        <time>2010-01-01T00:41:54Z</time>
      </trkpt>
      <trkpt lat="47.71135" lon="5.99107">
        <ele>325</ele>
        <time>2010-01-01T00:41:55Z</time>
      </trkpt>
      <trkpt lat="47.71136" lon="5.99105">
        <ele>325</ele>
        <time>2010-01-01T00:41:56Z</time>
      </trkpt>
      <trkpt lat="47.71141" lon="5.99094">
        <ele>325</ele>
        <time>2010-01-01T00:41:59Z</time>
      </trkpt>
      <trkpt lat="47.71143" lon="5.9909">
        <ele>326</ele>
        <time>2010-01-01T00:42:01Z</time>
      </trkpt>
      <trkpt lat="47.71144" lon="5.99088">
        <ele>326</ele>
        <time>2010-01-01T00:42:01Z</time>
      </trkpt>
      <trkpt lat="47.71145" lon="5.99086">
        <ele>327</ele>
        <time>2010-01-01T00:42:02Z</time>
      </trkpt>
      <trkpt lat="47.71146" lon="5.99083">
        <ele>328</ele>
        <time>2010-01-01T00:42:03Z</time>
      </trkpt>
      <trkpt lat="47.71148" lon="5.99079">
        <ele>328</ele>
        <time>2010-01-01T00:42:04Z</time>
      </trkpt>
      <trkpt lat="47.71155" lon="5.99064">
        <ele>328</ele>
        <time>2010-01-01T00:42:09Z</time>
      </trkpt>
      <trkpt lat="47.71162" lon="5.9905">
        <ele>328</ele>
        <time>2010-01-01T00:42:14Z</time>
      </trkpt>
      <trkpt lat="47.71171" lon="5.99031">
        <ele>328</ele>
        <time>2010-01-01T00:42:20Z</time>
      </trkpt>
      <trkpt lat="47.71174" lon="5.9903">
        <ele>328</ele>
        <time>2010-01-01T00:42:21Z</time>
      </trkpt>
      <trkpt lat="47.71176" lon="5.9903">
        <ele>328</ele>
        <time>2010-01-01T00:42:22Z</time>
      </trkpt>
      <trkpt lat="47.71177" lon="5.99031">
        <ele>328</ele>
        <time>2010-01-01T00:42:23Z</time>
      </trkpt>
      <trkpt lat="47.71178" lon="5.99031">
        <ele>328</ele>
        <time>2010-01-01T00:42:23Z</time>
      </trkpt>
      <trkpt lat="47.71179" lon="5.99034">
        <ele>328</ele>
        <time>2010-01-01T00:42:24Z</time>
      </trkpt>
      <trkpt lat="47.7118" lon="5.99038">
        <ele>328</ele>
        <time>2010-01-01T00:42:25Z</time>
      </trkpt>
      <trkpt lat="47.71191" lon="5.99053">
        <ele>328</ele>
        <time>2010-01-01T00:42:31Z</time>
      </trkpt>
      <trkpt lat="47.71202" lon="5.99067">
        <ele>328</ele>
        <time>2010-01-01T00:42:37Z</time>
      </trkpt>
      <trkpt lat="47.7121" lon="5.9909">
        <ele>328</ele>
        <time>2010-01-01T00:42:44Z</time>
      </trkpt>
      <trkpt lat="47.71212" lon="5.99099">
        <ele>327</ele>
        <time>2010-01-01T00:42:46Z</time>
      </trkpt>
      <trkpt lat="47.71212" lon="5.99103">
        <ele>327</ele>
        <time>2010-01-01T00:42:48Z</time>
      </trkpt>
      <trkpt lat="47.71213" lon="5.99108">
        <ele>326</ele>
        <time>2010-01-01T00:42:49Z</time>
      </trkpt>
      <trkpt lat="47.71214" lon="5.99112">
        <ele>326</ele>
        <time>2010-01-01T00:42:50Z</time>
      </trkpt>
      <trkpt lat="47.71216" lon="5.99116">
        <ele>326</ele>
        <time>2010-01-01T00:42:51Z</time>
      </trkpt>
      <trkpt lat="47.71218" lon="5.9912">
        <ele>326</ele>
        <time>2010-01-01T00:42:53Z</time>
      </trkpt>
      <trkpt lat="47.71228" lon="5.9913">
        <ele>325</ele>
        <time>2010-01-01T00:42:58Z</time>
      </trkpt>
      <trkpt lat="47.71232" lon="5.9913">
        <ele>325</ele>
        <time>2010-01-01T00:42:59Z</time>
      </trkpt>
      <trkpt lat="47.71235" lon="5.99132">
        <ele>324</ele>
        <time>2010-01-01T00:43:00Z</time>
      </trkpt>
      <trkpt lat="47.71237" lon="5.99132">
        <ele>324</ele>
        <time>2010-01-01T00:43:01Z</time>
      </trkpt>
      <trkpt lat="47.71239" lon="5.99132">
        <ele>323</ele>
        <time>2010-01-01T00:43:02Z</time>
      </trkpt>
      <trkpt lat="47.71243" lon="5.99135">
        <ele>323</ele>
        <time>2010-01-01T00:43:04Z</time>
      </trkpt>
      <trkpt lat="47.71251" lon="5.99141">
        <ele>323</ele>
        <time>2010-01-01T00:43:07Z</time>
      </trkpt>
      <trkpt lat="47.71253" lon="5.99143">
        <ele>323</ele>
        <time>2010-01-01T00:43:09Z</time>
      </trkpt>
      <trkpt lat="47.71256" lon="5.99145">
        <ele>322</ele>
        <time>2010-01-01T00:43:10Z</time>
      </trkpt>
      <trkpt lat="47.71258" lon="5.99148">
        <ele>322</ele>
        <time>2010-01-01T00:43:11Z</time>
      </trkpt>
      <trkpt lat="47.71261" lon="5.9915">
        <ele>321</ele>
        <time>2010-01-01T00:43:12Z</time>
      </trkpt>
      <trkpt lat="47.71275" lon="5.99161">
        <ele>321</ele>
        <time>2010-01-01T00:43:18Z</time>
      </trkpt>
      <trkpt lat="47.7129" lon="5.99173">
        <ele>321</ele>
        <time>2010-01-01T00:43:25Z</time>
      </trkpt>
      <trkpt lat="47.71292" lon="5.99175">
        <ele>320</ele>
        <time>2010-01-01T00:43:26Z</time>
      </trkpt>
      <trkpt lat="47.71293" lon="5.99177">
        <ele>320</ele>
        <time>2010-01-01T00:43:27Z</time>
      </trkpt>
      <trkpt lat="47.71295" lon="5.99179">
        <ele>320</ele>
        <time>2010-01-01T00:43:28Z</time>
      </trkpt>
      <trkpt lat="47.71297" lon="5.99181">
        <ele>319</ele>
        <time>2010-01-01T00:43:29Z</time>
      </trkpt>
      <trkpt lat="47.71304" lon="5.99187">
        <ele>319</ele>
        <time>2010-01-01T00:43:32Z</time>
      </trkpt>
      <trkpt lat="47.71324" lon="5.99204">
        <ele>319</ele>
        <time>2010-01-01T00:43:41Z</time>
      </trkpt>
      <trkpt lat="47.71342" lon="5.99225">
        <ele>319</ele>
        <time>2010-01-01T00:43:50Z</time>
      </trkpt>
      <trkpt lat="47.71346" lon="5.99232">
        <ele>318</ele>
        <time>2010-01-01T00:43:53Z</time>
      </trkpt>
      <trkpt lat="47.71348" lon="5.99236">
        <ele>318</ele>
        <time>2010-01-01T00:43:54Z</time>
      </trkpt>
      <trkpt lat="47.7135" lon="5.9924">
        <ele>317</ele>
        <time>2010-01-01T00:43:55Z</time>
      </trkpt>
      <trkpt lat="47.71352" lon="5.99243">
        <ele>317</ele>
        <time>2010-01-01T00:43:57Z</time>
      </trkpt>
      <trkpt lat="47.7136" lon="5.99255">
        <ele>317</ele>
        <time>2010-01-01T00:44:01Z</time>
      </trkpt>
      <trkpt lat="47.71373" lon="5.99274">
        <ele>317</ele>
        <time>2010-01-01T00:44:09Z</time>
      </trkpt>
      <trkpt lat="47.71376" lon="5.99278">
        <ele>316</ele>
        <time>2010-01-01T00:44:10Z</time>
      </trkpt>
      <trkpt lat="47.71379" lon="5.99282">
        <ele>316</ele>
        <time>2010-01-01T00:44:12Z</time>
      </trkpt>
      <trkpt lat="47.71382" lon="5.99286">
        <ele>315</ele>
        <time>2010-01-01T00:44:13Z</time>
      </trkpt>
      <trkpt lat="47.71384" lon="5.9929">
        <ele>315</ele>
        <time>2010-01-01T00:44:15Z</time>
      </trkpt>
      <trkpt lat="47.71395" lon="5.99305">
        <ele>314</ele>
        <time>2010-01-01T00:44:21Z</time>
      </trkpt>
      <trkpt lat="47.71398" lon="5.9931">
        <ele>314</ele>
        <time>2010-01-01T00:44:22Z</time>
      </trkpt>
      <trkpt lat="47.714" lon="5.99314">
        <ele>314</ele>
        <time>2010-01-01T00:44:24Z</time>
      </trkpt>
      <trkpt lat="47.71402" lon="5.99319">
        <ele>313</ele>
        <time>2010-01-01T00:44:25Z</time>
      </trkpt>
      <trkpt lat="47.71404" lon="5.99324">
        <ele>313</ele>
        <time>2010-01-01T00:44:27Z</time>
      </trkpt>
      <trkpt lat="47.7141" lon="5.99338">
        <ele>313</ele>
        <time>2010-01-01T00:44:31Z</time>
      </trkpt>
      <trkpt lat="47.71412" lon="5.99342">
        <ele>312</ele>
        <time>2010-01-01T00:44:33Z</time>
      </trkpt>
      <trkpt lat="47.71414" lon="5.99346">
        <ele>312</ele>
        <time>2010-01-01T00:44:34Z</time>
      </trkpt>
      <trkpt lat="47.71416" lon="5.9935">
        <ele>311</ele>
        <time>2010-01-01T00:44:35Z</time>
      </trkpt>
      <trkpt lat="47.71418" lon="5.99355">
        <ele>311</ele>
        <time>2010-01-01T00:44:37Z</time>
      </trkpt>
      <trkpt lat="47.71419" lon="5.99359">
        <ele>311</ele>
        <time>2010-01-01T00:44:38Z</time>
      </trkpt>
      <trkpt lat="47.71421" lon="5.99363">
        <ele>311</ele>
        <time>2010-01-01T00:44:39Z</time>
      </trkpt>
      <trkpt lat="47.71426" lon="5.99388">
        <ele>311</ele>
        <time>2010-01-01T00:44:46Z</time>
      </trkpt>
      <trkpt lat="47.71427" lon="5.99391">
        <ele>310</ele>
        <time>2010-01-01T00:44:47Z</time>
      </trkpt>
      <trkpt lat="47.71428" lon="5.99395">
        <ele>310</ele>
        <time>2010-01-01T00:44:48Z</time>
      </trkpt>
      <trkpt lat="47.71428" lon="5.99398">
        <ele>309</ele>
        <time>2010-01-01T00:44:49Z</time>
      </trkpt>
      <trkpt lat="47.71428" lon="5.99401">
        <ele>309</ele>
        <time>2010-01-01T00:44:50Z</time>
      </trkpt>
      <trkpt lat="47.71429" lon="5.99403">
        <ele>309</ele>
        <time>2010-01-01T00:44:51Z</time>
      </trkpt>
      <trkpt lat="47.71432" lon="5.99423">
        <ele>309</ele>
        <time>2010-01-01T00:44:56Z</time>
      </trkpt>
      <trkpt lat="47.71439" lon="5.99439">
        <ele>309</ele>
        <time>2010-01-01T00:45:01Z</time>
      </trkpt>
      <trkpt lat="47.71446" lon="5.99448">
        <ele>309</ele>
        <time>2010-01-01T00:45:05Z</time>
      </trkpt>
      <trkpt lat="47.71448" lon="5.99449">
        <ele>308</ele>
        <time>2010-01-01T00:45:06Z</time>
      </trkpt>
      <trkpt lat="47.71449" lon="5.9945">
        <ele>308</ele>
        <time>2010-01-01T00:45:06Z</time>
      </trkpt>
      <trkpt lat="47.7145" lon="5.99451">
        <ele>307</ele>
        <time>2010-01-01T00:45:07Z</time>
      </trkpt>
      <trkpt lat="47.71451" lon="5.99453">
        <ele>307</ele>
        <time>2010-01-01T00:45:08Z</time>
      </trkpt>
      <trkpt lat="47.71452" lon="5.99453">
        <ele>307</ele>
        <time>2010-01-01T00:45:08Z</time>
      </trkpt>
      <trkpt lat="47.71455" lon="5.99455">
        <ele>307</ele>
        <time>2010-01-01T00:45:09Z</time>
      </trkpt>
      <trkpt lat="47.71468" lon="5.99469">
        <ele>307</ele>
        <time>2010-01-01T00:45:15Z</time>
      </trkpt>
      <trkpt lat="47.71476" lon="5.99477">
        <ele>307</ele>
        <time>2010-01-01T00:45:19Z</time>
      </trkpt>
      <trkpt lat="47.71477" lon="5.99478">
        <ele>307</ele>
        <time>2010-01-01T00:45:20Z</time>
      </trkpt>
      <trkpt lat="47.71475" lon="5.99476">
        <ele>307</ele>
        <time>2010-01-01T00:45:21Z</time>
      </trkpt>
      <trkpt lat="47.71469" lon="5.99471">
        <ele>307</ele>
        <time>2010-01-01T00:45:24Z</time>
      </trkpt>
      <trkpt lat="47.71458" lon="5.99462">
        <ele>307</ele>
        <time>2010-01-01T00:45:29Z</time>
      </trkpt>
      <trkpt lat="47.71453" lon="5.99453">
        <ele>307</ele>
        <time>2010-01-01T00:45:32Z</time>
      </trkpt>
      <trkpt lat="47.71453" lon="5.99453">
        <ele>307</ele>
        <time>2010-01-01T00:45:32Z</time>
      </trkpt>
      <trkpt lat="47.71453" lon="5.99455">
        <ele>307</ele>
        <time>2010-01-01T00:45:33Z</time>
      </trkpt>
      <trkpt lat="47.71456" lon="5.99457">
        <ele>307</ele>
        <time>2010-01-01T00:45:34Z</time>
      </trkpt>
      <trkpt lat="47.71457" lon="5.99459">
        <ele>307</ele>
        <time>2010-01-01T00:45:34Z</time>
      </trkpt>
      <trkpt lat="47.71467" lon="5.9947">
        <ele>307</ele>
        <time>2010-01-01T00:45:39Z</time>
      </trkpt>
      <trkpt lat="47.7148" lon="5.9948">
        <ele>307</ele>
        <time>2010-01-01T00:45:45Z</time>
      </trkpt>
      <trkpt lat="47.71501" lon="5.99498">
        <ele>307</ele>
        <time>2010-01-01T00:45:55Z</time>
      </trkpt>
      <trkpt lat="47.7152" lon="5.99511">
        <ele>306</ele>
        <time>2010-01-01T00:46:03Z</time>
      </trkpt>
      <trkpt lat="47.71523" lon="5.99513">
        <ele>305</ele>
        <time>2010-01-01T00:46:05Z</time>
      </trkpt>
      <trkpt lat="47.71526" lon="5.99516">
        <ele>305</ele>
        <time>2010-01-01T00:46:06Z</time>
      </trkpt>
      <trkpt lat="47.71529" lon="5.99518">
        <ele>304</ele>
        <time>2010-01-01T00:46:07Z</time>
      </trkpt>
      <trkpt lat="47.7154" lon="5.99527">
        <ele>304</ele>
        <time>2010-01-01T00:46:13Z</time>
      </trkpt>
      <trkpt lat="47.71556" lon="5.99542">
        <ele>304</ele>
        <time>2010-01-01T00:46:20Z</time>
      </trkpt>
      <trkpt lat="47.71568" lon="5.9956">
        <ele>304</ele>
        <time>2010-01-01T00:46:27Z</time>
      </trkpt>
      <trkpt lat="47.71583" lon="5.99582">
        <ele>304</ele>
        <time>2010-01-01T00:46:35Z</time>
      </trkpt>
      <trkpt lat="47.71596" lon="5.99591">
        <ele>304</ele>
        <time>2010-01-01T00:46:41Z</time>
      </trkpt>
      <trkpt lat="47.71609" lon="5.99597">
        <ele>304</ele>
        <time>2010-01-01T00:46:46Z</time>
      </trkpt>
      <trkpt lat="47.71623" lon="5.99599">
        <ele>304</ele>
        <time>2010-01-01T00:46:52Z</time>
      </trkpt>
      <trkpt lat="47.71639" lon="5.99601">
        <ele>304</ele>
        <time>2010-01-01T00:46:59Z</time>
      </trkpt>
      <trkpt lat="47.71653" lon="5.99601">
        <ele>304</ele>
        <time>2010-01-01T00:47:04Z</time>
      </trkpt>
      <trkpt lat="47.71662" lon="5.99603">
        <ele>304</ele>
        <time>2010-01-01T00:47:08Z</time>
      </trkpt>
      <trkpt lat="47.71662" lon="5.99604">
        <ele>304</ele>
        <time>2010-01-01T00:47:08Z</time>
      </trkpt>
      <trkpt lat="47.71664" lon="5.99605">
        <ele>304</ele>
        <time>2010-01-01T00:47:09Z</time>
      </trkpt>
      <trkpt lat="47.7167" lon="5.99608">
        <ele>304</ele>
        <time>2010-01-01T00:47:11Z</time>
      </trkpt>
      <trkpt lat="47.71671" lon="5.99608">
        <ele>305</ele>
        <time>2010-01-01T00:47:12Z</time>
      </trkpt>
      <trkpt lat="47.71673" lon="5.99609">
        <ele>305</ele>
        <time>2010-01-01T00:47:13Z</time>
      </trkpt>
      <trkpt lat="47.71674" lon="5.9961">
        <ele>306</ele>
        <time>2010-01-01T00:47:13Z</time>
      </trkpt>
      <trkpt lat="47.71675" lon="5.9961">
        <ele>306</ele>
        <time>2010-01-01T00:47:13Z</time>
      </trkpt>
      <trkpt lat="47.71676" lon="5.9961">
        <ele>307</ele>
        <time>2010-01-01T00:47:14Z</time>
      </trkpt>
      <trkpt lat="47.71679" lon="5.99611">
        <ele>307</ele>
        <time>2010-01-01T00:47:15Z</time>
      </trkpt>
      <trkpt lat="47.7169" lon="5.9961">
        <ele>307</ele>
        <time>2010-01-01T00:47:19Z</time>
      </trkpt>
      <trkpt lat="47.71699" lon="5.99612">
        <ele>307</ele>
        <time>2010-01-01T00:47:23Z</time>
      </trkpt>
      <trkpt lat="47.71702" lon="5.99612">
        <ele>307</ele>
        <time>2010-01-01T00:47:24Z</time>
      </trkpt>
      <trkpt lat="47.71704" lon="5.99613">
        <ele>308</ele>
        <time>2010-01-01T00:47:25Z</time>
      </trkpt>
      <trkpt lat="47.71706" lon="5.99614">
        <ele>308</ele>
        <time>2010-01-01T00:47:26Z</time>
      </trkpt>
      <trkpt lat="47.71708" lon="5.99614">
        <ele>309</ele>
        <time>2010-01-01T00:47:27Z</time>
      </trkpt>
      <trkpt lat="47.71715" lon="5.99615">
        <ele>309</ele>
        <time>2010-01-01T00:47:29Z</time>
      </trkpt>
      <trkpt lat="47.71728" lon="5.99615">
        <ele>309</ele>
        <time>2010-01-01T00:47:35Z</time>
      </trkpt>
      <trkpt lat="47.71731" lon="5.99616">
        <ele>309</ele>
        <time>2010-01-01T00:47:36Z</time>
      </trkpt>
      <trkpt lat="47.71734" lon="5.99617">
        <ele>309</ele>
        <time>2010-01-01T00:47:37Z</time>
      </trkpt>
      <trkpt lat="47.71737" lon="5.99617">
        <ele>309</ele>
        <time>2010-01-01T00:47:38Z</time>
      </trkpt>
      <trkpt lat="47.7174" lon="5.99617">
        <ele>309</ele>
        <time>2010-01-01T00:47:39Z</time>
      </trkpt>
      <trkpt lat="47.71741" lon="5.99616">
        <ele>309</ele>
        <time>2010-01-01T00:47:40Z</time>
      </trkpt>
      <trkpt lat="47.71743" lon="5.99616">
        <ele>310</ele>
        <time>2010-01-01T00:47:41Z</time>
      </trkpt>
      <trkpt lat="47.71745" lon="5.99617">
        <ele>310</ele>
        <time>2010-01-01T00:47:41Z</time>
      </trkpt>
      <trkpt lat="47.71746" lon="5.99618">
        <ele>311</ele>
        <time>2010-01-01T00:47:42Z</time>
      </trkpt>
      <trkpt lat="47.71756" lon="5.99622">
        <ele>311</ele>
        <time>2010-01-01T00:47:46Z</time>
      </trkpt>
      <trkpt lat="47.71758" lon="5.99621">
        <ele>311</ele>
        <time>2010-01-01T00:47:47Z</time>
      </trkpt>
      <trkpt lat="47.71767" lon="5.99621">
        <ele>311</ele>
        <time>2010-01-01T00:47:51Z</time>
      </trkpt>
      <trkpt lat="47.71782" lon="5.99625">
        <ele>311</ele>
        <time>2010-01-01T00:47:57Z</time>
      </trkpt>
      <trkpt lat="47.71791" lon="5.99627">
        <ele>311</ele>
        <time>2010-01-01T00:48:01Z</time>
      </trkpt>
      <trkpt lat="47.71793" lon="5.99628">
        <ele>311</ele>
        <time>2010-01-01T00:48:01Z</time>
      </trkpt>
      <trkpt lat="47.71795" lon="5.99628">
        <ele>312</ele>
        <time>2010-01-01T00:48:02Z</time>
      </trkpt>
      <trkpt lat="47.71796" lon="5.99628">
        <ele>312</ele>
        <time>2010-01-01T00:48:02Z</time>
      </trkpt>
      <trkpt lat="47.71798" lon="5.99628">
        <ele>313</ele>
        <time>2010-01-01T00:48:03Z</time>
      </trkpt>
      <trkpt lat="47.71809" lon="5.99629">
        <ele>313</ele>
        <time>2010-01-01T00:48:08Z</time>
      </trkpt>
      <trkpt lat="47.71821" lon="5.99632">
        <ele>313</ele>
        <time>2010-01-01T00:48:13Z</time>
      </trkpt>
      <trkpt lat="47.71836" lon="5.99633">
        <ele>313</ele>
        <time>2010-01-01T00:48:18Z</time>
      </trkpt>
      <trkpt lat="47.71848" lon="5.99636">
        <ele>313</ele>
        <time>2010-01-01T00:48:23Z</time>
      </trkpt>
      <trkpt lat="47.7185" lon="5.99636">
        <ele>313</ele>
        <time>2010-01-01T00:48:24Z</time>
      </trkpt>
      <trkpt lat="47.71852" lon="5.99637">
        <ele>314</ele>
        <time>2010-01-01T00:48:25Z</time>
      </trkpt>
      <trkpt lat="47.71854" lon="5.99637">
        <ele>314</ele>
        <time>2010-01-01T00:48:26Z</time>
      </trkpt>
      <trkpt lat="47.71856" lon="5.99638">
        <ele>315</ele>
        <time>2010-01-01T00:48:26Z</time>
      </trkpt>
      <trkpt lat="47.71869" lon="5.9964">
        <ele>315</ele>
        <time>2010-01-01T00:48:32Z</time>
      </trkpt>
      <trkpt lat="47.71882" lon="5.99642">
        <ele>315</ele>
        <time>2010-01-01T00:48:37Z</time>
      </trkpt>
      <trkpt lat="47.71895" lon="5.99646">
        <ele>315</ele>
        <time>2010-01-01T00:48:43Z</time>
      </trkpt>
      <trkpt lat="47.71909" lon="5.99647">
        <ele>315</ele>
        <time>2010-01-01T00:48:48Z</time>
      </trkpt>
      <trkpt lat="47.71927" lon="5.9965">
        <ele>315</ele>
        <time>2010-01-01T00:48:55Z</time>
      </trkpt>
      <trkpt lat="47.71935" lon="5.99649">
        <ele>315</ele>
        <time>2010-01-01T00:48:59Z</time>
      </trkpt>
      <trkpt lat="47.71937" lon="5.9965">
        <ele>315</ele>
        <time>2010-01-01T00:48:59Z</time>
      </trkpt>
      <trkpt lat="47.71938" lon="5.9965">
        <ele>316</ele>
        <time>2010-01-01T00:49:00Z</time>
      </trkpt>
      <trkpt lat="47.7194" lon="5.99651">
        <ele>316</ele>
        <time>2010-01-01T00:49:01Z</time>
      </trkpt>
      <trkpt lat="47.71942" lon="5.99651">
        <ele>317</ele>
        <time>2010-01-01T00:49:01Z</time>
      </trkpt>
      <trkpt lat="47.71956" lon="5.99655">
        <ele>317</ele>
        <time>2010-01-01T00:49:07Z</time>
      </trkpt>
      <trkpt lat="47.71969" lon="5.99657">
        <ele>317</ele>
        <time>2010-01-01T00:49:12Z</time>
      </trkpt>
      <trkpt lat="47.71986" lon="5.99659">
        <ele>317</ele>
        <time>2010-01-01T00:49:19Z</time>
      </trkpt>
      <trkpt lat="47.72" lon="5.99662">
        <ele>317</ele>
        <time>2010-01-01T00:49:25Z</time>
      </trkpt>
      <trkpt lat="47.72012" lon="5.99664">
        <ele>317</ele>
        <time>2010-01-01T00:49:30Z</time>
      </trkpt>
      <trkpt lat="47.7203" lon="5.99669">
        <ele>317</ele>
        <time>2010-01-01T00:49:37Z</time>
      </trkpt>
      <trkpt lat="47.72048" lon="5.99671">
        <ele>317</ele>
        <time>2010-01-01T00:49:44Z</time>
      </trkpt>
      <trkpt lat="47.7205" lon="5.99671">
        <ele>318</ele>
        <time>2010-01-01T00:49:45Z</time>
      </trkpt>
      <trkpt lat="47.72052" lon="5.99671">
        <ele>318</ele>
        <time>2010-01-01T00:49:46Z</time>
      </trkpt>
      <trkpt lat="47.72053" lon="5.99671">
        <ele>318</ele>
        <time>2010-01-01T00:49:46Z</time>
      </trkpt>
      <trkpt lat="47.72055" lon="5.99671">
        <ele>319</ele>
        <time>2010-01-01T00:49:47Z</time>
      </trkpt>
      <trkpt lat="47.72063" lon="5.99673">
        <ele>319</ele>
        <time>2010-01-01T00:49:50Z</time>
      </trkpt>
      <trkpt lat="47.72081" lon="5.99677">
        <ele>319</ele>
        <time>2010-01-01T00:49:57Z</time>
      </trkpt>
      <trkpt lat="47.72096" lon="5.99682">
        <ele>319</ele>
        <time>2010-01-01T00:50:04Z</time>
      </trkpt>
      <trkpt lat="47.72113" lon="5.99684">
        <ele>319</ele>
        <time>2010-01-01T00:50:11Z</time>
      </trkpt>
      <trkpt lat="47.72128" lon="5.99685">
        <ele>319</ele>
        <time>2010-01-01T00:50:17Z</time>
      </trkpt>
      <trkpt lat="47.72146" lon="5.99689">
        <ele>319</ele>
        <time>2010-01-01T00:50:24Z</time>
      </trkpt>
      <trkpt lat="47.72163" lon="5.99694">
        <ele>319</ele>
        <time>2010-01-01T00:50:31Z</time>
      </trkpt>
      <trkpt lat="47.72183" lon="5.997">
        <ele>319</ele>
        <time>2010-01-01T00:50:39Z</time>
      </trkpt>
      <trkpt lat="47.7221" lon="5.99704">
        <ele>319</ele>
        <time>2010-01-01T00:50:50Z</time>
      </trkpt>
      <trkpt lat="47.72225" lon="5.99705">
        <ele>318</ele>
        <time>2010-01-01T00:50:56Z</time>
      </trkpt>
      <trkpt lat="47.72228" lon="5.99705">
        <ele>318</ele>
        <time>2010-01-01T00:50:57Z</time>
      </trkpt>
      <trkpt lat="47.72231" lon="5.99705">
        <ele>317</ele>
        <time>2010-01-01T00:50:58Z</time>
      </trkpt>
      <trkpt lat="47.72233" lon="5.99705">
        <ele>317</ele>
        <time>2010-01-01T00:50:59Z</time>
      </trkpt>
      <trkpt lat="47.72235" lon="5.99705">
        <ele>317</ele>
        <time>2010-01-01T00:51:00Z</time>
      </trkpt>
      <trkpt lat="47.72247" lon="5.99701">
        <ele>317</ele>
        <time>2010-01-01T00:51:05Z</time>
      </trkpt>
      <trkpt lat="47.72249" lon="5.99699">
        <ele>316</ele>
        <time>2010-01-01T00:51:06Z</time>
      </trkpt>
      <trkpt lat="47.72252" lon="5.99698">
        <ele>316</ele>
        <time>2010-01-01T00:51:07Z</time>
      </trkpt>
      <trkpt lat="47.72254" lon="5.99698">
        <ele>315</ele>
        <time>2010-01-01T00:51:07Z</time>
      </trkpt>
      <trkpt lat="47.72256" lon="5.99697">
        <ele>315</ele>
        <time>2010-01-01T00:51:08Z</time>
      </trkpt>
      <trkpt lat="47.72258" lon="5.99696">
        <ele>315</ele>
        <time>2010-01-01T00:51:09Z</time>
      </trkpt>
      <trkpt lat="47.7226" lon="5.99695">
        <ele>315</ele>
        <time>2010-01-01T00:51:10Z</time>
      </trkpt>
      <trkpt lat="47.72275" lon="5.99692">
        <ele>314</ele>
        <time>2010-01-01T00:51:16Z</time>
      </trkpt>
      <trkpt lat="47.72277" lon="5.99691">
        <ele>314</ele>
        <time>2010-01-01T00:51:17Z</time>
      </trkpt>
      <trkpt lat="47.72279" lon="5.9969">
        <ele>313</ele>
        <time>2010-01-01T00:51:18Z</time>
      </trkpt>
      <trkpt lat="47.72282" lon="5.99688">
        <ele>313</ele>
        <time>2010-01-01T00:51:19Z</time>
      </trkpt>
      <trkpt lat="47.72284" lon="5.99686">
        <ele>313</ele>
        <time>2010-01-01T00:51:20Z</time>
      </trkpt>
      <trkpt lat="47.72291" lon="5.99683">
        <ele>313</ele>
        <time>2010-01-01T00:51:23Z</time>
      </trkpt>
      <trkpt lat="47.72304" lon="5.99677">
        <ele>313</ele>
        <time>2010-01-01T00:51:29Z</time>
      </trkpt>
      <trkpt lat="47.72321" lon="5.99668">
        <ele>313</ele>
        <time>2010-01-01T00:51:36Z</time>
      </trkpt>
      <trkpt lat="47.72346" lon="5.9966">
        <ele>313</ele>
        <time>2010-01-01T00:51:46Z</time>
      </trkpt>
      <trkpt lat="47.72364" lon="5.99647">
        <ele>313</ele>
        <time>2010-01-01T00:51:54Z</time>
      </trkpt>
      <trkpt lat="47.72371" lon="5.99641">
        <ele>312</ele>
        <time>2010-01-01T00:51:57Z</time>
      </trkpt>
      <trkpt lat="47.72374" lon="5.99637">
        <ele>311</ele>
        <time>2010-01-01T00:51:59Z</time>
      </trkpt>
      <trkpt lat="47.72377" lon="5.99633">
        <ele>311</ele>
        <time>2010-01-01T00:52:01Z</time>
      </trkpt>
      <trkpt lat="47.72381" lon="5.99629">
        <ele>310</ele>
        <time>2010-01-01T00:52:02Z</time>
      </trkpt>
      <trkpt lat="47.72391" lon="5.99626">
        <ele>310</ele>
        <time>2010-01-01T00:52:06Z</time>
      </trkpt>
      <trkpt lat="47.72397" lon="5.99626">
        <ele>310</ele>
        <time>2010-01-01T00:52:09Z</time>
      </trkpt>
      <trkpt lat="47.72399" lon="5.99625">
        <ele>310</ele>
        <time>2010-01-01T00:52:10Z</time>
      </trkpt>
      <trkpt lat="47.72402" lon="5.99625">
        <ele>309</ele>
        <time>2010-01-01T00:52:11Z</time>
      </trkpt>
      <trkpt lat="47.72404" lon="5.99624">
        <ele>309</ele>
        <time>2010-01-01T00:52:12Z</time>
      </trkpt>
      <trkpt lat="47.72406" lon="5.99623">
        <ele>308</ele>
        <time>2010-01-01T00:52:13Z</time>
      </trkpt>
      <trkpt lat="47.72423" lon="5.99621">
        <ele>308</ele>
        <time>2010-01-01T00:52:19Z</time>
      </trkpt>
      <trkpt lat="47.72445" lon="5.99621">
        <ele>308</ele>
        <time>2010-01-01T00:52:28Z</time>
      </trkpt>
      <trkpt lat="47.72458" lon="5.99624">
        <ele>308</ele>
        <time>2010-01-01T00:52:34Z</time>
      </trkpt>
      <trkpt lat="47.72465" lon="5.99624">
        <ele>308</ele>
        <time>2010-01-01T00:52:36Z</time>
      </trkpt>
      <trkpt lat="47.72466" lon="5.99624">
        <ele>308</ele>
        <time>2010-01-01T00:52:37Z</time>
      </trkpt>
      <trkpt lat="47.72469" lon="5.99627">
        <ele>308</ele>
        <time>2010-01-01T00:52:38Z</time>
      </trkpt>
      <trkpt lat="47.72472" lon="5.99628">
        <ele>308</ele>
        <time>2010-01-01T00:52:39Z</time>
      </trkpt>
      <trkpt lat="47.72483" lon="5.99635">
        <ele>308</ele>
        <time>2010-01-01T00:52:44Z</time>
      </trkpt>
      <trkpt lat="47.72501" lon="5.99645">
        <ele>308</ele>
        <time>2010-01-01T00:52:52Z</time>
      </trkpt>
      <trkpt lat="47.72514" lon="5.99653">
        <ele>308</ele>
        <time>2010-01-01T00:52:57Z</time>
      </trkpt>
      <trkpt lat="47.7253" lon="5.99665">
        <ele>308</ele>
        <time>2010-01-01T00:53:05Z</time>
      </trkpt>
      <trkpt lat="47.72549" lon="5.99679">
        <ele>308</ele>
        <time>2010-01-01T00:53:13Z</time>
      </trkpt>
      <trkpt lat="47.72566" lon="5.99693">
        <ele>308</ele>
        <time>2010-01-01T00:53:21Z</time>
      </trkpt>
      <trkpt lat="47.72581" lon="5.99705">
        <ele>308</ele>
        <time>2010-01-01T00:53:28Z</time>
      </trkpt>
      <trkpt lat="47.72599" lon="5.99718">
        <ele>308</ele>
        <time>2010-01-01T00:53:36Z</time>
      </trkpt>
      <trkpt lat="47.72618" lon="5.99731">
        <ele>308</ele>
        <time>2010-01-01T00:53:44Z</time>
      </trkpt>
      <trkpt lat="47.72632" lon="5.99746">
        <ele>308</ele>
        <time>2010-01-01T00:53:51Z</time>
      </trkpt>
      <trkpt lat="47.72646" lon="5.99761">
        <ele>308</ele>
        <time>2010-01-01T00:53:58Z</time>
      </trkpt>
      <trkpt lat="47.72669" lon="5.99775">
        <ele>308</ele>
        <time>2010-01-01T00:54:08Z</time>
      </trkpt>
      <trkpt lat="47.7269" lon="5.9979">
        <ele>308</ele>
        <time>2010-01-01T00:54:17Z</time>
      </trkpt>
      <trkpt lat="47.72709" lon="5.99803">
        <ele>308</ele>
        <time>2010-01-01T00:54:25Z</time>
      </trkpt>
      <trkpt lat="47.72731" lon="5.99822">
        <ele>308</ele>
        <time>2010-01-01T00:54:36Z</time>
      </trkpt>
      <trkpt lat="47.72733" lon="5.99824">
        <ele>308</ele>
        <time>2010-01-01T00:54:37Z</time>
      </trkpt>
      <trkpt lat="47.72736" lon="5.99826">
        <ele>307</ele>
        <time>2010-01-01T00:54:38Z</time>
      </trkpt>
      <trkpt lat="47.72738" lon="5.99827">
        <ele>307</ele>
        <time>2010-01-01T00:54:39Z</time>
      </trkpt>
      <trkpt lat="47.7274" lon="5.99828">
        <ele>306</ele>
        <time>2010-01-01T00:54:40Z</time>
      </trkpt>
      <trkpt lat="47.72745" lon="5.99833">
        <ele>306</ele>
        <time>2010-01-01T00:54:42Z</time>
      </trkpt>
      <trkpt lat="47.72747" lon="5.99834">
        <ele>306</ele>
        <time>2010-01-01T00:54:43Z</time>
      </trkpt>
      <trkpt lat="47.72749" lon="5.99836">
        <ele>305</ele>
        <time>2010-01-01T00:54:44Z</time>
      </trkpt>
      <trkpt lat="47.72751" lon="5.99838">
        <ele>305</ele>
        <time>2010-01-01T00:54:45Z</time>
      </trkpt>
      <trkpt lat="47.72753" lon="5.99839">
        <ele>305</ele>
        <time>2010-01-01T00:54:46Z</time>
      </trkpt>
      <trkpt lat="47.72755" lon="5.9984">
        <ele>304</ele>
        <time>2010-01-01T00:54:47Z</time>
      </trkpt>
      <trkpt lat="47.7276" lon="5.9984">
        <ele>304</ele>
        <time>2010-01-01T00:54:49Z</time>
      </trkpt>
      <trkpt lat="47.72775" lon="5.99841">
        <ele>304</ele>
        <time>2010-01-01T00:54:54Z</time>
      </trkpt>
      <trkpt lat="47.72789" lon="5.99833">
        <ele>304</ele>
        <time>2010-01-01T00:55:00Z</time>
      </trkpt>
      <trkpt lat="47.72806" lon="5.99822">
        <ele>304</ele>
        <time>2010-01-01T00:55:08Z</time>
      </trkpt>
      <trkpt lat="47.72821" lon="5.9982">
        <ele>304</ele>
        <time>2010-01-01T00:55:14Z</time>
      </trkpt>
      <trkpt lat="47.72832" lon="5.9982">
        <ele>305</ele>
        <time>2010-01-01T00:55:18Z</time>
      </trkpt>
      <trkpt lat="47.72835" lon="5.9982">
        <ele>305</ele>
        <time>2010-01-01T00:55:19Z</time>
      </trkpt>
      <trkpt lat="47.72837" lon="5.9982">
        <ele>306</ele>
        <time>2010-01-01T00:55:20Z</time>
      </trkpt>
      <trkpt lat="47.7284" lon="5.9982">
        <ele>306</ele>
        <time>2010-01-01T00:55:22Z</time>
      </trkpt>
      <trkpt lat="47.72842" lon="5.9982">
        <ele>306</ele>
        <time>2010-01-01T00:55:22Z</time>
      </trkpt>
      <trkpt lat="47.72855" lon="5.99818">
        <ele>306</ele>
        <time>2010-01-01T00:55:28Z</time>
      </trkpt>
      <trkpt lat="47.72872" lon="5.99813">
        <ele>306</ele>
        <time>2010-01-01T00:55:34Z</time>
      </trkpt>
      <trkpt lat="47.72887" lon="5.99812">
        <ele>306</ele>
        <time>2010-01-01T00:55:41Z</time>
      </trkpt>
      <trkpt lat="47.72911" lon="5.99811">
        <ele>306</ele>
        <time>2010-01-01T00:55:50Z</time>
      </trkpt>
      <trkpt lat="47.72931" lon="5.99812">
        <ele>306</ele>
        <time>2010-01-01T00:55:58Z</time>
      </trkpt>
      <trkpt lat="47.72957" lon="5.99817">
        <ele>306</ele>
        <time>2010-01-01T00:56:09Z</time>
      </trkpt>
      <trkpt lat="47.72981" lon="5.99822">
        <ele>306</ele>
        <time>2010-01-01T00:56:18Z</time>
      </trkpt>
      <trkpt lat="47.72983" lon="5.99824">
        <ele>306</ele>
        <time>2010-01-01T00:56:19Z</time>
      </trkpt>
      <trkpt lat="47.72987" lon="5.99826">
        <ele>306</ele>
        <time>2010-01-01T00:56:21Z</time>
      </trkpt>
      <trkpt lat="47.7299" lon="5.99827">
        <ele>305</ele>
        <time>2010-01-01T00:56:22Z</time>
      </trkpt>
      <trkpt lat="47.72993" lon="5.99828">
        <ele>305</ele>
        <time>2010-01-01T00:56:24Z</time>
      </trkpt>
      <trkpt lat="47.72996" lon="5.99829">
        <ele>304</ele>
        <time>2010-01-01T00:56:25Z</time>
      </trkpt>
      <trkpt lat="47.73016" lon="5.99841">
        <ele>304</ele>
        <time>2010-01-01T00:56:33Z</time>
      </trkpt>
      <trkpt lat="47.73018" lon="5.99844">
        <ele>303</ele>
        <time>2010-01-01T00:56:35Z</time>
      </trkpt>
      <trkpt lat="47.73021" lon="5.99846">
        <ele>303</ele>
        <time>2010-01-01T00:56:36Z</time>
      </trkpt>
      <trkpt lat="47.73024" lon="5.99849">
        <ele>303</ele>
        <time>2010-01-01T00:56:37Z</time>
      </trkpt>
      <trkpt lat="47.73028" lon="5.99853">
        <ele>302</ele>
        <time>2010-01-01T00:56:39Z</time>
      </trkpt>
      <trkpt lat="47.73032" lon="5.99857">
        <ele>302</ele>
        <time>2010-01-01T00:56:41Z</time>
      </trkpt>
      <trkpt lat="47.73036" lon="5.99862">
        <ele>301</ele>
        <time>2010-01-01T00:56:43Z</time>
      </trkpt>
      <trkpt lat="47.7304" lon="5.99866">
        <ele>301</ele>
        <time>2010-01-01T00:56:45Z</time>
      </trkpt>
      <trkpt lat="47.73043" lon="5.9987">
        <ele>301</ele>
        <time>2010-01-01T00:56:47Z</time>
      </trkpt>
      <trkpt lat="47.73046" lon="5.99873">
        <ele>300</ele>
        <time>2010-01-01T00:56:48Z</time>
      </trkpt>
      <trkpt lat="47.73062" lon="5.99889">
        <ele>300</ele>
        <time>2010-01-01T00:56:56Z</time>
      </trkpt>
      <trkpt lat="47.73077" lon="5.99903">
        <ele>300</ele>
        <time>2010-01-01T00:57:03Z</time>
      </trkpt>
      <trkpt lat="47.73092" lon="5.99913">
        <ele>300</ele>
        <time>2010-01-01T00:57:10Z</time>
      </trkpt>
      <trkpt lat="47.7311" lon="5.99923">
        <ele>300</ele>
        <time>2010-01-01T00:57:17Z</time>
      </trkpt>
      <trkpt lat="47.73128" lon="5.99936">
        <ele>300</ele>
        <time>2010-01-01T00:57:25Z</time>
      </trkpt>
      <trkpt lat="47.73136" lon="5.99944">
        <ele>300</ele>
        <time>2010-01-01T00:57:29Z</time>
      </trkpt>
      <trkpt lat="47.73138" lon="5.99945">
        <ele>299</ele>
        <time>2010-01-01T00:57:30Z</time>
      </trkpt>
      <trkpt lat="47.7314" lon="5.99947">
        <ele>299</ele>
        <time>2010-01-01T00:57:31Z</time>
      </trkpt>
      <trkpt lat="47.73142" lon="5.99948">
        <ele>299</ele>
        <time>2010-01-01T00:57:32Z</time>
      </trkpt>
      <trkpt lat="47.73144" lon="5.9995">
        <ele>298</ele>
        <time>2010-01-01T00:57:33Z</time>
      </trkpt>
      <trkpt lat="47.73147" lon="5.99951">
        <ele>298</ele>
        <time>2010-01-01T00:57:34Z</time>
      </trkpt>
      <trkpt lat="47.7315" lon="5.99953">
        <ele>298</ele>
        <time>2010-01-01T00:57:35Z</time>
      </trkpt>
      <trkpt lat="47.73166" lon="5.99967">
        <ele>298</ele>
        <time>2010-01-01T00:57:43Z</time>
      </trkpt>
      <trkpt lat="47.7317" lon="5.9997">
        <ele>298</ele>
        <time>2010-01-01T00:57:44Z</time>
      </trkpt>
      <trkpt lat="47.73173" lon="5.99972">
        <ele>297</ele>
        <time>2010-01-01T00:57:46Z</time>
      </trkpt>
      <trkpt lat="47.73175" lon="5.99974">
        <ele>296</ele>
        <time>2010-01-01T00:57:47Z</time>
      </trkpt>
      <trkpt lat="47.73179" lon="5.99975">
        <ele>296</ele>
        <time>2010-01-01T00:57:48Z</time>
      </trkpt>
      <trkpt lat="47.73184" lon="5.99979">
        <ele>296</ele>
        <time>2010-01-01T00:57:51Z</time>
      </trkpt>
      <trkpt lat="47.73186" lon="5.9998">
        <ele>296</ele>
        <time>2010-01-01T00:57:51Z</time>
      </trkpt>
      <trkpt lat="47.73189" lon="5.99981">
        <ele>295</ele>
        <time>2010-01-01T00:57:53Z</time>
      </trkpt>
      <trkpt lat="47.73192" lon="5.99982">
        <ele>295</ele>
        <time>2010-01-01T00:57:54Z</time>
      </trkpt>
      <trkpt lat="47.73194" lon="5.99981">
        <ele>294</ele>
        <time>2010-01-01T00:57:55Z</time>
      </trkpt>
      <trkpt lat="47.73196" lon="5.99982">
        <ele>294</ele>
        <time>2010-01-01T00:57:55Z</time>
      </trkpt>
      <trkpt lat="47.732" lon="5.99985">
        <ele>294</ele>
        <time>2010-01-01T00:57:57Z</time>
      </trkpt>
      <trkpt lat="47.73205" lon="5.99988">
        <ele>294</ele>
        <time>2010-01-01T00:58:00Z</time>
      </trkpt>
      <trkpt lat="47.73208" lon="5.99989">
        <ele>293</ele>
        <time>2010-01-01T00:58:01Z</time>
      </trkpt>
      <trkpt lat="47.73212" lon="5.9999">
        <ele>293</ele>
        <time>2010-01-01T00:58:02Z</time>
      </trkpt>
      <trkpt lat="47.73215" lon="5.99991">
        <ele>292</ele>
        <time>2010-01-01T00:58:04Z</time>
      </trkpt>
      <trkpt lat="47.73219" lon="5.99992">
        <ele>292</ele>
        <time>2010-01-01T00:58:05Z</time>
      </trkpt>
      <trkpt lat="47.73238" lon="5.99993">
        <ele>291</ele>
        <time>2010-01-01T00:58:13Z</time>
      </trkpt>
      <trkpt lat="47.73243" lon="5.99993">
        <ele>291</ele>
        <time>2010-01-01T00:58:15Z</time>
      </trkpt>
      <trkpt lat="47.73248" lon="5.99993">
        <ele>290</ele>
        <time>2010-01-01T00:58:17Z</time>
      </trkpt>
      <trkpt lat="47.73252" lon="5.99993">
        <ele>290</ele>
        <time>2010-01-01T00:58:19Z</time>
      </trkpt>
      <trkpt lat="47.73257" lon="5.99994">
        <ele>290</ele>
        <time>2010-01-01T00:58:20Z</time>
      </trkpt>
      <trkpt lat="47.73281" lon="5.99995">
        <ele>290</ele>
        <time>2010-01-01T00:58:30Z</time>
      </trkpt>
      <trkpt lat="47.73286" lon="5.99995">
        <ele>289</ele>
        <time>2010-01-01T00:58:32Z</time>
      </trkpt>
      <trkpt lat="47.73291" lon="5.99996">
        <ele>289</ele>
        <time>2010-01-01T00:58:34Z</time>
      </trkpt>
      <trkpt lat="47.73295" lon="5.99997">
        <ele>288</ele>
        <time>2010-01-01T00:58:36Z</time>
      </trkpt>
      <trkpt lat="47.733" lon="5.99999">
        <ele>288</ele>
        <time>2010-01-01T00:58:38Z</time>
      </trkpt>
      <trkpt lat="47.73304" lon="6">
        <ele>287</ele>
        <time>2010-01-01T00:58:39Z</time>
      </trkpt>
      <trkpt lat="47.73311" lon="6.00002">
        <ele>287</ele>
        <time>2010-01-01T00:58:42Z</time>
      </trkpt>
      <trkpt lat="47.73333" lon="6.00006">
        <ele>287</ele>
        <time>2010-01-01T00:58:51Z</time>
      </trkpt>
      <trkpt lat="47.73351" lon="6.00017">
        <ele>287</ele>
        <time>2010-01-01T00:58:59Z</time>
      </trkpt>
      <trkpt lat="47.73368" lon="6.00027">
        <ele>287</ele>
        <time>2010-01-01T00:59:06Z</time>
      </trkpt>
      <trkpt lat="47.7337" lon="6.00028">
        <ele>287</ele>
        <time>2010-01-01T00:59:07Z</time>
      </trkpt>
      <trkpt lat="47.73372" lon="6.00028">
        <ele>286</ele>
        <time>2010-01-01T00:59:08Z</time>
      </trkpt>
      <trkpt lat="47.73373" lon="6.00028">
        <ele>286</ele>
        <time>2010-01-01T00:59:08Z</time>
      </trkpt>
      <trkpt lat="47.73375" lon="6.00028">
        <ele>285</ele>
        <time>2010-01-01T00:59:09Z</time>
      </trkpt>
      <trkpt lat="47.73382" lon="6.00028">
        <ele>285</ele>
        <time>2010-01-01T00:59:12Z</time>
      </trkpt>
      <trkpt lat="47.73385" lon="6.00026">
        <ele>285</ele>
        <time>2010-01-01T00:59:13Z</time>
      </trkpt>
      <trkpt lat="47.73387" lon="6.00023">
        <ele>285</ele>
        <time>2010-01-01T00:59:14Z</time>
      </trkpt>
      <trkpt lat="47.73389" lon="6.00021">
        <ele>284</ele>
        <time>2010-01-01T00:59:15Z</time>
      </trkpt>
      <trkpt lat="47.73391" lon="6.00021">
        <ele>284</ele>
        <time>2010-01-01T00:59:16Z</time>
      </trkpt>
      <trkpt lat="47.73393" lon="6.00021">
        <ele>283</ele>
        <time>2010-01-01T00:59:17Z</time>
      </trkpt>
      <trkpt lat="47.73398" lon="6.00021">
        <ele>283</ele>
        <time>2010-01-01T00:59:19Z</time>
      </trkpt>
      <trkpt lat="47.734" lon="6.00018">
        <ele>283</ele>
        <time>2010-01-01T00:59:20Z</time>
      </trkpt>
      <trkpt lat="47.73412" lon="6.00019">
        <ele>283</ele>
        <time>2010-01-01T00:59:25Z</time>
      </trkpt>
      <trkpt lat="47.73434" lon="6.00021">
        <ele>283</ele>
        <time>2010-01-01T00:59:34Z</time>
      </trkpt>
      <trkpt lat="47.73437" lon="6.00021">
        <ele>283</ele>
        <time>2010-01-01T00:59:35Z</time>
      </trkpt>
      <trkpt lat="47.73439" lon="6.00022">
        <ele>282</ele>
        <time>2010-01-01T00:59:36Z</time>
      </trkpt>
      <trkpt lat="47.73442" lon="6.00022">
        <ele>281</ele>
        <time>2010-01-01T00:59:37Z</time>
      </trkpt>
      <trkpt lat="47.73444" lon="6.00022">
        <ele>282</ele>
        <time>2010-01-01T00:59:38Z</time>
      </trkpt>
      <trkpt lat="47.73447" lon="6.00022">
        <ele>282</ele>
        <time>2010-01-01T00:59:39Z</time>
      </trkpt>
      <trkpt lat="47.73449" lon="6.00023">
        <ele>282</ele>
        <time>2010-01-01T00:59:39Z</time>
      </trkpt>
      <trkpt lat="47.73451" lon="6.00023">
        <ele>283</ele>
        <time>2010-01-01T00:59:40Z</time>
      </trkpt>
      <trkpt lat="47.73453" lon="6.00024">
        <ele>283</ele>
        <time>2010-01-01T00:59:41Z</time>
      </trkpt>
      <trkpt lat="47.73458" lon="6.00026">
        <ele>283</ele>
        <time>2010-01-01T00:59:43Z</time>
      </trkpt>
      <trkpt lat="47.73482" lon="6.0003">
        <ele>283</ele>
        <time>2010-01-01T00:59:53Z</time>
      </trkpt>
      <trkpt lat="47.7351" lon="6.00036">
        <ele>283</ele>
        <time>2010-01-01T01:00:04Z</time>
      </trkpt>
      <trkpt lat="47.73526" lon="6.0005">
        <ele>283</ele>
        <time>2010-01-01T01:00:12Z</time>
      </trkpt>
      <trkpt lat="47.7353" lon="6.00071">
        <ele>283</ele>
        <time>2010-01-01T01:00:17Z</time>
      </trkpt>
      <trkpt lat="47.73534" lon="6.001">
        <ele>283</ele>
        <time>2010-01-01T01:00:26Z</time>
      </trkpt>
      <trkpt lat="47.73537" lon="6.00112">
        <ele>283</ele>
        <time>2010-01-01T01:00:29Z</time>
      </trkpt>
      <trkpt lat="47.73539" lon="6.00118">
        <ele>283</ele>
        <time>2010-01-01T01:00:31Z</time>
      </trkpt>
      <trkpt lat="47.73548" lon="6.00132">
        <ele>283</ele>
        <time>2010-01-01T01:00:36Z</time>
      </trkpt>
      <trkpt lat="47.73555" lon="6.0014">
        <ele>283</ele>
        <time>2010-01-01T01:00:40Z</time>
      </trkpt>
      <trkpt lat="47.73566" lon="6.00148">
        <ele>283</ele>
        <time>2010-01-01T01:00:44Z</time>
      </trkpt>
      <trkpt lat="47.73569" lon="6.0015">
        <ele>283</ele>
        <time>2010-01-01T01:00:46Z</time>
      </trkpt>
      <trkpt lat="47.73571" lon="6.00151">
        <ele>282</ele>
        <time>2010-01-01T01:00:47Z</time>
      </trkpt>
      <trkpt lat="47.73574" lon="6.00152">
        <ele>282</ele>
        <time>2010-01-01T01:00:48Z</time>
      </trkpt>
      <trkpt lat="47.73577" lon="6.00154">
        <ele>281</ele>
        <time>2010-01-01T01:00:49Z</time>
      </trkpt>
      <trkpt lat="47.7358" lon="6.00156">
        <ele>281</ele>
        <time>2010-01-01T01:00:51Z</time>
      </trkpt>
      <trkpt lat="47.73586" lon="6.0016">
        <ele>281</ele>
        <time>2010-01-01T01:00:53Z</time>
      </trkpt>
      <trkpt lat="47.73605" lon="6.00175">
        <ele>280</ele>
        <time>2010-01-01T01:01:02Z</time>
      </trkpt>
      <trkpt lat="47.73609" lon="6.00178">
        <ele>279</ele>
        <time>2010-01-01T01:01:04Z</time>
      </trkpt>
      <trkpt lat="47.73612" lon="6.00182">
        <ele>279</ele>
        <time>2010-01-01T01:01:05Z</time>
      </trkpt>
      <trkpt lat="47.73616" lon="6.00184">
        <ele>279</ele>
        <time>2010-01-01T01:01:07Z</time>
      </trkpt>
      <trkpt lat="47.73628" lon="6.00197">
        <ele>279</ele>
        <time>2010-01-01T01:01:13Z</time>
      </trkpt>
      <trkpt lat="47.73637" lon="6.00206">
        <ele>278</ele>
        <time>2010-01-01T01:01:17Z</time>
      </trkpt>
      <trkpt lat="47.7364" lon="6.00208">
        <ele>278</ele>
        <time>2010-01-01T01:01:18Z</time>
      </trkpt>
      <trkpt lat="47.73643" lon="6.0021">
        <ele>277</ele>
        <time>2010-01-01T01:01:20Z</time>
      </trkpt>
      <trkpt lat="47.73645" lon="6.00213">
        <ele>277</ele>
        <time>2010-01-01T01:01:21Z</time>
      </trkpt>
      <trkpt lat="47.73648" lon="6.00214">
        <ele>277</ele>
        <time>2010-01-01T01:01:22Z</time>
      </trkpt>
      <trkpt lat="47.73649" lon="6.00216">
        <ele>276</ele>
        <time>2010-01-01T01:01:23Z</time>
      </trkpt>
      <trkpt lat="47.73651" lon="6.00217">
        <ele>276</ele>
        <time>2010-01-01T01:01:23Z</time>
      </trkpt>
      <trkpt lat="47.73652" lon="6.00217">
        <ele>275</ele>
        <time>2010-01-01T01:01:24Z</time>
      </trkpt>
      <trkpt lat="47.73653" lon="6.00219">
        <ele>275</ele>
        <time>2010-01-01T01:01:24Z</time>
      </trkpt>
      <trkpt lat="47.73653" lon="6.00221">
        <ele>274</ele>
        <time>2010-01-01T01:01:25Z</time>
      </trkpt>
      <trkpt lat="47.7365" lon="6.00228">
        <ele>274</ele>
        <time>2010-01-01T01:01:27Z</time>
      </trkpt>
      <trkpt lat="47.73646" lon="6.00235">
        <ele>274</ele>
        <time>2010-01-01T01:01:30Z</time>
      </trkpt>
      <trkpt lat="47.73641" lon="6.00245">
        <ele>274</ele>
        <time>2010-01-01T01:01:33Z</time>
      </trkpt>
      <trkpt lat="47.73638" lon="6.0025">
        <ele>274</ele>
        <time>2010-01-01T01:01:35Z</time>
      </trkpt>
      <trkpt lat="47.73635" lon="6.00255">
        <ele>273</ele>
        <time>2010-01-01T01:01:37Z</time>
      </trkpt>
      <trkpt lat="47.73632" lon="6.0026">
        <ele>273</ele>
        <time>2010-01-01T01:01:39Z</time>
      </trkpt>
      <trkpt lat="47.73628" lon="6.00265">
        <ele>272</ele>
        <time>2010-01-01T01:01:41Z</time>
      </trkpt>
      <trkpt lat="47.73617" lon="6.00281">
        <ele>272</ele>
        <time>2010-01-01T01:01:47Z</time>
      </trkpt>
      <trkpt lat="47.73614" lon="6.00283">
        <ele>272</ele>
        <time>2010-01-01T01:01:48Z</time>
      </trkpt>
      <trkpt lat="47.73611" lon="6.00285">
        <ele>271</ele>
        <time>2010-01-01T01:01:49Z</time>
      </trkpt>
      <trkpt lat="47.73609" lon="6.00286">
        <ele>271</ele>
        <time>2010-01-01T01:01:50Z</time>
      </trkpt>
      <trkpt lat="47.73607" lon="6.00288">
        <ele>270</ele>
        <time>2010-01-01T01:01:51Z</time>
      </trkpt>
      <trkpt lat="47.73605" lon="6.00288">
        <ele>270</ele>
        <time>2010-01-01T01:01:52Z</time>
      </trkpt>
      <trkpt lat="47.73598" lon="6.00291">
        <ele>270</ele>
        <time>2010-01-01T01:01:55Z</time>
      </trkpt>
      <trkpt lat="47.73597" lon="6.00294">
        <ele>270</ele>
        <time>2010-01-01T01:01:56Z</time>
      </trkpt>
      <trkpt lat="47.73599" lon="6.00295">
        <ele>270</ele>
        <time>2010-01-01T01:01:56Z</time>
      </trkpt>
      <trkpt lat="47.736" lon="6.00295">
        <ele>270</ele>
        <time>2010-01-01T01:01:57Z</time>
      </trkpt>
      <trkpt lat="47.736" lon="6.00295">
        <ele>270</ele>
        <time>2010-01-01T01:01:57Z</time>
      </trkpt>
      <trkpt lat="47.73601" lon="6.00292">
        <ele>270</ele>
        <time>2010-01-01T01:01:57Z</time>
      </trkpt>
      <trkpt lat="47.736" lon="6.00291">
        <ele>270</ele>
        <time>2010-01-01T01:01:58Z</time>
      </trkpt>
      <trkpt lat="47.73593" lon="6.00294">
        <ele>270</ele>
        <time>2010-01-01T01:02:01Z</time>
      </trkpt>
      <trkpt lat="47.73589" lon="6.00295">
        <ele>270</ele>
        <time>2010-01-01T01:02:03Z</time>
      </trkpt>
      <trkpt lat="47.73583" lon="6.00296">
        <ele>270</ele>
        <time>2010-01-01T01:02:05Z</time>
      </trkpt>
      <trkpt lat="47.73578" lon="6.00296">
        <ele>270</ele>
        <time>2010-01-01T01:02:07Z</time>
      </trkpt>
      <trkpt lat="47.73577" lon="6.00293">
        <ele>270</ele>
        <time>2010-01-01T01:02:08Z</time>
      </trkpt>
      <trkpt lat="47.73573" lon="6.00292">
        <ele>270</ele>
        <time>2010-01-01T01:02:09Z</time>
      </trkpt>
      <trkpt lat="47.73572" lon="6.00293">
        <ele>270</ele>
        <time>2010-01-01T01:02:10Z</time>
      </trkpt>
      <trkpt lat="47.73562" lon="6.00296">
        <ele>270</ele>
        <time>2010-01-01T01:02:14Z</time>
      </trkpt>
      <trkpt lat="47.73544" lon="6.00296">
        <ele>270</ele>
        <time>2010-01-01T01:02:21Z</time>
      </trkpt>
      <trkpt lat="47.73526" lon="6.00307">
        <ele>270</ele>
        <time>2010-01-01T01:02:29Z</time>
      </trkpt>
      <trkpt lat="47.73519" lon="6.00322">
        <ele>270</ele>
        <time>2010-01-01T01:02:34Z</time>
      </trkpt>
      <trkpt lat="47.73517" lon="6.00328">
        <ele>270</ele>
        <time>2010-01-01T01:02:35Z</time>
      </trkpt>
      <trkpt lat="47.73515" lon="6.00335">
        <ele>269</ele>
        <time>2010-01-01T01:02:38Z</time>
      </trkpt>
      <trkpt lat="47.73514" lon="6.00343">
        <ele>269</ele>
        <time>2010-01-01T01:02:40Z</time>
      </trkpt>
      <trkpt lat="47.73512" lon="6.00351">
        <ele>269</ele>
        <time>2010-01-01T01:02:42Z</time>
      </trkpt>
      <trkpt lat="47.73511" lon="6.0036">
        <ele>268</ele>
        <time>2010-01-01T01:02:44Z</time>
      </trkpt>
      <trkpt lat="47.73508" lon="6.00386">
        <ele>268</ele>
        <time>2010-01-01T01:02:52Z</time>
      </trkpt>
      <trkpt lat="47.73502" lon="6.00441">
        <ele>268</ele>
        <time>2010-01-01T01:03:07Z</time>
      </trkpt>
      <trkpt lat="47.73501" lon="6.0045">
        <ele>267</ele>
        <time>2010-01-01T01:03:09Z</time>
      </trkpt>
      <trkpt lat="47.735" lon="6.0046">
        <ele>267</ele>
        <time>2010-01-01T01:03:12Z</time>
      </trkpt>
      <trkpt lat="47.73498" lon="6.00469">
        <ele>266</ele>
        <time>2010-01-01T01:03:14Z</time>
      </trkpt>
      <trkpt lat="47.73496" lon="6.00478">
        <ele>266</ele>
        <time>2010-01-01T01:03:17Z</time>
      </trkpt>
      <trkpt lat="47.7349" lon="6.00509">
        <ele>266</ele>
        <time>2010-01-01T01:03:25Z</time>
      </trkpt>
      <trkpt lat="47.73488" lon="6.00519">
        <ele>265</ele>
        <time>2010-01-01T01:03:28Z</time>
      </trkpt>
      <trkpt lat="47.73486" lon="6.0053">
        <ele>265</ele>
        <time>2010-01-01T01:03:31Z</time>
      </trkpt>
      <trkpt lat="47.73484" lon="6.00541">
        <ele>264</ele>
        <time>2010-01-01T01:03:34Z</time>
      </trkpt>
      <trkpt lat="47.73483" lon="6.00553">
        <ele>264</ele>
        <time>2010-01-01T01:03:37Z</time>
      </trkpt>
      <trkpt lat="47.73482" lon="6.00588">
        <ele>264</ele>
        <time>2010-01-01T01:03:47Z</time>
      </trkpt>
      <trkpt lat="47.73481" lon="6.006">
        <ele>263</ele>
        <time>2010-01-01T01:03:50Z</time>
      </trkpt>
      <trkpt lat="47.73481" lon="6.00611">
        <ele>263</ele>
        <time>2010-01-01T01:03:53Z</time>
      </trkpt>
      <trkpt lat="47.73479" lon="6.00622">
        <ele>262</ele>
        <time>2010-01-01T01:03:56Z</time>
      </trkpt>
      <trkpt lat="47.73477" lon="6.00633">
        <ele>262</ele>
        <time>2010-01-01T01:03:59Z</time>
      </trkpt>
      <trkpt lat="47.73476" lon="6.00644">
        <ele>262</ele>
        <time>2010-01-01T01:04:02Z</time>
      </trkpt>
      <trkpt lat="47.73469" lon="6.00705">
        <ele>261</ele>
        <time>2010-01-01T01:04:19Z</time>
      </trkpt>
      <trkpt lat="47.73468" lon="6.00714">
        <ele>260</ele>
        <time>2010-01-01T01:04:22Z</time>
      </trkpt>
      <trkpt lat="47.73467" lon="6.00723">
        <ele>260</ele>
        <time>2010-01-01T01:04:24Z</time>
      </trkpt>
      <trkpt lat="47.73466" lon="6.00732">
        <ele>259</ele>
        <time>2010-01-01T01:04:26Z</time>
      </trkpt>
      <trkpt lat="47.73461" lon="6.00771">
        <ele>259</ele>
        <time>2010-01-01T01:04:37Z</time>
      </trkpt>
      <trkpt lat="47.7346" lon="6.00778">
        <ele>259</ele>
        <time>2010-01-01T01:04:39Z</time>
      </trkpt>
      <trkpt lat="47.73447" lon="6.00832">
        <ele>259</ele>
        <time>2010-01-01T01:04:54Z</time>
      </trkpt>
      <trkpt lat="47.73436" lon="6.00879">
        <ele>259</ele>
        <time>2010-01-01T01:05:08Z</time>
      </trkpt>
      <trkpt lat="47.73435" lon="6.00884">
        <ele>259</ele>
        <time>2010-01-01T01:05:09Z</time>
      </trkpt>
      <trkpt lat="47.73433" lon="6.00888">
        <ele>258</ele>
        <time>2010-01-01T01:05:11Z</time>
      </trkpt>
      <trkpt lat="47.7343" lon="6.00893">
        <ele>258</ele>
        <time>2010-01-01T01:05:12Z</time>
      </trkpt>
      <trkpt lat="47.73427" lon="6.00897">
        <ele>257</ele>
        <time>2010-01-01T01:05:14Z</time>
      </trkpt>
      <trkpt lat="47.73425" lon="6.00902">
        <ele>257</ele>
        <time>2010-01-01T01:05:16Z</time>
      </trkpt>
      <trkpt lat="47.73423" lon="6.00907">
        <ele>257</ele>
        <time>2010-01-01T01:05:17Z</time>
      </trkpt>
      <trkpt lat="47.7342" lon="6.00912">
        <ele>257</ele>
        <time>2010-01-01T01:05:19Z</time>
      </trkpt>
      <trkpt lat="47.73413" lon="6.00932">
        <ele>257</ele>
        <time>2010-01-01T01:05:25Z</time>
      </trkpt>
      <trkpt lat="47.73403" lon="6.00963">
        <ele>257</ele>
        <time>2010-01-01T01:05:34Z</time>
      </trkpt>
      <trkpt lat="47.73388" lon="6.01008">
        <ele>257</ele>
        <time>2010-01-01T01:05:48Z</time>
      </trkpt>
      <trkpt lat="47.73368" lon="6.01062">
        <ele>257</ele>
        <time>2010-01-01T01:06:04Z</time>
      </trkpt>
      <trkpt lat="47.73344" lon="6.01122">
        <ele>257</ele>
        <time>2010-01-01T01:06:23Z</time>
      </trkpt>
      <trkpt lat="47.73342" lon="6.01129">
        <ele>257</ele>
        <time>2010-01-01T01:06:25Z</time>
      </trkpt>
      <trkpt lat="47.73335" lon="6.01159">
        <ele>257</ele>
        <time>2010-01-01T01:06:34Z</time>
      </trkpt>
      <trkpt lat="47.73335" lon="6.01195">
        <ele>257</ele>
        <time>2010-01-01T01:06:43Z</time>
      </trkpt>
      <trkpt lat="47.73335" lon="6.012">
        <ele>258</ele>
        <time>2010-01-01T01:06:45Z</time>
      </trkpt>
      <trkpt lat="47.73336" lon="6.01205">
        <ele>258</ele>
        <time>2010-01-01T01:06:46Z</time>
      </trkpt>
      <trkpt lat="47.73337" lon="6.0121">
        <ele>259</ele>
        <time>2010-01-01T01:06:48Z</time>
      </trkpt>
      <trkpt lat="47.73338" lon="6.01215">
        <ele>259</ele>
        <time>2010-01-01T01:06:49Z</time>
      </trkpt>
      <trkpt lat="47.73339" lon="6.0122">
        <ele>260</ele>
        <time>2010-01-01T01:06:50Z</time>
      </trkpt>
      <trkpt lat="47.7334" lon="6.0123">
        <ele>260</ele>
        <time>2010-01-01T01:06:53Z</time>
      </trkpt>
      <trkpt lat="47.73348" lon="6.01272">
        <ele>260</ele>
        <time>2010-01-01T01:07:05Z</time>
      </trkpt>
      <trkpt lat="47.73351" lon="6.01287">
        <ele>260</ele>
        <time>2010-01-01T01:07:09Z</time>
      </trkpt>
      <trkpt lat="47.73352" lon="6.01293">
        <ele>260</ele>
        <time>2010-01-01T01:07:11Z</time>
      </trkpt>
      <trkpt lat="47.73352" lon="6.01298">
        <ele>261</ele>
        <time>2010-01-01T01:07:12Z</time>
      </trkpt>
      <trkpt lat="47.73352" lon="6.01303">
        <ele>261</ele>
        <time>2010-01-01T01:07:13Z</time>
      </trkpt>
      <trkpt lat="47.73352" lon="6.01309">
        <ele>262</ele>
        <time>2010-01-01T01:07:15Z</time>
      </trkpt>
      <trkpt lat="47.73352" lon="6.0133">
        <ele>262</ele>
        <time>2010-01-01T01:07:21Z</time>
      </trkpt>
      <trkpt lat="47.73347" lon="6.0137">
        <ele>262</ele>
        <time>2010-01-01T01:07:32Z</time>
      </trkpt>
      <trkpt lat="47.73338" lon="6.01424">
        <ele>262</ele>
        <time>2010-01-01T01:07:46Z</time>
      </trkpt>
      <trkpt lat="47.7334" lon="6.01473">
        <ele>262</ele>
        <time>2010-01-01T01:08:00Z</time>
      </trkpt>
      <trkpt lat="47.73344" lon="6.01523">
        <ele>262</ele>
        <time>2010-01-01T01:08:13Z</time>
      </trkpt>
      <trkpt lat="47.73345" lon="6.01575">
        <ele>261</ele>
        <time>2010-01-01T01:08:27Z</time>
      </trkpt>
      <trkpt lat="47.73344" lon="6.01585">
        <ele>261</ele>
        <time>2010-01-01T01:08:30Z</time>
      </trkpt>
      <trkpt lat="47.73343" lon="6.01596">
        <ele>260</ele>
        <time>2010-01-01T01:08:33Z</time>
      </trkpt>
      <trkpt lat="47.73342" lon="6.01607">
        <ele>260</ele>
        <time>2010-01-01T01:08:36Z</time>
      </trkpt>
      <trkpt lat="47.73341" lon="6.01617">
        <ele>259</ele>
        <time>2010-01-01T01:08:39Z</time>
      </trkpt>
      <trkpt lat="47.73336" lon="6.01649">
        <ele>259</ele>
        <time>2010-01-01T01:08:48Z</time>
      </trkpt>
      <trkpt lat="47.73323" lon="6.01705">
        <ele>259</ele>
        <time>2010-01-01T01:09:03Z</time>
      </trkpt>
      <trkpt lat="47.73319" lon="6.01722">
        <ele>259</ele>
        <time>2010-01-01T01:09:08Z</time>
      </trkpt>
      <trkpt lat="47.73317" lon="6.0173">
        <ele>259</ele>
        <time>2010-01-01T01:09:11Z</time>
      </trkpt>
      <trkpt lat="47.73316" lon="6.01739">
        <ele>258</ele>
        <time>2010-01-01T01:09:13Z</time>
      </trkpt>
      <trkpt lat="47.73314" lon="6.01747">
        <ele>258</ele>
        <time>2010-01-01T01:09:16Z</time>
      </trkpt>
      <trkpt lat="47.73312" lon="6.01756">
        <ele>257</ele>
        <time>2010-01-01T01:09:18Z</time>
      </trkpt>
      <trkpt lat="47.7331" lon="6.01774">
        <ele>257</ele>
        <time>2010-01-01T01:09:23Z</time>
      </trkpt>
      <trkpt lat="47.73302" lon="6.01832">
        <ele>257</ele>
        <time>2010-01-01T01:09:39Z</time>
      </trkpt>
      <trkpt lat="47.73288" lon="6.01889">
        <ele>257</ele>
        <time>2010-01-01T01:09:55Z</time>
      </trkpt>
      <trkpt lat="47.73285" lon="6.01903">
        <ele>257</ele>
        <time>2010-01-01T01:09:59Z</time>
      </trkpt>
      <trkpt lat="47.73277" lon="6.01922">
        <ele>257</ele>
        <time>2010-01-01T01:10:05Z</time>
      </trkpt>
      <trkpt lat="47.73267" lon="6.01947">
        <ele>257</ele>
        <time>2010-01-01T01:10:13Z</time>
      </trkpt>
      <trkpt lat="47.7326" lon="6.01958">
        <ele>257</ele>
        <time>2010-01-01T01:10:17Z</time>
      </trkpt>
      <trkpt lat="47.73258" lon="6.01965">
        <ele>257</ele>
        <time>2010-01-01T01:10:19Z</time>
      </trkpt>
      <trkpt lat="47.73245" lon="6.01999">
        <ele>257</ele>
        <time>2010-01-01T01:10:30Z</time>
      </trkpt>
      <trkpt lat="47.73226" lon="6.02051">
        <ele>257</ele>
        <time>2010-01-01T01:10:45Z</time>
      </trkpt>
      <trkpt lat="47.73202" lon="6.02106">
        <ele>257</ele>
        <time>2010-01-01T01:11:03Z</time>
      </trkpt>
      <trkpt lat="47.73176" lon="6.02149">
        <ele>257</ele>
        <time>2010-01-01T01:11:19Z</time>
      </trkpt>
      <trkpt lat="47.7314" lon="6.02201">
        <ele>257</ele>
        <time>2010-01-01T01:11:39Z</time>
      </trkpt>
      <trkpt lat="47.73103" lon="6.0226">
        <ele>257</ele>
        <time>2010-01-01T01:12:01Z</time>
      </trkpt>
      <trkpt lat="47.73066" lon="6.02323">
        <ele>257</ele>
        <time>2010-01-01T01:12:23Z</time>
      </trkpt>
      <trkpt lat="47.73038" lon="6.02371">
        <ele>257</ele>
        <time>2010-01-01T01:12:40Z</time>
      </trkpt>
      <trkpt lat="47.73007" lon="6.02423">
        <ele>257</ele>
        <time>2010-01-01T01:12:59Z</time>
      </trkpt>
      <trkpt lat="47.73002" lon="6.02431">
        <ele>256</ele>
        <time>2010-01-01T01:13:02Z</time>
      </trkpt>
      <trkpt lat="47.72998" lon="6.02438">
        <ele>256</ele>
        <time>2010-01-01T01:13:04Z</time>
      </trkpt>
      <trkpt lat="47.72993" lon="6.02446">
        <ele>256</ele>
        <time>2010-01-01T01:13:07Z</time>
      </trkpt>
      <trkpt lat="47.72989" lon="6.02453">
        <ele>255</ele>
        <time>2010-01-01T01:13:10Z</time>
      </trkpt>
      <trkpt lat="47.72967" lon="6.02492">
        <ele>255</ele>
        <time>2010-01-01T01:13:23Z</time>
      </trkpt>
      <trkpt lat="47.72933" lon="6.02555">
        <ele>255</ele>
        <time>2010-01-01T01:13:45Z</time>
      </trkpt>
      <trkpt lat="47.72929" lon="6.02562">
        <ele>255</ele>
        <time>2010-01-01T01:13:48Z</time>
      </trkpt>
      <trkpt lat="47.72925" lon="6.0257">
        <ele>254</ele>
        <time>2010-01-01T01:13:50Z</time>
      </trkpt>
      <trkpt lat="47.72921" lon="6.02578">
        <ele>254</ele>
        <time>2010-01-01T01:13:53Z</time>
      </trkpt>
      <trkpt lat="47.72917" lon="6.02586">
        <ele>253</ele>
        <time>2010-01-01T01:13:56Z</time>
      </trkpt>
      <trkpt lat="47.72902" lon="6.02619">
        <ele>253</ele>
        <time>2010-01-01T01:14:06Z</time>
      </trkpt>
      <trkpt lat="47.72886" lon="6.02657">
        <ele>253</ele>
        <time>2010-01-01T01:14:18Z</time>
      </trkpt>
      <trkpt lat="47.72882" lon="6.02666">
        <ele>252</ele>
        <time>2010-01-01T01:14:21Z</time>
      </trkpt>
      <trkpt lat="47.72878" lon="6.02675">
        <ele>252</ele>
        <time>2010-01-01T01:14:24Z</time>
      </trkpt>
      <trkpt lat="47.72874" lon="6.02683">
        <ele>251</ele>
        <time>2010-01-01T01:14:27Z</time>
      </trkpt>
      <trkpt lat="47.7287" lon="6.02692">
        <ele>251</ele>
        <time>2010-01-01T01:14:30Z</time>
      </trkpt>
      <trkpt lat="47.72867" lon="6.02701">
        <ele>251</ele>
        <time>2010-01-01T01:14:32Z</time>
      </trkpt>
      <trkpt lat="47.72857" lon="6.02736">
        <ele>251</ele>
        <time>2010-01-01T01:14:43Z</time>
      </trkpt>
      <trkpt lat="47.72855" lon="6.02754">
        <ele>251</ele>
        <time>2010-01-01T01:14:48Z</time>
      </trkpt>
      <trkpt lat="47.72856" lon="6.02772">
        <ele>250</ele>
        <time>2010-01-01T01:14:52Z</time>
      </trkpt>
      <trkpt lat="47.72857" lon="6.02781">
        <ele>250</ele>
        <time>2010-01-01T01:14:55Z</time>
      </trkpt>
      <trkpt lat="47.72858" lon="6.0279">
        <ele>249</ele>
        <time>2010-01-01T01:14:57Z</time>
      </trkpt>
      <trkpt lat="47.72859" lon="6.028">
        <ele>249</ele>
        <time>2010-01-01T01:15:00Z</time>
      </trkpt>
      <trkpt lat="47.72861" lon="6.02821">
        <ele>248</ele>
        <time>2010-01-01T01:15:06Z</time>
      </trkpt>
      <trkpt lat="47.72863" lon="6.02832">
        <ele>248</ele>
        <time>2010-01-01T01:15:09Z</time>
      </trkpt>
      <trkpt lat="47.72865" lon="6.02843">
        <ele>248</ele>
        <time>2010-01-01T01:15:12Z</time>
      </trkpt>
      <trkpt lat="47.72868" lon="6.02854">
        <ele>247</ele>
        <time>2010-01-01T01:15:15Z</time>
      </trkpt>
      <trkpt lat="47.72871" lon="6.02865">
        <ele>246</ele>
        <time>2010-01-01T01:15:18Z</time>
      </trkpt>
      <trkpt lat="47.72876" lon="6.02877">
        <ele>246</ele>
        <time>2010-01-01T01:15:22Z</time>
      </trkpt>
      <trkpt lat="47.72881" lon="6.02889">
        <ele>245</ele>
        <time>2010-01-01T01:15:26Z</time>
      </trkpt>
      <trkpt lat="47.72886" lon="6.02903">
        <ele>244</ele>
        <time>2010-01-01T01:15:30Z</time>
      </trkpt>
      <trkpt lat="47.7289" lon="6.02916">
        <ele>244</ele>
        <time>2010-01-01T01:15:34Z</time>
      </trkpt>
      <trkpt lat="47.72892" lon="6.02931">
        <ele>243</ele>
        <time>2010-01-01T01:15:38Z</time>
      </trkpt>
      <trkpt lat="47.72894" lon="6.02946">
        <ele>242</ele>
        <time>2010-01-01T01:15:42Z</time>
      </trkpt>
      <trkpt lat="47.72896" lon="6.02962">
        <ele>241</ele>
        <time>2010-01-01T01:15:47Z</time>
      </trkpt>
      <trkpt lat="47.72897" lon="6.02978">
        <ele>240</ele>
        <time>2010-01-01T01:15:51Z</time>
      </trkpt>
      <trkpt lat="47.72897" lon="6.02993">
        <ele>240</ele>
        <time>2010-01-01T01:15:55Z</time>
      </trkpt>
      <trkpt lat="47.72897" lon="6.03008">
        <ele>239</ele>
        <time>2010-01-01T01:15:59Z</time>
      </trkpt>
      <trkpt lat="47.72897" lon="6.03023">
        <ele>239</ele>
        <time>2010-01-01T01:16:03Z</time>
      </trkpt>
      <trkpt lat="47.72896" lon="6.03036">
        <ele>238</ele>
        <time>2010-01-01T01:16:07Z</time>
      </trkpt>
      <trkpt lat="47.72895" lon="6.0305">
        <ele>238</ele>
        <time>2010-01-01T01:16:10Z</time>
      </trkpt>
      <trkpt lat="47.72894" lon="6.03063">
        <ele>237</ele>
        <time>2010-01-01T01:16:14Z</time>
      </trkpt>
      <trkpt lat="47.72892" lon="6.03076">
        <ele>237</ele>
        <time>2010-01-01T01:16:18Z</time>
      </trkpt>
      <trkpt lat="47.7289" lon="6.03089">
        <ele>236</ele>
        <time>2010-01-01T01:16:21Z</time>
      </trkpt>
      <trkpt lat="47.72887" lon="6.03101">
        <ele>236</ele>
        <time>2010-01-01T01:16:25Z</time>
      </trkpt>
      <trkpt lat="47.72885" lon="6.03113">
        <ele>235</ele>
        <time>2010-01-01T01:16:28Z</time>
      </trkpt>
      <trkpt lat="47.72875" lon="6.03146">
        <ele>235</ele>
        <time>2010-01-01T01:16:37Z</time>
      </trkpt>
      <trkpt lat="47.72866" lon="6.03178">
        <ele>235</ele>
        <time>2010-01-01T01:16:47Z</time>
      </trkpt>
      <trkpt lat="47.72863" lon="6.03189">
        <ele>235</ele>
        <time>2010-01-01T01:16:50Z</time>
      </trkpt>
      <trkpt lat="47.72861" lon="6.032">
        <ele>234</ele>
        <time>2010-01-01T01:16:53Z</time>
      </trkpt>
      <trkpt lat="47.72858" lon="6.03211">
        <ele>234</ele>
        <time>2010-01-01T01:16:56Z</time>
      </trkpt>
      <trkpt lat="47.72855" lon="6.03223">
        <ele>233</ele>
        <time>2010-01-01T01:17:00Z</time>
      </trkpt>
      <trkpt lat="47.72853" lon="6.03234">
        <ele>233</ele>
        <time>2010-01-01T01:17:03Z</time>
      </trkpt>
      <trkpt lat="47.72842" lon="6.03281">
        <ele>233</ele>
        <time>2010-01-01T01:17:16Z</time>
      </trkpt>
      <trkpt lat="47.72839" lon="6.03293">
        <ele>233</ele>
        <time>2010-01-01T01:17:20Z</time>
      </trkpt>
      <trkpt lat="47.72837" lon="6.03305">
        <ele>232</ele>
        <time>2010-01-01T01:17:23Z</time>
      </trkpt>
      <trkpt lat="47.72835" lon="6.03316">
        <ele>232</ele>
        <time>2010-01-01T01:17:26Z</time>
      </trkpt>
      <trkpt lat="47.72832" lon="6.03328">
        <ele>231</ele>
        <time>2010-01-01T01:17:30Z</time>
      </trkpt>
      <trkpt lat="47.7283" lon="6.0334">
        <ele>231</ele>
        <time>2010-01-01T01:17:33Z</time>
      </trkpt>
      <trkpt lat="47.72828" lon="6.03385">
        <ele>231</ele>
        <time>2010-01-01T01:17:45Z</time>
      </trkpt>
      <trkpt lat="47.72829" lon="6.03405">
        <ele>231</ele>
        <time>2010-01-01T01:17:51Z</time>
      </trkpt>
      <trkpt lat="47.72834" lon="6.03433">
        <ele>231</ele>
        <time>2010-01-01T01:17:58Z</time>
      </trkpt>
      <trkpt lat="47.72839" lon="6.03481">
        <ele>231</ele>
        <time>2010-01-01T01:18:11Z</time>
      </trkpt>
      <trkpt lat="47.72842" lon="6.03528">
        <ele>231</ele>
        <time>2010-01-01T01:18:24Z</time>
      </trkpt>
      <trkpt lat="47.72842" lon="6.03534">
        <ele>231</ele>
        <time>2010-01-01T01:18:26Z</time>
      </trkpt>
      <trkpt lat="47.72832" lon="6.03566">
        <ele>231</ele>
        <time>2010-01-01T01:18:35Z</time>
      </trkpt>
      <trkpt lat="47.72814" lon="6.0359">
        <ele>231</ele>
        <time>2010-01-01T01:18:45Z</time>
      </trkpt>
      <trkpt lat="47.72786" lon="6.03618">
        <ele>231</ele>
        <time>2010-01-01T01:18:58Z</time>
      </trkpt>
      <trkpt lat="47.72759" lon="6.03648">
        <ele>231</ele>
        <time>2010-01-01T01:19:12Z</time>
      </trkpt>
      <trkpt lat="47.72734" lon="6.03683">
        <ele>231</ele>
        <time>2010-01-01T01:19:25Z</time>
      </trkpt>
      <trkpt lat="47.72709" lon="6.03726">
        <ele>231</ele>
        <time>2010-01-01T01:19:41Z</time>
      </trkpt>
      <trkpt lat="47.72684" lon="6.03767">
        <ele>231</ele>
        <time>2010-01-01T01:19:56Z</time>
      </trkpt>
      <trkpt lat="47.72667" lon="6.03805">
        <ele>231</ele>
        <time>2010-01-01T01:20:08Z</time>
      </trkpt>
      <trkpt lat="47.72657" lon="6.03854">
        <ele>231</ele>
        <time>2010-01-01T01:20:22Z</time>
      </trkpt>
      <trkpt lat="47.7265" lon="6.03903">
        <ele>231</ele>
        <time>2010-01-01T01:20:35Z</time>
      </trkpt>
      <trkpt lat="47.72649" lon="6.03911">
        <ele>230</ele>
        <time>2010-01-01T01:20:37Z</time>
      </trkpt>
      <trkpt lat="47.72648" lon="6.03919">
        <ele>230</ele>
        <time>2010-01-01T01:20:40Z</time>
      </trkpt>
      <trkpt lat="47.72648" lon="6.03928">
        <ele>230</ele>
        <time>2010-01-01T01:20:42Z</time>
      </trkpt>
      <trkpt lat="47.72647" lon="6.03936">
        <ele>229</ele>
        <time>2010-01-01T01:20:44Z</time>
      </trkpt>
      <trkpt lat="47.72645" lon="6.03988">
        <ele>229</ele>
        <time>2010-01-01T01:20:58Z</time>
      </trkpt>
      <trkpt lat="47.72645" lon="6.04007">
        <ele>229</ele>
        <time>2010-01-01T01:21:03Z</time>
      </trkpt>
      <trkpt lat="47.72646" lon="6.04016">
        <ele>228</ele>
        <time>2010-01-01T01:21:06Z</time>
      </trkpt>
      <trkpt lat="47.72647" lon="6.04026">
        <ele>228</ele>
        <time>2010-01-01T01:21:08Z</time>
      </trkpt>
      <trkpt lat="47.72648" lon="6.04034">
        <ele>228</ele>
        <time>2010-01-01T01:21:11Z</time>
      </trkpt>
      <trkpt lat="47.72648" lon="6.04042">
        <ele>227</ele>
        <time>2010-01-01T01:21:13Z</time>
      </trkpt>
      <trkpt lat="47.7265" lon="6.04065">
        <ele>227</ele>
        <time>2010-01-01T01:21:19Z</time>
      </trkpt>
      <trkpt lat="47.72651" lon="6.04072">
        <ele>227</ele>
        <time>2010-01-01T01:21:21Z</time>
      </trkpt>
      <trkpt lat="47.72652" lon="6.0408">
        <ele>226</ele>
        <time>2010-01-01T01:21:23Z</time>
      </trkpt>
      <trkpt lat="47.72654" lon="6.04088">
        <ele>226</ele>
        <time>2010-01-01T01:21:26Z</time>
      </trkpt>
      <trkpt lat="47.72655" lon="6.04096">
        <ele>225</ele>
        <time>2010-01-01T01:21:28Z</time>
      </trkpt>
      <trkpt lat="47.72657" lon="6.04104">
        <ele>225</ele>
        <time>2010-01-01T01:21:30Z</time>
      </trkpt>
      <trkpt lat="47.7266" lon="6.04121">
        <ele>225</ele>
        <time>2010-01-01T01:21:35Z</time>
      </trkpt>
      <trkpt lat="47.72665" lon="6.04152">
        <ele>224</ele>
        <time>2010-01-01T01:21:43Z</time>
      </trkpt>
      <trkpt lat="47.72666" lon="6.04159">
        <ele>224</ele>
        <time>2010-01-01T01:21:45Z</time>
      </trkpt>
      <trkpt lat="47.72667" lon="6.04166">
        <ele>223</ele>
        <time>2010-01-01T01:21:47Z</time>
      </trkpt>
      <trkpt lat="47.72669" lon="6.04173">
        <ele>223</ele>
        <time>2010-01-01T01:21:49Z</time>
      </trkpt>
      <trkpt lat="47.72679" lon="6.04205">
        <ele>223</ele>
        <time>2010-01-01T01:21:59Z</time>
      </trkpt>
      <trkpt lat="47.72696" lon="6.04241">
        <ele>223</ele>
        <time>2010-01-01T01:22:11Z</time>
      </trkpt>
      <trkpt lat="47.72715" lon="6.04272">
        <ele>223</ele>
        <time>2010-01-01T01:22:22Z</time>
      </trkpt>
      <trkpt lat="47.72722" lon="6.04281">
        <ele>223</ele>
        <time>2010-01-01T01:22:26Z</time>
      </trkpt>
      <trkpt lat="47.72737" lon="6.043">
        <ele>223</ele>
        <time>2010-01-01T01:22:34Z</time>
      </trkpt>
      <trkpt lat="47.72743" lon="6.04308">
        <ele>223</ele>
        <time>2010-01-01T01:22:37Z</time>
      </trkpt>
      <trkpt lat="47.72751" lon="6.04319">
        <ele>223</ele>
        <time>2010-01-01T01:22:41Z</time>
      </trkpt>
      <trkpt lat="47.72753" lon="6.04322">
        <ele>223</ele>
        <time>2010-01-01T01:22:42Z</time>
      </trkpt>
      <trkpt lat="47.72761" lon="6.04347">
        <ele>223</ele>
        <time>2010-01-01T01:22:50Z</time>
      </trkpt>
      <trkpt lat="47.72774" lon="6.04399">
        <ele>223</ele>
        <time>2010-01-01T01:23:05Z</time>
      </trkpt>
      <trkpt lat="47.72786" lon="6.04446">
        <ele>223</ele>
        <time>2010-01-01T01:23:18Z</time>
      </trkpt>
      <trkpt lat="47.72801" lon="6.0449">
        <ele>223</ele>
        <time>2010-01-01T01:23:31Z</time>
      </trkpt>
      <trkpt lat="47.72807" lon="6.04504">
        <ele>223</ele>
        <time>2010-01-01T01:23:36Z</time>
      </trkpt>
      <trkpt lat="47.72817" lon="6.04522">
        <ele>223</ele>
        <time>2010-01-01T01:23:42Z</time>
      </trkpt>
      <trkpt lat="47.7282" lon="6.04528">
        <ele>223</ele>
        <time>2010-01-01T01:23:44Z</time>
      </trkpt>
      <trkpt lat="47.72842" lon="6.04564">
        <ele>223</ele>
        <time>2010-01-01T01:23:57Z</time>
      </trkpt>
      <trkpt lat="47.7285" lon="6.04577">
        <ele>223</ele>
        <time>2010-01-01T01:24:02Z</time>
      </trkpt>
      <trkpt lat="47.72852" lon="6.04583">
        <ele>224</ele>
        <time>2010-01-01T01:24:04Z</time>
      </trkpt>
      <trkpt lat="47.72854" lon="6.04589">
        <ele>224</ele>
        <time>2010-01-01T01:24:06Z</time>
      </trkpt>
      <trkpt lat="47.72856" lon="6.04597">
        <ele>225</ele>
        <time>2010-01-01T01:24:08Z</time>
      </trkpt>
      <trkpt lat="47.72863" lon="6.04622">
        <ele>224</ele>
        <time>2010-01-01T01:24:15Z</time>
      </trkpt>
      <trkpt lat="47.72866" lon="6.0463">
        <ele>224</ele>
        <time>2010-01-01T01:24:18Z</time>
      </trkpt>
      <trkpt lat="47.72869" lon="6.04638">
        <ele>223</ele>
        <time>2010-01-01T01:24:20Z</time>
      </trkpt>
      <trkpt lat="47.72871" lon="6.04646">
        <ele>223</ele>
        <time>2010-01-01T01:24:22Z</time>
      </trkpt>
      <trkpt lat="47.72872" lon="6.04654">
        <ele>222</ele>
        <time>2010-01-01T01:24:25Z</time>
      </trkpt>
      <trkpt lat="47.72872" lon="6.04661">
        <ele>222</ele>
        <time>2010-01-01T01:24:27Z</time>
      </trkpt>
      <trkpt lat="47.72872" lon="6.04668">
        <ele>222</ele>
        <time>2010-01-01T01:24:28Z</time>
      </trkpt>
      <trkpt lat="47.72873" lon="6.04674">
        <ele>221</ele>
        <time>2010-01-01T01:24:30Z</time>
      </trkpt>
      <trkpt lat="47.72874" lon="6.04678">
        <ele>221</ele>
        <time>2010-01-01T01:24:31Z</time>
      </trkpt>
      <trkpt lat="47.72875" lon="6.04681">
        <ele>220</ele>
        <time>2010-01-01T01:24:32Z</time>
      </trkpt>
      <trkpt lat="47.72876" lon="6.04685">
        <ele>220</ele>
        <time>2010-01-01T01:24:33Z</time>
      </trkpt>
      <trkpt lat="47.72877" lon="6.04691">
        <ele>220</ele>
        <time>2010-01-01T01:24:35Z</time>
      </trkpt>
      <trkpt lat="47.72879" lon="6.04705">
        <ele>220</ele>
        <time>2010-01-01T01:24:39Z</time>
      </trkpt>
      <trkpt lat="47.72881" lon="6.04708">
        <ele>220</ele>
        <time>2010-01-01T01:24:40Z</time>
      </trkpt>
      <trkpt lat="47.72883" lon="6.0471">
        <ele>219</ele>
        <time>2010-01-01T01:24:41Z</time>
      </trkpt>
      <trkpt lat="47.72886" lon="6.04711">
        <ele>219</ele>
        <time>2010-01-01T01:24:42Z</time>
      </trkpt>
      <trkpt lat="47.72889" lon="6.04714">
        <ele>218</ele>
        <time>2010-01-01T01:24:43Z</time>
      </trkpt>
      <trkpt lat="47.72907" lon="6.04726">
        <ele>218</ele>
        <time>2010-01-01T01:24:51Z</time>
      </trkpt>
      <trkpt lat="47.72924" lon="6.04719">
        <ele>218</ele>
        <time>2010-01-01T01:24:59Z</time>
      </trkpt>
      <trkpt lat="47.72939" lon="6.04715">
        <ele>218</ele>
        <time>2010-01-01T01:25:05Z</time>
      </trkpt>
      <trkpt lat="47.72938" lon="6.04715">
        <ele>218</ele>
        <time>2010-01-01T01:25:05Z</time>
      </trkpt>
      <trkpt lat="47.72939" lon="6.04715">
        <ele>218</ele>
        <time>2010-01-01T01:25:05Z</time>
      </trkpt>
      <trkpt lat="47.72939" lon="6.04717">
        <ele>218</ele>
        <time>2010-01-01T01:25:05Z</time>
      </trkpt>
      <trkpt lat="47.72939" lon="6.04717">
        <ele>218</ele>
        <time>2010-01-01T01:25:06Z</time>
      </trkpt>
      <trkpt lat="47.72939" lon="6.04719">
        <ele>218</ele>
        <time>2010-01-01T01:25:06Z</time>
      </trkpt>
      <trkpt lat="47.7294" lon="6.04722">
        <ele>218</ele>
        <time>2010-01-01T01:25:07Z</time>
      </trkpt>
      <trkpt lat="47.72943" lon="6.04726">
        <ele>218</ele>
        <time>2010-01-01T01:25:09Z</time>
      </trkpt>
      <trkpt lat="47.72943" lon="6.04726">
        <ele>218</ele>
        <time>2010-01-01T01:25:09Z</time>
      </trkpt>
      <trkpt lat="47.72944" lon="6.04728">
        <ele>218</ele>
        <time>2010-01-01T01:25:09Z</time>
      </trkpt>
      <trkpt lat="47.72946" lon="6.04736">
        <ele>218</ele>
        <time>2010-01-01T01:25:11Z</time>
      </trkpt>
      <trkpt lat="47.72949" lon="6.04742">
        <ele>218</ele>
        <time>2010-01-01T01:25:13Z</time>
      </trkpt>
      <trkpt lat="47.72955" lon="6.04755">
        <ele>218</ele>
        <time>2010-01-01T01:25:18Z</time>
      </trkpt>
      <trkpt lat="47.7296" lon="6.04765">
        <ele>218</ele>
        <time>2010-01-01T01:25:21Z</time>
      </trkpt>
      <trkpt lat="47.72962" lon="6.04772">
        <ele>218</ele>
        <time>2010-01-01T01:25:23Z</time>
      </trkpt>
      <trkpt lat="47.72964" lon="6.04778">
        <ele>218</ele>
        <time>2010-01-01T01:25:25Z</time>
      </trkpt>
      <trkpt lat="47.72964" lon="6.04781">
        <ele>216</ele>
        <time>2010-01-01T01:25:26Z</time>
      </trkpt>
      <trkpt lat="47.72972" lon="6.04787">
        <ele>216</ele>
        <time>2010-01-01T01:25:29Z</time>
      </trkpt>
      <trkpt lat="47.72976" lon="6.0479">
        <ele>216</ele>
        <time>2010-01-01T01:25:31Z</time>
      </trkpt>
      <trkpt lat="47.72986" lon="6.04799">
        <ele>216</ele>
        <time>2010-01-01T01:25:36Z</time>
      </trkpt>
      <trkpt lat="47.73007" lon="6.04813">
        <ele>216</ele>
        <time>2010-01-01T01:25:45Z</time>
      </trkpt>
      <trkpt lat="47.73027" lon="6.04826">
        <ele>216</ele>
        <time>2010-01-01T01:25:53Z</time>
      </trkpt>
      <trkpt lat="47.73044" lon="6.0484">
        <ele>216</ele>
        <time>2010-01-01T01:26:01Z</time>
      </trkpt>
      <trkpt lat="47.73053" lon="6.04852">
        <ele>217</ele>
        <time>2010-01-01T01:26:06Z</time>
      </trkpt>
      <trkpt lat="47.73055" lon="6.04855">
        <ele>217</ele>
        <time>2010-01-01T01:26:07Z</time>
      </trkpt>
      <trkpt lat="47.73058" lon="6.04858">
        <ele>218</ele>
        <time>2010-01-01T01:26:09Z</time>
      </trkpt>
      <trkpt lat="47.73064" lon="6.04863">
        <ele>218</ele>
        <time>2010-01-01T01:26:12Z</time>
      </trkpt>
      <trkpt lat="47.73069" lon="6.04867">
        <ele>219</ele>
        <time>2010-01-01T01:26:14Z</time>
      </trkpt>
      <trkpt lat="47.73082" lon="6.0488">
        <ele>219</ele>
        <time>2010-01-01T01:26:20Z</time>
      </trkpt>
      <trkpt lat="47.73097" lon="6.04905">
        <ele>219</ele>
        <time>2010-01-01T01:26:29Z</time>
      </trkpt>
      <trkpt lat="47.7311" lon="6.04927">
        <ele>219</ele>
        <time>2010-01-01T01:26:37Z</time>
      </trkpt>
      <trkpt lat="47.73122" lon="6.04949">
        <ele>219</ele>
        <time>2010-01-01T01:26:45Z</time>
      </trkpt>
      <trkpt lat="47.73134" lon="6.04967">
        <ele>219</ele>
        <time>2010-01-01T01:26:51Z</time>
      </trkpt>
      <trkpt lat="47.73136" lon="6.04964">
        <ele>219</ele>
        <time>2010-01-01T01:26:52Z</time>
      </trkpt>
      <trkpt lat="47.73135" lon="6.04958">
        <ele>219</ele>
        <time>2010-01-01T01:26:54Z</time>
      </trkpt>
      <trkpt lat="47.73132" lon="6.04952">
        <ele>219</ele>
        <time>2010-01-01T01:26:56Z</time>
      </trkpt>
      <trkpt lat="47.73127" lon="6.04942">
        <ele>219</ele>
        <time>2010-01-01T01:26:59Z</time>
      </trkpt>
      <trkpt lat="47.73115" lon="6.04921">
        <ele>219</ele>
        <time>2010-01-01T01:27:07Z</time>
      </trkpt>
      <trkpt lat="47.73108" lon="6.04896">
        <ele>218</ele>
        <time>2010-01-01T01:27:14Z</time>
      </trkpt>
      <trkpt lat="47.73107" lon="6.04893">
        <ele>218</ele>
        <time>2010-01-01T01:27:15Z</time>
      </trkpt>
      <trkpt lat="47.73106" lon="6.0489">
        <ele>217</ele>
        <time>2010-01-01T01:27:16Z</time>
      </trkpt>
      <trkpt lat="47.73104" lon="6.04889">
        <ele>217</ele>
        <time>2010-01-01T01:27:17Z</time>
      </trkpt>
      <trkpt lat="47.73102" lon="6.04889">
        <ele>217</ele>
        <time>2010-01-01T01:27:18Z</time>
      </trkpt>
      <trkpt lat="47.73099" lon="6.04888">
        <ele>217</ele>
        <time>2010-01-01T01:27:19Z</time>
      </trkpt>
      <trkpt lat="47.73085" lon="6.04897">
        <ele>217</ele>
        <time>2010-01-01T01:27:25Z</time>
      </trkpt>
      <trkpt lat="47.73071" lon="6.04908">
        <ele>217</ele>
        <time>2010-01-01T01:27:31Z</time>
      </trkpt>
      <trkpt lat="47.73051" lon="6.04924">
        <ele>217</ele>
        <time>2010-01-01T01:27:40Z</time>
      </trkpt>
      <trkpt lat="47.73033" lon="6.04934">
        <ele>217</ele>
        <time>2010-01-01T01:27:48Z</time>
      </trkpt>
      <trkpt lat="47.7301" lon="6.04945">
        <ele>217</ele>
        <time>2010-01-01T01:27:58Z</time>
      </trkpt>
      <trkpt lat="47.72989" lon="6.04952">
        <ele>217</ele>
        <time>2010-01-01T01:28:06Z</time>
      </trkpt>
      <trkpt lat="47.72964" lon="6.04958">
        <ele>216</ele>
        <time>2010-01-01T01:28:17Z</time>
      </trkpt>
      <trkpt lat="47.7296" lon="6.04959">
        <ele>216</ele>
        <time>2010-01-01T01:28:18Z</time>
      </trkpt>
      <trkpt lat="47.72957" lon="6.04959">
        <ele>215</ele>
        <time>2010-01-01T01:28:19Z</time>
      </trkpt>
      <trkpt lat="47.72954" lon="6.04958">
        <ele>214</ele>
        <time>2010-01-01T01:28:21Z</time>
      </trkpt>
      <trkpt lat="47.72937" lon="6.04957">
        <ele>214</ele>
        <time>2010-01-01T01:28:27Z</time>
      </trkpt>
      <trkpt lat="47.72907" lon="6.04949">
        <ele>214</ele>
        <time>2010-01-01T01:28:40Z</time>
      </trkpt>
      <trkpt lat="47.72883" lon="6.04941">
        <ele>214</ele>
        <time>2010-01-01T01:28:49Z</time>
      </trkpt>
      <trkpt lat="47.72861" lon="6.04932">
        <ele>214</ele>
        <time>2010-01-01T01:28:58Z</time>
      </trkpt>
      <trkpt lat="47.72842" lon="6.04919">
        <ele>214</ele>
        <time>2010-01-01T01:29:07Z</time>
      </trkpt>
      <trkpt lat="47.7282" lon="6.04901">
        <ele>214</ele>
        <time>2010-01-01T01:29:17Z</time>
      </trkpt>
      <trkpt lat="47.72796" lon="6.04877">
        <ele>214</ele>
        <time>2010-01-01T01:29:28Z</time>
      </trkpt>
      <trkpt lat="47.72782" lon="6.04864">
        <ele>214</ele>
        <time>2010-01-01T01:29:35Z</time>
      </trkpt>
      <trkpt lat="47.72763" lon="6.04851">
        <ele>214</ele>
        <time>2010-01-01T01:29:43Z</time>
      </trkpt>
      <trkpt lat="47.72748" lon="6.04843">
        <ele>214</ele>
        <time>2010-01-01T01:29:50Z</time>
      </trkpt>
      <trkpt lat="47.72732" lon="6.04832">
        <ele>214</ele>
        <time>2010-01-01T01:29:57Z</time>
      </trkpt>
      <trkpt lat="47.72714" lon="6.04822">
        <ele>214</ele>
        <time>2010-01-01T01:30:05Z</time>
      </trkpt>
      <trkpt lat="47.72691" lon="6.0481">
        <ele>214</ele>
        <time>2010-01-01T01:30:14Z</time>
      </trkpt>
      <trkpt lat="47.72674" lon="6.04799">
        <ele>214</ele>
        <time>2010-01-01T01:30:22Z</time>
      </trkpt>
      <trkpt lat="47.72651" lon="6.04785">
        <ele>214</ele>
        <time>2010-01-01T01:30:32Z</time>
      </trkpt>
      <trkpt lat="47.72633" lon="6.04774">
        <ele>214</ele>
        <time>2010-01-01T01:30:40Z</time>
      </trkpt>
      <trkpt lat="47.72617" lon="6.04763">
        <ele>214</ele>
        <time>2010-01-01T01:30:46Z</time>
      </trkpt>
      <trkpt lat="47.72597" lon="6.04746">
        <ele>214</ele>
        <time>2010-01-01T01:30:56Z</time>
      </trkpt>
      <trkpt lat="47.72575" lon="6.04726">
        <ele>214</ele>
        <time>2010-01-01T01:31:06Z</time>
      </trkpt>
      <trkpt lat="47.72557" lon="6.04709">
        <ele>214</ele>
        <time>2010-01-01T01:31:15Z</time>
      </trkpt>
      <trkpt lat="47.72532" lon="6.04681">
        <ele>214</ele>
        <time>2010-01-01T01:31:27Z</time>
      </trkpt>
      <trkpt lat="47.72516" lon="6.04664">
        <ele>214</ele>
        <time>2010-01-01T01:31:35Z</time>
      </trkpt>
      <trkpt lat="47.72497" lon="6.04643">
        <ele>214</ele>
        <time>2010-01-01T01:31:45Z</time>
      </trkpt>
      <trkpt lat="47.72479" lon="6.04623">
        <ele>214</ele>
        <time>2010-01-01T01:31:53Z</time>
      </trkpt>
      <trkpt lat="47.72463" lon="6.04603">
        <ele>214</ele>
        <time>2010-01-01T01:32:02Z</time>
      </trkpt>
      <trkpt lat="47.72447" lon="6.04587">
        <ele>214</ele>
        <time>2010-01-01T01:32:10Z</time>
      </trkpt>
      <trkpt lat="47.72428" lon="6.04568">
        <ele>214</ele>
        <time>2010-01-01T01:32:19Z</time>
      </trkpt>
      <trkpt lat="47.7241" lon="6.04548">
        <ele>214</ele>
        <time>2010-01-01T01:32:28Z</time>
      </trkpt>
      <trkpt lat="47.72394" lon="6.04533">
        <ele>214</ele>
        <time>2010-01-01T01:32:36Z</time>
      </trkpt>
      <trkpt lat="47.72375" lon="6.04513">
        <ele>214</ele>
        <time>2010-01-01T01:32:45Z</time>
      </trkpt>
      <trkpt lat="47.72359" lon="6.04497">
        <ele>214</ele>
        <time>2010-01-01T01:32:53Z</time>
      </trkpt>
      <trkpt lat="47.72349" lon="6.04487">
        <ele>214</ele>
        <time>2010-01-01T01:32:57Z</time>
      </trkpt>
      <trkpt lat="47.72326" lon="6.04465">
        <ele>214</ele>
        <time>2010-01-01T01:33:08Z</time>
      </trkpt>
      <trkpt lat="47.72307" lon="6.04446">
        <ele>214</ele>
        <time>2010-01-01T01:33:17Z</time>
      </trkpt>
      <trkpt lat="47.7229" lon="6.0443">
        <ele>214</ele>
        <time>2010-01-01T01:33:25Z</time>
      </trkpt>
      <trkpt lat="47.72269" lon="6.04409">
        <ele>214</ele>
        <time>2010-01-01T01:33:36Z</time>
      </trkpt>
      <trkpt lat="47.72251" lon="6.04389">
        <ele>214</ele>
        <time>2010-01-01T01:33:45Z</time>
      </trkpt>
      <trkpt lat="47.72233" lon="6.04364">
        <ele>214</ele>
        <time>2010-01-01T01:33:54Z</time>
      </trkpt>
      <trkpt lat="47.7222" lon="6.04339">
        <ele>214</ele>
        <time>2010-01-01T01:34:03Z</time>
      </trkpt>
      <trkpt lat="47.72214" lon="6.04319">
        <ele>214</ele>
        <time>2010-01-01T01:34:09Z</time>
      </trkpt>
      <trkpt lat="47.72209" lon="6.04291">
        <ele>214</ele>
        <time>2010-01-01T01:34:16Z</time>
      </trkpt>
      <trkpt lat="47.72206" lon="6.04265">
        <ele>214</ele>
        <time>2010-01-01T01:34:24Z</time>
      </trkpt>
      <trkpt lat="47.72202" lon="6.04231">
        <ele>214</ele>
        <time>2010-01-01T01:34:33Z</time>
      </trkpt>
      <trkpt lat="47.722" lon="6.04203">
        <ele>214</ele>
        <time>2010-01-01T01:34:41Z</time>
      </trkpt>
      <trkpt lat="47.72198" lon="6.04168">
        <ele>214</ele>
        <time>2010-01-01T01:34:50Z</time>
      </trkpt>
      <trkpt lat="47.72198" lon="6.04139">
        <ele>214</ele>
        <time>2010-01-01T01:34:58Z</time>
      </trkpt>
      <trkpt lat="47.72197" lon="6.04109">
        <ele>214</ele>
        <time>2010-01-01T01:35:06Z</time>
      </trkpt>
      <trkpt lat="47.72197" lon="6.04081">
        <ele>214</ele>
        <time>2010-01-01T01:35:13Z</time>
      </trkpt>
      <trkpt lat="47.72197" lon="6.04039">
        <ele>214</ele>
        <time>2010-01-01T01:35:25Z</time>
      </trkpt>
      <trkpt lat="47.72196" lon="6.04012">
        <ele>214</ele>
        <time>2010-01-01T01:35:32Z</time>
      </trkpt>
      <trkpt lat="47.72198" lon="6.03975">
        <ele>214</ele>
        <time>2010-01-01T01:35:42Z</time>
      </trkpt>
      <trkpt lat="47.72198" lon="6.03944">
        <ele>214</ele>
        <time>2010-01-01T01:35:50Z</time>
      </trkpt>
      <trkpt lat="47.72197" lon="6.03919">
        <ele>214</ele>
        <time>2010-01-01T01:35:57Z</time>
      </trkpt>
      <trkpt lat="47.72195" lon="6.03889">
        <ele>214</ele>
        <time>2010-01-01T01:36:05Z</time>
      </trkpt>
      <trkpt lat="47.72192" lon="6.03861">
        <ele>214</ele>
        <time>2010-01-01T01:36:13Z</time>
      </trkpt>
      <trkpt lat="47.7219" lon="6.03839">
        <ele>214</ele>
        <time>2010-01-01T01:36:19Z</time>
      </trkpt>
      <trkpt lat="47.72188" lon="6.03812">
        <ele>214</ele>
        <time>2010-01-01T01:36:26Z</time>
      </trkpt>
      <trkpt lat="47.72187" lon="6.03788">
        <ele>214</ele>
        <time>2010-01-01T01:36:33Z</time>
      </trkpt>
      <trkpt lat="47.72184" lon="6.03754">
        <ele>214</ele>
        <time>2010-01-01T01:36:42Z</time>
      </trkpt>
      <trkpt lat="47.72179" lon="6.03716">
        <ele>214</ele>
        <time>2010-01-01T01:36:52Z</time>
      </trkpt>
      <trkpt lat="47.72176" lon="6.03684">
        <ele>214</ele>
        <time>2010-01-01T01:37:01Z</time>
      </trkpt>
      <trkpt lat="47.72171" lon="6.03646">
        <ele>214</ele>
        <time>2010-01-01T01:37:11Z</time>
      </trkpt>
      <trkpt lat="47.72165" lon="6.03614">
        <ele>214</ele>
        <time>2010-01-01T01:37:20Z</time>
      </trkpt>
      <trkpt lat="47.72163" lon="6.03586">
        <ele>214</ele>
        <time>2010-01-01T01:37:28Z</time>
      </trkpt>
      <trkpt lat="47.7216" lon="6.03564">
        <ele>214</ele>
        <time>2010-01-01T01:37:34Z</time>
      </trkpt>
      <trkpt lat="47.72157" lon="6.0356">
        <ele>214</ele>
        <time>2010-01-01T01:37:35Z</time>
      </trkpt>
      <trkpt lat="47.72157" lon="6.03558">
        <ele>214</ele>
        <time>2010-01-01T01:37:36Z</time>
      </trkpt>
      <trkpt lat="47.72155" lon="6.03554">
        <ele>214</ele>
        <time>2010-01-01T01:37:38Z</time>
      </trkpt>
      <trkpt lat="47.7214" lon="6.03542">
        <ele>214</ele>
        <time>2010-01-01T01:37:44Z</time>
      </trkpt>
      <trkpt lat="47.72124" lon="6.03537">
        <ele>214</ele>
        <time>2010-01-01T01:37:51Z</time>
      </trkpt>
      <trkpt lat="47.72113" lon="6.03547">
        <ele>214</ele>
        <time>2010-01-01T01:37:56Z</time>
      </trkpt>
      <trkpt lat="47.72093" lon="6.03574">
        <ele>214</ele>
        <time>2010-01-01T01:38:07Z</time>
      </trkpt>
      <trkpt lat="47.72078" lon="6.0359">
        <ele>215</ele>
        <time>2010-01-01T01:38:14Z</time>
      </trkpt>
      <trkpt lat="47.72076" lon="6.03592">
        <ele>215</ele>
        <time>2010-01-01T01:38:15Z</time>
      </trkpt>
      <trkpt lat="47.72074" lon="6.03594">
        <ele>216</ele>
        <time>2010-01-01T01:38:16Z</time>
      </trkpt>
      <trkpt lat="47.72072" lon="6.03595">
        <ele>216</ele>
        <time>2010-01-01T01:38:17Z</time>
      </trkpt>
      <trkpt lat="47.7207" lon="6.03597">
        <ele>217</ele>
        <time>2010-01-01T01:38:18Z</time>
      </trkpt>
      <trkpt lat="47.72063" lon="6.03599">
        <ele>217</ele>
        <time>2010-01-01T01:38:21Z</time>
      </trkpt>
      <trkpt lat="47.72048" lon="6.03598">
        <ele>217</ele>
        <time>2010-01-01T01:38:27Z</time>
      </trkpt>
      <trkpt lat="47.72043" lon="6.03597">
        <ele>217</ele>
        <time>2010-01-01T01:38:29Z</time>
      </trkpt>
      <trkpt lat="47.72041" lon="6.03597">
        <ele>217</ele>
        <time>2010-01-01T01:38:30Z</time>
      </trkpt>
      <trkpt lat="47.72038" lon="6.03596">
        <ele>218</ele>
        <time>2010-01-01T01:38:31Z</time>
      </trkpt>
      <trkpt lat="47.72036" lon="6.03595">
        <ele>218</ele>
        <time>2010-01-01T01:38:31Z</time>
      </trkpt>
      <trkpt lat="47.72034" lon="6.03595">
        <ele>219</ele>
        <time>2010-01-01T01:38:32Z</time>
      </trkpt>
      <trkpt lat="47.72032" lon="6.03595">
        <ele>219</ele>
        <time>2010-01-01T01:38:33Z</time>
      </trkpt>
      <trkpt lat="47.72018" lon="6.0359">
        <ele>219</ele>
        <time>2010-01-01T01:38:39Z</time>
      </trkpt>
      <trkpt lat="47.72016" lon="6.03589">
        <ele>219</ele>
        <time>2010-01-01T01:38:40Z</time>
      </trkpt>
      <trkpt lat="47.72014" lon="6.03589">
        <ele>220</ele>
        <time>2010-01-01T01:38:40Z</time>
      </trkpt>
      <trkpt lat="47.72012" lon="6.03588">
        <ele>220</ele>
        <time>2010-01-01T01:38:41Z</time>
      </trkpt>
      <trkpt lat="47.7201" lon="6.03588">
        <ele>221</ele>
        <time>2010-01-01T01:38:42Z</time>
      </trkpt>
      <trkpt lat="47.71998" lon="6.03584">
        <ele>221</ele>
        <time>2010-01-01T01:38:47Z</time>
      </trkpt>
      <trkpt lat="47.71997" lon="6.03584">
        <ele>221</ele>
        <time>2010-01-01T01:38:48Z</time>
      </trkpt>
      <trkpt lat="47.71995" lon="6.03583">
        <ele>221</ele>
        <time>2010-01-01T01:38:48Z</time>
      </trkpt>
      <trkpt lat="47.71993" lon="6.03583">
        <ele>222</ele>
        <time>2010-01-01T01:38:49Z</time>
      </trkpt>
      <trkpt lat="47.71991" lon="6.03582">
        <ele>222</ele>
        <time>2010-01-01T01:38:50Z</time>
      </trkpt>
      <trkpt lat="47.71989" lon="6.03581">
        <ele>223</ele>
        <time>2010-01-01T01:38:51Z</time>
      </trkpt>
      <trkpt lat="47.71985" lon="6.0358">
        <ele>223</ele>
        <time>2010-01-01T01:38:52Z</time>
      </trkpt>
      <trkpt lat="47.7197" lon="6.03575">
        <ele>223</ele>
        <time>2010-01-01T01:38:59Z</time>
      </trkpt>
      <trkpt lat="47.71963" lon="6.03573">
        <ele>223</ele>
        <time>2010-01-01T01:39:01Z</time>
      </trkpt>
      <trkpt lat="47.71961" lon="6.03572">
        <ele>224</ele>
        <time>2010-01-01T01:39:02Z</time>
      </trkpt>
      <trkpt lat="47.71959" lon="6.03572">
        <ele>224</ele>
        <time>2010-01-01T01:39:03Z</time>
      </trkpt>
      <trkpt lat="47.71956" lon="6.03571">
        <ele>224</ele>
        <time>2010-01-01T01:39:04Z</time>
      </trkpt>
      <trkpt lat="47.71954" lon="6.0357">
        <ele>225</ele>
        <time>2010-01-01T01:39:05Z</time>
      </trkpt>
      <trkpt lat="47.71952" lon="6.0357">
        <ele>225</ele>
        <time>2010-01-01T01:39:06Z</time>
      </trkpt>
      <trkpt lat="47.7194" lon="6.03565">
        <ele>225</ele>
        <time>2010-01-01T01:39:11Z</time>
      </trkpt>
      <trkpt lat="47.71922" lon="6.03561">
        <ele>225</ele>
        <time>2010-01-01T01:39:18Z</time>
      </trkpt>
      <trkpt lat="47.71904" lon="6.03558">
        <ele>225</ele>
        <time>2010-01-01T01:39:25Z</time>
      </trkpt>
      <trkpt lat="47.71877" lon="6.03558">
        <ele>225</ele>
        <time>2010-01-01T01:39:36Z</time>
      </trkpt>
      <trkpt lat="47.71871" lon="6.03558">
        <ele>225</ele>
        <time>2010-01-01T01:39:39Z</time>
      </trkpt>
      <trkpt lat="47.71868" lon="6.03558">
        <ele>226</ele>
        <time>2010-01-01T01:39:40Z</time>
      </trkpt>
      <trkpt lat="47.71865" lon="6.03558">
        <ele>226</ele>
        <time>2010-01-01T01:39:41Z</time>
      </trkpt>
      <trkpt lat="47.71863" lon="6.03557">
        <ele>226</ele>
        <time>2010-01-01T01:39:42Z</time>
      </trkpt>
      <trkpt lat="47.7186" lon="6.03557">
        <ele>227</ele>
        <time>2010-01-01T01:39:43Z</time>
      </trkpt>
      <trkpt lat="47.71857" lon="6.03557">
        <ele>227</ele>
        <time>2010-01-01T01:39:44Z</time>
      </trkpt>
      <trkpt lat="47.71829" lon="6.03557">
        <ele>227</ele>
        <time>2010-01-01T01:39:55Z</time>
      </trkpt>
      <trkpt lat="47.71798" lon="6.03556">
        <ele>226</ele>
        <time>2010-01-01T01:40:08Z</time>
      </trkpt>
      <trkpt lat="47.71793" lon="6.03555">
        <ele>226</ele>
        <time>2010-01-01T01:40:10Z</time>
      </trkpt>
      <trkpt lat="47.71788" lon="6.03555">
        <ele>226</ele>
        <time>2010-01-01T01:40:12Z</time>
      </trkpt>
      <trkpt lat="47.71783" lon="6.03555">
        <ele>225</ele>
        <time>2010-01-01T01:40:14Z</time>
      </trkpt>
      <trkpt lat="47.71778" lon="6.03555">
        <ele>225</ele>
        <time>2010-01-01T01:40:16Z</time>
      </trkpt>
      <trkpt lat="47.71768" lon="6.03554">
        <ele>225</ele>
        <time>2010-01-01T01:40:20Z</time>
      </trkpt>
      <trkpt lat="47.71734" lon="6.03552">
        <ele>225</ele>
        <time>2010-01-01T01:40:33Z</time>
      </trkpt>
      <trkpt lat="47.71718" lon="6.03549">
        <ele>224</ele>
        <time>2010-01-01T01:40:40Z</time>
      </trkpt>
      <trkpt lat="47.71713" lon="6.03547">
        <ele>224</ele>
        <time>2010-01-01T01:40:42Z</time>
      </trkpt>
      <trkpt lat="47.71708" lon="6.03546">
        <ele>223</ele>
        <time>2010-01-01T01:40:44Z</time>
      </trkpt>
      <trkpt lat="47.71703" lon="6.03544">
        <ele>223</ele>
        <time>2010-01-01T01:40:46Z</time>
      </trkpt>
      <trkpt lat="47.71699" lon="6.03543">
        <ele>223</ele>
        <time>2010-01-01T01:40:48Z</time>
      </trkpt>
      <trkpt lat="47.7167" lon="6.03533">
        <ele>223</ele>
        <time>2010-01-01T01:40:59Z</time>
      </trkpt>
      <trkpt lat="47.71644" lon="6.03529">
        <ele>223</ele>
        <time>2010-01-01T01:41:10Z</time>
      </trkpt>
      <trkpt lat="47.71622" lon="6.03535">
        <ele>222</ele>
        <time>2010-01-01T01:41:19Z</time>
      </trkpt>
      <trkpt lat="47.71616" lon="6.03537">
        <ele>222</ele>
        <time>2010-01-01T01:41:22Z</time>
      </trkpt>
      <trkpt lat="47.7161" lon="6.03538">
        <ele>221</ele>
        <time>2010-01-01T01:41:24Z</time>
      </trkpt>
      <trkpt lat="47.71604" lon="6.03541">
        <ele>221</ele>
        <time>2010-01-01T01:41:26Z</time>
      </trkpt>
      <trkpt lat="47.716" lon="6.03545">
        <ele>220</ele>
        <time>2010-01-01T01:41:28Z</time>
      </trkpt>
      <trkpt lat="47.71596" lon="6.0355">
        <ele>220</ele>
        <time>2010-01-01T01:41:30Z</time>
      </trkpt>
      <trkpt lat="47.7159" lon="6.03565">
        <ele>220</ele>
        <time>2010-01-01T01:41:35Z</time>
      </trkpt>
      <trkpt lat="47.71587" lon="6.03569">
        <ele>220</ele>
        <time>2010-01-01T01:41:37Z</time>
      </trkpt>
      <trkpt lat="47.71584" lon="6.03572">
        <ele>220</ele>
        <time>2010-01-01T01:41:38Z</time>
      </trkpt>
      <trkpt lat="47.71576" lon="6.03575">
        <ele>220</ele>
        <time>2010-01-01T01:41:41Z</time>
      </trkpt>
      <trkpt lat="47.71564" lon="6.0358">
        <ele>220</ele>
        <time>2010-01-01T01:41:47Z</time>
      </trkpt>
      <trkpt lat="47.71549" lon="6.03584">
        <ele>220</ele>
        <time>2010-01-01T01:41:53Z</time>
      </trkpt>
      <trkpt lat="47.7153" lon="6.03589">
        <ele>220</ele>
        <time>2010-01-01T01:42:00Z</time>
      </trkpt>
      <trkpt lat="47.71526" lon="6.03591">
        <ele>220</ele>
        <time>2010-01-01T01:42:02Z</time>
      </trkpt>
      <trkpt lat="47.71523" lon="6.03593">
        <ele>219</ele>
        <time>2010-01-01T01:42:03Z</time>
      </trkpt>
      <trkpt lat="47.71521" lon="6.03596">
        <ele>219</ele>
        <time>2010-01-01T01:42:04Z</time>
      </trkpt>
      <trkpt lat="47.71519" lon="6.03599">
        <ele>218</ele>
        <time>2010-01-01T01:42:05Z</time>
      </trkpt>
      <trkpt lat="47.71515" lon="6.03608">
        <ele>218</ele>
        <time>2010-01-01T01:42:09Z</time>
      </trkpt>
      <trkpt lat="47.71511" lon="6.03623">
        <ele>218</ele>
        <time>2010-01-01T01:42:13Z</time>
      </trkpt>
      <trkpt lat="47.71506" lon="6.03643">
        <ele>218</ele>
        <time>2010-01-01T01:42:18Z</time>
      </trkpt>
      <trkpt lat="47.71504" lon="6.03648">
        <ele>219</ele>
        <time>2010-01-01T01:42:20Z</time>
      </trkpt>
      <trkpt lat="47.71503" lon="6.0365">
        <ele>219</ele>
        <time>2010-01-01T01:42:21Z</time>
      </trkpt>
      <trkpt lat="47.71502" lon="6.03653">
        <ele>220</ele>
        <time>2010-01-01T01:42:22Z</time>
      </trkpt>
      <trkpt lat="47.71501" lon="6.03655">
        <ele>220</ele>
        <time>2010-01-01T01:42:22Z</time>
      </trkpt>
      <trkpt lat="47.71499" lon="6.03657">
        <ele>220</ele>
        <time>2010-01-01T01:42:23Z</time>
      </trkpt>
      <trkpt lat="47.71497" lon="6.03661">
        <ele>220</ele>
        <time>2010-01-01T01:42:25Z</time>
      </trkpt>
      <trkpt lat="47.71488" lon="6.03671">
        <ele>220</ele>
        <time>2010-01-01T01:42:29Z</time>
      </trkpt>
      <trkpt lat="47.71474" lon="6.0368">
        <ele>220</ele>
        <time>2010-01-01T01:42:35Z</time>
      </trkpt>
      <trkpt lat="47.71457" lon="6.03684">
        <ele>220</ele>
        <time>2010-01-01T01:42:42Z</time>
      </trkpt>
      <trkpt lat="47.71429" lon="6.03688">
        <ele>220</ele>
        <time>2010-01-01T01:42:53Z</time>
      </trkpt>
      <trkpt lat="47.71398" lon="6.03699">
        <ele>220</ele>
        <time>2010-01-01T01:43:06Z</time>
      </trkpt>
      <trkpt lat="47.71369" lon="6.03711">
        <ele>220</ele>
        <time>2010-01-01T01:43:18Z</time>
      </trkpt>
      <trkpt lat="47.71335" lon="6.03726">
        <ele>220</ele>
        <time>2010-01-01T01:43:32Z</time>
      </trkpt>
      <trkpt lat="47.71306" lon="6.03753">
        <ele>220</ele>
        <time>2010-01-01T01:43:46Z</time>
      </trkpt>
      <trkpt lat="47.7128" lon="6.03785">
        <ele>220</ele>
        <time>2010-01-01T01:44:00Z</time>
      </trkpt>
      <trkpt lat="47.71271" lon="6.03793">
        <ele>220</ele>
        <time>2010-01-01T01:44:04Z</time>
      </trkpt>
      <trkpt lat="47.71259" lon="6.03797">
        <ele>220</ele>
        <time>2010-01-01T01:44:09Z</time>
      </trkpt>
      <trkpt lat="47.71247" lon="6.03802">
        <ele>220</ele>
        <time>2010-01-01T01:44:14Z</time>
      </trkpt>
      <trkpt lat="47.71241" lon="6.03804">
        <ele>220</ele>
        <time>2010-01-01T01:44:16Z</time>
      </trkpt>
      <trkpt lat="47.71235" lon="6.03806">
        <ele>219</ele>
        <time>2010-01-01T01:44:19Z</time>
      </trkpt>
      <trkpt lat="47.71229" lon="6.03809">
        <ele>219</ele>
        <time>2010-01-01T01:44:21Z</time>
      </trkpt>
      <trkpt lat="47.71224" lon="6.03811">
        <ele>218</ele>
        <time>2010-01-01T01:44:23Z</time>
      </trkpt>
      <trkpt lat="47.71219" lon="6.03814">
        <ele>218</ele>
        <time>2010-01-01T01:44:25Z</time>
      </trkpt>
      <trkpt lat="47.71197" lon="6.03823">
        <ele>218</ele>
        <time>2010-01-01T01:44:35Z</time>
      </trkpt>
      <trkpt lat="47.7117" lon="6.03841">
        <ele>218</ele>
        <time>2010-01-01T01:44:46Z</time>
      </trkpt>
      <trkpt lat="47.71165" lon="6.03844">
        <ele>218</ele>
        <time>2010-01-01T01:44:48Z</time>
      </trkpt>
      <trkpt lat="47.7116" lon="6.03848">
        <ele>217</ele>
        <time>2010-01-01T01:44:51Z</time>
      </trkpt>
      <trkpt lat="47.71155" lon="6.0385">
        <ele>217</ele>
        <time>2010-01-01T01:44:53Z</time>
      </trkpt>
      <trkpt lat="47.7115" lon="6.03854">
        <ele>216</ele>
        <time>2010-01-01T01:44:55Z</time>
      </trkpt>
      <trkpt lat="47.71136" lon="6.03863">
        <ele>216</ele>
        <time>2010-01-01T01:45:01Z</time>
      </trkpt>
      <trkpt lat="47.71095" lon="6.03888">
        <ele>216</ele>
        <time>2010-01-01T01:45:19Z</time>
      </trkpt>
      <trkpt lat="47.71063" lon="6.03902">
        <ele>216</ele>
        <time>2010-01-01T01:45:32Z</time>
      </trkpt>
      <trkpt lat="47.71058" lon="6.03904">
        <ele>216</ele>
        <time>2010-01-01T01:45:34Z</time>
      </trkpt>
      <trkpt lat="47.71053" lon="6.03905">
        <ele>215</ele>
        <time>2010-01-01T01:45:36Z</time>
      </trkpt>
      <trkpt lat="47.71049" lon="6.03907">
        <ele>215</ele>
        <time>2010-01-01T01:45:38Z</time>
      </trkpt>
      <trkpt lat="47.71045" lon="6.03908">
        <ele>214</ele>
        <time>2010-01-01T01:45:40Z</time>
      </trkpt>
      <trkpt lat="47.71033" lon="6.03911">
        <ele>214</ele>
        <time>2010-01-01T01:45:45Z</time>
      </trkpt>
      <trkpt lat="47.70996" lon="6.03919">
        <ele>214</ele>
        <time>2010-01-01T01:45:59Z</time>
      </trkpt>
      <trkpt lat="47.70962" lon="6.03921">
        <ele>214</ele>
        <time>2010-01-01T01:46:13Z</time>
      </trkpt>
      <trkpt lat="47.70913" lon="6.03923">
        <ele>214</ele>
        <time>2010-01-01T01:46:33Z</time>
      </trkpt>
      <trkpt lat="47.70869" lon="6.03925">
        <ele>214</ele>
        <time>2010-01-01T01:46:50Z</time>
      </trkpt>
      <trkpt lat="47.70833" lon="6.03932">
        <ele>214</ele>
        <time>2010-01-01T01:47:05Z</time>
      </trkpt>
      <trkpt lat="47.70807" lon="6.03943">
        <ele>214</ele>
        <time>2010-01-01T01:47:16Z</time>
      </trkpt>
      <trkpt lat="47.70793" lon="6.03951">
        <ele>214</ele>
        <time>2010-01-01T01:47:22Z</time>
      </trkpt>
      <trkpt lat="47.70786" lon="6.03958">
        <ele>214</ele>
        <time>2010-01-01T01:47:25Z</time>
      </trkpt>
      <trkpt lat="47.70759" lon="6.03981">
        <ele>214</ele>
        <time>2010-01-01T01:47:38Z</time>
      </trkpt>
      <trkpt lat="47.70734" lon="6.04005">
        <ele>214</ele>
        <time>2010-01-01T01:47:50Z</time>
      </trkpt>
      <trkpt lat="47.70698" lon="6.04039">
        <ele>214</ele>
        <time>2010-01-01T01:48:06Z</time>
      </trkpt>
      <trkpt lat="47.70664" lon="6.04075">
        <ele>214</ele>
        <time>2010-01-01T01:48:23Z</time>
      </trkpt>
      <trkpt lat="47.70636" lon="6.04111">
        <ele>214</ele>
        <time>2010-01-01T01:48:38Z</time>
      </trkpt>
      <trkpt lat="47.70605" lon="6.04155">
        <ele>214</ele>
        <time>2010-01-01T01:48:55Z</time>
      </trkpt>
      <trkpt lat="47.70575" lon="6.04198">
        <ele>214</ele>
        <time>2010-01-01T01:49:12Z</time>
      </trkpt>
      <trkpt lat="47.70544" lon="6.04247">
        <ele>214</ele>
        <time>2010-01-01T01:49:30Z</time>
      </trkpt>
      <trkpt lat="47.70524" lon="6.04277">
        <ele>214</ele>
        <time>2010-01-01T01:49:42Z</time>
      </trkpt>
      <trkpt lat="47.70487" lon="6.04321">
        <ele>214</ele>
        <time>2010-01-01T01:50:00Z</time>
      </trkpt>
      <trkpt lat="47.70463" lon="6.04343">
        <ele>214</ele>
        <time>2010-01-01T01:50:12Z</time>
      </trkpt>
      <trkpt lat="47.70453" lon="6.0435">
        <ele>215</ele>
        <time>2010-01-01T01:50:16Z</time>
      </trkpt>
      <trkpt lat="47.70449" lon="6.04352">
        <ele>215</ele>
        <time>2010-01-01T01:50:18Z</time>
      </trkpt>
      <trkpt lat="47.70446" lon="6.04354">
        <ele>216</ele>
        <time>2010-01-01T01:50:19Z</time>
      </trkpt>
      <trkpt lat="47.70443" lon="6.04356">
        <ele>216</ele>
        <time>2010-01-01T01:50:20Z</time>
      </trkpt>
      <trkpt lat="47.7044" lon="6.04359">
        <ele>217</ele>
        <time>2010-01-01T01:50:22Z</time>
      </trkpt>
      <trkpt lat="47.70415" lon="6.04374">
        <ele>217</ele>
        <time>2010-01-01T01:50:32Z</time>
      </trkpt>
      <trkpt lat="47.70412" lon="6.04376">
        <ele>217</ele>
        <time>2010-01-01T01:50:34Z</time>
      </trkpt>
      <trkpt lat="47.7041" lon="6.04378">
        <ele>218</ele>
        <time>2010-01-01T01:50:35Z</time>
      </trkpt>
      <trkpt lat="47.70407" lon="6.04379">
        <ele>218</ele>
        <time>2010-01-01T01:50:36Z</time>
      </trkpt>
      <trkpt lat="47.70404" lon="6.04381">
        <ele>219</ele>
        <time>2010-01-01T01:50:38Z</time>
      </trkpt>
      <trkpt lat="47.70395" lon="6.04387">
        <ele>219</ele>
        <time>2010-01-01T01:50:41Z</time>
      </trkpt>
      <trkpt lat="47.7037" lon="6.044">
        <ele>219</ele>
        <time>2010-01-01T01:50:52Z</time>
      </trkpt>
      <trkpt lat="47.70367" lon="6.04401">
        <ele>219</ele>
        <time>2010-01-01T01:50:53Z</time>
      </trkpt>
      <trkpt lat="47.70364" lon="6.04403">
        <ele>219</ele>
        <time>2010-01-01T01:50:54Z</time>
      </trkpt>
      <trkpt lat="47.70361" lon="6.04405">
        <ele>220</ele>
        <time>2010-01-01T01:50:56Z</time>
      </trkpt>
      <trkpt lat="47.70358" lon="6.04407">
        <ele>221</ele>
        <time>2010-01-01T01:50:57Z</time>
      </trkpt>
      <trkpt lat="47.70342" lon="6.04416">
        <ele>221</ele>
        <time>2010-01-01T01:51:04Z</time>
      </trkpt>
      <trkpt lat="47.70316" lon="6.04432">
        <ele>221</ele>
        <time>2010-01-01T01:51:15Z</time>
      </trkpt>
      <trkpt lat="47.70288" lon="6.04449">
        <ele>221</ele>
        <time>2010-01-01T01:51:27Z</time>
      </trkpt>
      <trkpt lat="47.70269" lon="6.04455">
        <ele>220</ele>
        <time>2010-01-01T01:51:35Z</time>
      </trkpt>
      <trkpt lat="47.70264" lon="6.04456">
        <ele>219</ele>
        <time>2010-01-01T01:51:37Z</time>
      </trkpt>
      <trkpt lat="47.7026" lon="6.04458">
        <ele>219</ele>
        <time>2010-01-01T01:51:39Z</time>
      </trkpt>
      <trkpt lat="47.70255" lon="6.04459">
        <ele>219</ele>
        <time>2010-01-01T01:51:41Z</time>
      </trkpt>
      <trkpt lat="47.7025" lon="6.04461">
        <ele>219</ele>
        <time>2010-01-01T01:51:43Z</time>
      </trkpt>
      <trkpt lat="47.7021" lon="6.04473">
        <ele>219</ele>
        <time>2010-01-01T01:51:59Z</time>
      </trkpt>
      <trkpt lat="47.70182" lon="6.0448">
        <ele>219</ele>
        <time>2010-01-01T01:52:10Z</time>
      </trkpt>
      <trkpt lat="47.70175" lon="6.04481">
        <ele>219</ele>
        <time>2010-01-01T01:52:13Z</time>
      </trkpt>
      <trkpt lat="47.70172" lon="6.04481">
        <ele>219</ele>
        <time>2010-01-01T01:52:15Z</time>
      </trkpt>
      <trkpt lat="47.70168" lon="6.04482">
        <ele>220</ele>
        <time>2010-01-01T01:52:16Z</time>
      </trkpt>
      <trkpt lat="47.70165" lon="6.04482">
        <ele>220</ele>
        <time>2010-01-01T01:52:17Z</time>
      </trkpt>
      <trkpt lat="47.70161" lon="6.04482">
        <ele>221</ele>
        <time>2010-01-01T01:52:19Z</time>
      </trkpt>
      <trkpt lat="47.70153" lon="6.04482">
        <ele>221</ele>
        <time>2010-01-01T01:52:22Z</time>
      </trkpt>
      <trkpt lat="47.70129" lon="6.04477">
        <ele>221</ele>
        <time>2010-01-01T01:52:32Z</time>
      </trkpt>
      <trkpt lat="47.70107" lon="6.04472">
        <ele>221</ele>
        <time>2010-01-01T01:52:41Z</time>
      </trkpt>
      <trkpt lat="47.70075" lon="6.04465">
        <ele>221</ele>
        <time>2010-01-01T01:52:54Z</time>
      </trkpt>
      <trkpt lat="47.7004" lon="6.04457">
        <ele>220</ele>
        <time>2010-01-01T01:53:08Z</time>
      </trkpt>
      <trkpt lat="47.70034" lon="6.04456">
        <ele>220</ele>
        <time>2010-01-01T01:53:10Z</time>
      </trkpt>
      <trkpt lat="47.70029" lon="6.04455">
        <ele>219</ele>
        <time>2010-01-01T01:53:12Z</time>
      </trkpt>
      <trkpt lat="47.70024" lon="6.04454">
        <ele>219</ele>
        <time>2010-01-01T01:53:15Z</time>
      </trkpt>
      <trkpt lat="47.70018" lon="6.04453">
        <ele>218</ele>
        <time>2010-01-01T01:53:17Z</time>
      </trkpt>
      <trkpt lat="47.69985" lon="6.04447">
        <ele>218</ele>
        <time>2010-01-01T01:53:30Z</time>
      </trkpt>
      <trkpt lat="47.6996" lon="6.04445">
        <ele>218</ele>
        <time>2010-01-01T01:53:40Z</time>
      </trkpt>
      <trkpt lat="47.69939" lon="6.04442">
        <ele>218</ele>
        <time>2010-01-01T01:53:49Z</time>
      </trkpt>
      <trkpt lat="47.69934" lon="6.04441">
        <ele>218</ele>
        <time>2010-01-01T01:53:51Z</time>
      </trkpt>
      <trkpt lat="47.69929" lon="6.04441">
        <ele>217</ele>
        <time>2010-01-01T01:53:53Z</time>
      </trkpt>
      <trkpt lat="47.69924" lon="6.04441">
        <ele>217</ele>
        <time>2010-01-01T01:53:55Z</time>
      </trkpt>
      <trkpt lat="47.69918" lon="6.0444">
        <ele>216</ele>
        <time>2010-01-01T01:53:57Z</time>
      </trkpt>
      <trkpt lat="47.69883" lon="6.04436">
        <ele>216</ele>
        <time>2010-01-01T01:54:11Z</time>
      </trkpt>
      <trkpt lat="47.69846" lon="6.04432">
        <ele>216</ele>
        <time>2010-01-01T01:54:26Z</time>
      </trkpt>
      <trkpt lat="47.69812" lon="6.04429">
        <ele>216</ele>
        <time>2010-01-01T01:54:40Z</time>
      </trkpt>
      <trkpt lat="47.69777" lon="6.04426">
        <ele>216</ele>
        <time>2010-01-01T01:54:53Z</time>
      </trkpt>
      <trkpt lat="47.69747" lon="6.04425">
        <ele>216</ele>
        <time>2010-01-01T01:55:06Z</time>
      </trkpt>
      <trkpt lat="47.69741" lon="6.04425">
        <ele>216</ele>
        <time>2010-01-01T01:55:08Z</time>
      </trkpt>
      <trkpt lat="47.69735" lon="6.04426">
        <ele>215</ele>
        <time>2010-01-01T01:55:10Z</time>
      </trkpt>
      <trkpt lat="47.6973" lon="6.04426">
        <ele>215</ele>
        <time>2010-01-01T01:55:12Z</time>
      </trkpt>
      <trkpt lat="47.69725" lon="6.04426">
        <ele>214</ele>
        <time>2010-01-01T01:55:14Z</time>
      </trkpt>
      <trkpt lat="47.69704" lon="6.04427">
        <ele>214</ele>
        <time>2010-01-01T01:55:23Z</time>
      </trkpt>
      <trkpt lat="47.69664" lon="6.04429">
        <ele>214</ele>
        <time>2010-01-01T01:55:39Z</time>
      </trkpt>
      <trkpt lat="47.6962" lon="6.0443">
        <ele>214</ele>
        <time>2010-01-01T01:55:56Z</time>
      </trkpt>
      <trkpt lat="47.69596" lon="6.04432">
        <ele>214</ele>
        <time>2010-01-01T01:56:06Z</time>
      </trkpt>
      <trkpt lat="47.69573" lon="6.04432">
        <ele>214</ele>
        <time>2010-01-01T01:56:15Z</time>
      </trkpt>
      <trkpt lat="47.69564" lon="6.04433">
        <ele>214</ele>
        <time>2010-01-01T01:56:19Z</time>
      </trkpt>
      <trkpt lat="47.69518" lon="6.04431">
        <ele>214</ele>
        <time>2010-01-01T01:56:37Z</time>
      </trkpt>
      <trkpt lat="47.69465" lon="6.04427">
        <ele>214</ele>
        <time>2010-01-01T01:56:59Z</time>
      </trkpt>
      <trkpt lat="47.69415" lon="6.0442">
        <ele>214</ele>
        <time>2010-01-01T01:57:19Z</time>
      </trkpt>
      <trkpt lat="47.69361" lon="6.04411">
        <ele>214</ele>
        <time>2010-01-01T01:57:40Z</time>
      </trkpt>
      <trkpt lat="47.69356" lon="6.0441">
        <ele>214</ele>
        <time>2010-01-01T01:57:42Z</time>
      </trkpt>
      <trkpt lat="47.69319" lon="6.04406">
        <ele>214</ele>
        <time>2010-01-01T01:57:57Z</time>
      </trkpt>
      <trkpt lat="47.69269" lon="6.04395">
        <ele>214</ele>
        <time>2010-01-01T01:58:18Z</time>
      </trkpt>
      <trkpt lat="47.69232" lon="6.04382">
        <ele>214</ele>
        <time>2010-01-01T01:58:33Z</time>
      </trkpt>
      <trkpt lat="47.692" lon="6.04368">
        <ele>214</ele>
        <time>2010-01-01T01:58:46Z</time>
      </trkpt>
      <trkpt lat="47.69163" lon="6.04353">
        <ele>214</ele>
        <time>2010-01-01T01:59:01Z</time>
      </trkpt>
      <trkpt lat="47.69143" lon="6.04343">
        <ele>214</ele>
        <time>2010-01-01T01:59:10Z</time>
      </trkpt>
      <trkpt lat="47.69134" lon="6.04336">
        <ele>214</ele>
        <time>2010-01-01T01:59:14Z</time>
      </trkpt>
      <trkpt lat="47.69108" lon="6.04318">
        <ele>214</ele>
        <time>2010-01-01T01:59:25Z</time>
      </trkpt>
      <trkpt lat="47.69082" lon="6.04296">
        <ele>214</ele>
        <time>2010-01-01T01:59:38Z</time>
      </trkpt>
      <trkpt lat="47.69058" lon="6.04279">
        <ele>214</ele>
        <time>2010-01-01T01:59:48Z</time>
      </trkpt>
      <trkpt lat="47.69054" lon="6.04277">
        <ele>214</ele>
        <time>2010-01-01T01:59:50Z</time>
      </trkpt>
      <trkpt lat="47.69026" lon="6.04262">
        <ele>214</ele>
        <time>2010-01-01T02:00:02Z</time>
      </trkpt>
      <trkpt lat="47.69022" lon="6.04261">
        <ele>214</ele>
        <time>2010-01-01T02:00:04Z</time>
      </trkpt>
      <trkpt lat="47.69004" lon="6.04264">
        <ele>214</ele>
        <time>2010-01-01T02:00:11Z</time>
      </trkpt>
      <trkpt lat="47.6898" lon="6.04266">
        <ele>214</ele>
        <time>2010-01-01T02:00:20Z</time>
      </trkpt>
      <trkpt lat="47.68954" lon="6.04271">
        <ele>214</ele>
        <time>2010-01-01T02:00:31Z</time>
      </trkpt>
      <trkpt lat="47.68942" lon="6.04261">
        <ele>214</ele>
        <time>2010-01-01T02:00:36Z</time>
      </trkpt>
      <trkpt lat="47.6893" lon="6.04256">
        <ele>214</ele>
        <time>2010-01-01T02:00:41Z</time>
      </trkpt>
      <trkpt lat="47.68922" lon="6.04254">
        <ele>215</ele>
        <time>2010-01-01T02:00:44Z</time>
      </trkpt>
      <trkpt lat="47.68922" lon="6.04254">
        <ele>216</ele>
        <time>2010-01-01T02:00:45Z</time>
      </trkpt>
      <trkpt lat="47.68921" lon="6.04253">
        <ele>216</ele>
        <time>2010-01-01T02:00:45Z</time>
      </trkpt>
      <trkpt lat="47.6892" lon="6.0425">
        <ele>217</ele>
        <time>2010-01-01T02:00:46Z</time>
      </trkpt>
      <trkpt lat="47.68921" lon="6.04248">
        <ele>217</ele>
        <time>2010-01-01T02:00:47Z</time>
      </trkpt>
      <trkpt lat="47.68923" lon="6.04245">
        <ele>217</ele>
        <time>2010-01-01T02:00:47Z</time>
      </trkpt>
      <trkpt lat="47.68932" lon="6.04223">
        <ele>217</ele>
        <time>2010-01-01T02:00:54Z</time>
      </trkpt>
      <trkpt lat="47.68946" lon="6.04182">
        <ele>217</ele>
        <time>2010-01-01T02:01:07Z</time>
      </trkpt>
      <trkpt lat="47.68963" lon="6.04135">
        <ele>217</ele>
        <time>2010-01-01T02:01:21Z</time>
      </trkpt>
      <trkpt lat="47.68966" lon="6.04129">
        <ele>217</ele>
        <time>2010-01-01T02:01:23Z</time>
      </trkpt>
      <trkpt lat="47.6898" lon="6.04102">
        <ele>217</ele>
        <time>2010-01-01T02:01:32Z</time>
      </trkpt>
      <trkpt lat="47.68999" lon="6.04052">
        <ele>217</ele>
        <time>2010-01-01T02:01:48Z</time>
      </trkpt>
      <trkpt lat="47.69016" lon="6.04005">
        <ele>217</ele>
        <time>2010-01-01T02:02:02Z</time>
      </trkpt>
      <trkpt lat="47.69021" lon="6.03994">
        <ele>217</ele>
        <time>2010-01-01T02:02:06Z</time>
      </trkpt>
      <trkpt lat="47.69023" lon="6.03989">
        <ele>218</ele>
        <time>2010-01-01T02:02:07Z</time>
      </trkpt>
      <trkpt lat="47.69026" lon="6.03983">
        <ele>218</ele>
        <time>2010-01-01T02:02:09Z</time>
      </trkpt>
      <trkpt lat="47.69028" lon="6.03978">
        <ele>218</ele>
        <time>2010-01-01T02:02:11Z</time>
      </trkpt>
      <trkpt lat="47.69031" lon="6.03973">
        <ele>219</ele>
        <time>2010-01-01T02:02:13Z</time>
      </trkpt>
      <trkpt lat="47.69044" lon="6.03941">
        <ele>219</ele>
        <time>2010-01-01T02:02:23Z</time>
      </trkpt>
      <trkpt lat="47.69067" lon="6.03886">
        <ele>219</ele>
        <time>2010-01-01T02:02:40Z</time>
      </trkpt>
      <trkpt lat="47.69068" lon="6.0388">
        <ele>219</ele>
        <time>2010-01-01T02:02:42Z</time>
      </trkpt>
      <trkpt lat="47.6908" lon="6.03848">
        <ele>219</ele>
        <time>2010-01-01T02:02:52Z</time>
      </trkpt>
      <trkpt lat="47.69084" lon="6.03837">
        <ele>219</ele>
        <time>2010-01-01T02:02:55Z</time>
      </trkpt>
      <trkpt lat="47.69092" lon="6.0382">
        <ele>219</ele>
        <time>2010-01-01T02:03:01Z</time>
      </trkpt>
      <trkpt lat="47.69097" lon="6.038">
        <ele>219</ele>
        <time>2010-01-01T02:03:06Z</time>
      </trkpt>
      <trkpt lat="47.69095" lon="6.03794">
        <ele>219</ele>
        <time>2010-01-01T02:03:08Z</time>
      </trkpt>
      <trkpt lat="47.69084" lon="6.03779">
        <ele>219</ele>
        <time>2010-01-01T02:03:14Z</time>
      </trkpt>
      <trkpt lat="47.69079" lon="6.03776">
        <ele>218</ele>
        <time>2010-01-01T02:03:16Z</time>
      </trkpt>
      <trkpt lat="47.69075" lon="6.03777">
        <ele>218</ele>
        <time>2010-01-01T02:03:18Z</time>
      </trkpt>
      <trkpt lat="47.69073" lon="6.03779">
        <ele>217</ele>
        <time>2010-01-01T02:03:19Z</time>
      </trkpt>
      <trkpt lat="47.69071" lon="6.03781">
        <ele>216</ele>
        <time>2010-01-01T02:03:20Z</time>
      </trkpt>
      <trkpt lat="47.6907" lon="6.03784">
        <ele>216</ele>
        <time>2010-01-01T02:03:21Z</time>
      </trkpt>
    </trkseg>
  </trk>
</gpx>